| time (UTC) | temp C | wind direction | speed KPH | gust KPH | rain 1hr cm | rain 24hr cm | rain mn cm | humidity % | barometer mb |
| 20260904024428 | 18 | 229 | 6.4 | 12.9 | 0.00 | 0.00 | 0.00 | 64 | 1019.9 |
| 20260904024329 | 18 | 213 | 6.4 | 12.9 | 0.00 | 0.00 | 0.00 | 64 | 1019.9 |
| 20260904024229 | 18 | 207 | 6.4 | 12.9 | 0.00 | 0.00 | 0.00 | 64 | 1019.9 |
| 20260904024129 | 18 | 227 | 6.4 | 12.9 | 0.00 | 0.00 | 0.00 | 65 | 1019.9 |
| 20260904024029 | 18 | 204 | 6.4 | 12.9 | 0.00 | 0.00 | 0.00 | 64 | 1019.9 |
| 20260904024010 | 18 | 203 | 6.4 | 12.9 | 0.00 | 0.00 | 0.00 | 64 | 1019.9 |
| 20260904023929 | 18 | 240 | 6.4 | 12.9 | 0.00 | 0.00 | 0.00 | 64 | 1019.9 |
| 20260904023829 | 18 | 227 | 6.4 | 12.9 | 0.00 | 0.00 | 0.00 | 64 | 1019.9 |
| 20260904023729 | 18 | 218 | 6.4 | 12.9 | 0.00 | 0.00 | 0.00 | 64 | 1019.9 |
| 20260904023629 | 18 | 219 | 6.4 | 12.9 | 0.00 | 0.00 | 0.00 | 64 | 1020.0 |
| 20260904023529 | 18 | 217 | 6.4 | 11.3 | 0.00 | 0.00 | 0.00 | 64 | 1020.0 |
| 20260904023510 | 18 | 219 | 6.4 | 11.3 | 0.00 | 0.00 | 0.00 | 64 | 1020.0 |
| 20260904023428 | 18 | 249 | 6.4 | 11.3 | 0.00 | 0.00 | 0.00 | 64 | 1020.0 |
| 20260904023328 | 18 | 234 | 6.4 | 11.3 | 0.00 | 0.00 | 0.00 | 64 | 1020.0 |
| 20260904023237 | 18 | 205 | 6.4 | 12.9 | 0.00 | 0.00 | 0.00 | 64 | 1020.0 |
| 20260904023232 | 18 | 220 | 6.4 | 11.3 | 0.00 | 0.00 | 0.00 | 64 | 1020.0 |
| 20260904023228 | 18 | 209 | 6.4 | 12.9 | 0.00 | 0.00 | 0.00 | 64 | 1020.0 |
| 20260904023224 | 18 | 209 | 6.4 | 12.9 | 0.00 | 0.00 | 0.00 | 64 | 1020.0 |
| 20260904022928 | 18 | 235 | 6.4 | 12.9 | 0.00 | 0.00 | 0.00 | 64 | 1020.0 |
| 20260904022828 | 18 | 247 | 6.4 | 12.9 | 0.00 | 0.00 | 0.00 | 64 | 1020.0 |
| 20260904022728 | 18 | 225 | 6.4 | 12.9 | 0.00 | 0.00 | 0.00 | 64 | 1020.0 |
| 20260904022628 | 18 | 238 | 6.4 | 12.9 | 0.00 | 0.00 | 0.00 | 64 | 1020.0 |
| 20260904022529 | 18 | 227 | 6.4 | 12.9 | 0.00 | 0.00 | 0.00 | 64 | 1020.0 |
| 20260904022508 | 18 | 230 | 6.4 | 12.9 | 0.00 | 0.00 | 0.00 | 64 | 1020.0 |
| 20260904022429 | 18 | 231 | 6.4 | 12.9 | 0.00 | 0.00 | 0.00 | 64 | 1020.0 |
| 20260904022329 | 18 | 224 | 6.4 | 12.9 | 0.00 | 0.00 | 0.00 | 64 | 1020.0 |
| 20260904022228 | 18 | 248 | 6.4 | 12.9 | 0.00 | 0.00 | 0.00 | 63 | 1020.0 |
| 20260904022129 | 18 | 243 | 6.4 | 12.9 | 0.00 | 0.00 | 0.00 | 63 | 1020.0 |
| 20260904022029 | 18 | 224 | 6.4 | 12.9 | 0.00 | 0.00 | 0.00 | 63 | 1020.0 |
| 20260904022008 | 18 | 219 | 6.4 | 12.9 | 0.00 | 0.00 | 0.00 | 63 | 1020.0 |
| 20260904021929 | 18 | 242 | 6.4 | 12.9 | 0.00 | 0.00 | 0.00 | 63 | 1020.0 |
| 20260904021828 | 18 | 207 | 6.4 | 12.9 | 0.00 | 0.00 | 0.00 | 63 | 1019.9 |
| 20260904021734 | 18 | 212 | 6.4 | 12.9 | 0.00 | 0.00 | 0.00 | 63 | 1020.0 |
| 20260904021728 | 18 | 255 | 6.4 | 12.9 | 0.00 | 0.00 | 0.00 | 63 | 1020.0 |
| 20260904021723 | 18 | 231 | 6.4 | 12.9 | 0.00 | 0.00 | 0.00 | 64 | 1020.0 |
| 20260904021719 | 18 | 209 | 6.4 | 12.9 | 0.00 | 0.00 | 0.00 | 63 | 1020.0 |
| 20260904021429 | 18 | 268 | 6.4 | 12.9 | 0.00 | 0.00 | 0.00 | 64 | 1020.0 |
| 20260904021329 | 18 | 227 | 6.4 | 12.9 | 0.00 | 0.00 | 0.00 | 63 | 1020.0 |
| 20260904021228 | 18 | 233 | 6.4 | 12.9 | 0.00 | 0.00 | 0.00 | 63 | 1020.0 |
| 20260904021129 | 18 | 238 | 6.4 | 12.9 | 0.00 | 0.00 | 0.00 | 63 | 1020.0 |
| 20260904021028 | 18 | 257 | 6.4 | 12.9 | 0.00 | 0.00 | 0.00 | 63 | 1020.0 |
| 20260904021009 | 18 | 245 | 6.4 | 12.9 | 0.00 | 0.00 | 0.00 | 63 | 1019.9 |
| 20260904020928 | 18 | 248 | 6.4 | 12.9 | 0.00 | 0.00 | 0.00 | 63 | 1019.9 |
| 20260904020829 | 18 | 254 | 6.4 | 12.9 | 0.00 | 0.00 | 0.00 | 63 | 1019.9 |
| 20260904020733 | 18 | 228 | 6.4 | 16.1 | 0.00 | 0.00 | 0.00 | 63 | 1019.9 |
| 20260904020729 | 18 | 284 | 6.4 | 16.1 | 0.00 | 0.00 | 0.00 | 63 | 1019.9 |
| 20260904020725 | 18 | 205 | 6.4 | 16.1 | 0.00 | 0.00 | 0.00 | 63 | 1020.0 |
| 20260904020721 | 18 | 217 | 6.4 | 16.1 | 0.00 | 0.00 | 0.00 | 63 | 1020.0 |
| 20260904020429 | 18 | 240 | 6.4 | 16.1 | 0.00 | 0.00 | 0.00 | 63 | 1019.9 |
| 20260904020329 | 18 | 273 | 6.4 | 16.1 | 0.00 | 0.00 | 0.00 | 63 | 1020.0 |
| 20260904020229 | 18 | 261 | 6.4 | 16.1 | 0.00 | 0.00 | 0.00 | 63 | 1020.0 |
| 20260904020129 | 18 | 248 | 6.4 | 16.1 | 0.00 | 0.00 | 0.00 | 63 | 1020.0 |
| 20260904020029 | 18 | 259 | 6.4 | 16.1 | 0.00 | 0.00 | 0.00 | 63 | 1020.0 |
| 20260904020005 | 18 | 232 | 6.4 | 16.1 | 0.00 | 0.00 | 0.00 | 63 | 1020.0 |
| 20260904015928 | 18 | 244 | 6.4 | 16.1 | 0.00 | 0.00 | 0.00 | 63 | 1020.0 |
| 20260904015828 | 18 | 221 | 6.4 | 16.1 | 0.00 | 0.00 | 0.00 | 62 | 1020.0 |
| 20260904015728 | 18 | 216 | 6.4 | 11.3 | 0.00 | 0.00 | 0.00 | 62 | 1019.9 |
| 20260904015628 | 18 | 238 | 6.4 | 11.3 | 0.00 | 0.00 | 0.00 | 63 | 1020.0 |
| 20260904015528 | 18 | 224 | 4.8 | 11.3 | 0.00 | 0.00 | 0.00 | 63 | 1020.0 |
| 20260904015504 | 18 | 213 | 4.8 | 11.3 | 0.00 | 0.00 | 0.00 | 63 | 1020.0 |
| 20260904015454 | 18 | 210 | 4.8 | 14.5 | 0.00 | 0.00 | 0.00 | 63 | 1020.0 |
| 20260904015449 | 18 | 225 | 4.8 | 11.3 | 0.00 | 0.00 | 0.00 | 63 | 1020.0 |
| 20260904015445 | 18 | 275 | 4.8 | 11.3 | 0.00 | 0.00 | 0.00 | 63 | 1020.0 |
| 20260904015437 | 18 | 227 | 4.8 | 11.3 | 0.00 | 0.00 | 0.00 | 63 | 1020.0 |
| 20260904015220 | 18 | 218 | 6.4 | 14.5 | 0.00 | 0.00 | 0.00 | 63 | 1020.0 |
| 20260904015216 | 18 | 215 | 4.8 | 14.5 | 0.00 | 0.00 | 0.00 | 63 | 1020.0 |
| 20260904014928 | 18 | 204 | 4.8 | 14.5 | 0.00 | 0.00 | 0.00 | 63 | 1020.0 |
| 20260904014829 | 18 | 219 | 4.8 | 14.5 | 0.00 | 0.00 | 0.00 | 63 | 1020.0 |
| 20260904014729 | 18 | 219 | 4.8 | 14.5 | 0.00 | 0.00 | 0.00 | 64 | 1020.0 |
| 20260904014628 | 18 | 224 | 4.8 | 14.5 | 0.00 | 0.00 | 0.00 | 63 | 1020.1 |
| 20260904014528 | 18 | 259 | 6.4 | 14.5 | 0.00 | 0.00 | 0.00 | 63 | 1020.0 |
| 20260904014505 | 18 | 259 | 6.4 | 14.5 | 0.00 | 0.00 | 0.00 | 64 | 1020.0 |
| 20260904014428 | 18 | 258 | 6.4 | 14.5 | 0.00 | 0.00 | 0.00 | 64 | 1020.0 |
| 20260904014328 | 18 | 246 | 6.4 | 14.5 | 0.00 | 0.00 | 0.00 | 63 | 1020.1 |
| 20260904014228 | 18 | 220 | 6.4 | 14.5 | 0.00 | 0.00 | 0.00 | 64 | 1020.0 |
| 20260904014128 | 18 | 217 | 4.8 | 11.3 | 0.00 | 0.00 | 0.00 | 64 | 1020.1 |
| 20260904014028 | 18 | 225 | 4.8 | 11.3 | 0.00 | 0.00 | 0.00 | 63 | 1020.0 |
| 20260904014005 | 18 | 219 | 4.8 | 11.3 | 0.00 | 0.00 | 0.00 | 63 | 1020.0 |
| 20260904013929 | 18 | 225 | 4.8 | 11.3 | 0.00 | 0.00 | 0.00 | 63 | 1020.0 |
| 20260904013829 | 18 | 223 | 4.8 | 11.3 | 0.00 | 0.00 | 0.00 | 64 | 1020.0 |
| 20260904013738 | 18 | 219 | 6.4 | 14.5 | 0.00 | 0.00 | 0.00 | 64 | 1020.0 |
| 20260904013729 | 18 | 241 | 4.8 | 11.3 | 0.00 | 0.00 | 0.00 | 64 | 1020.0 |
| 20260904013721 | 18 | 232 | 4.8 | 9.7 | 0.00 | 0.00 | 0.00 | 64 | 1020.0 |
| 20260904013717 | 18 | 221 | 6.4 | 14.5 | 0.00 | 0.00 | 0.00 | 64 | 1020.0 |
| 20260904013428 | 18 | 219 | 6.4 | 14.5 | 0.00 | 0.00 | 0.00 | 63 | 1020.0 |
| 20260904013328 | 18 | 230 | 6.4 | 14.5 | 0.00 | 0.00 | 0.00 | 64 | 1020.1 |
| 20260904013232 | 18 | 214 | 6.4 | 14.5 | 0.00 | 0.00 | 0.00 | 64 | 1020.1 |
| 20260904013128 | 18 | 232 | 6.4 | 14.5 | 0.00 | 0.00 | 0.00 | 64 | 1020.1 |
| 20260904013005 | 18 | 244 | 6.4 | 14.5 | 0.00 | 0.00 | 0.00 | 64 | 1020.2 |
| 20260904012928 | 18 | 237 | 6.4 | 14.5 | 0.00 | 0.00 | 0.00 | 64 | 1020.2 |
| 20260904012829 | 18 | 244 | 6.4 | 14.5 | 0.00 | 0.00 | 0.00 | 64 | 1020.1 |
| 20260904012729 | 18 | 232 | 6.4 | 14.5 | 0.00 | 0.00 | 0.00 | 64 | 1020.2 |
| 20260904012628 | 18 | 211 | 4.8 | 14.5 | 0.00 | 0.00 | 0.00 | 64 | 1020.2 |
| 20260904012529 | 18 | 220 | 4.8 | 11.3 | 0.00 | 0.00 | 0.00 | 63 | 1020.2 |
| 20260904012504 | 18 | 214 | 4.8 | 11.3 | 0.00 | 0.00 | 0.00 | 63 | 1020.2 |
| 20260904012429 | 18 | 228 | 4.8 | 11.3 | 0.00 | 0.00 | 0.00 | 64 | 1020.2 |
| 20260904012330 | 19 | 205 | 4.8 | 11.3 | 0.00 | 0.00 | 0.00 | 63 | 1020.1 |
| 20260904012231 | 19 | 226 | 4.8 | 11.3 | 0.00 | 0.00 | 0.00 | 63 | 1020.2 |
| 20260904012227 | 19 | 242 | 4.8 | 11.3 | 0.00 | 0.00 | 0.00 | 63 | 1020.2 |
| 20260904012219 | 18 | 213 | 4.8 | 11.3 | 0.00 | 0.00 | 0.00 | 63 | 1020.1 |
| 20260904012216 | 19 | 252 | 4.8 | 11.3 | 0.00 | 0.00 | 0.00 | 63 | 1020.2 |
| 20260904011946 | 19 | 258 | 6.4 | 12.9 | 0.00 | 0.00 | 0.00 | 63 | 1020.3 |
| 20260904011942 | 19 | 228 | 4.8 | 11.3 | 0.00 | 0.00 | 0.00 | 63 | 1020.3 |
| 20260904011938 | 19 | 204 | 4.8 | 11.3 | 0.00 | 0.00 | 0.00 | 63 | 1020.2 |
| 20260904011933 | 19 | 229 | 4.8 | 11.3 | 0.00 | 0.00 | 0.00 | 63 | 1020.2 |
| 20260904011929 | 19 | 227 | 4.8 | 11.3 | 0.00 | 0.00 | 0.00 | 63 | 1020.2 |
| 20260904011921 | 19 | 245 | 4.8 | 11.3 | 0.00 | 0.00 | 0.00 | 63 | 1020.2 |
| 20260904011917 | 19 | 230 | 4.8 | 11.3 | 0.00 | 0.00 | 0.00 | 63 | 1020.3 |
| 20260904011449 | 19 | 225 | 4.8 | 11.3 | 0.00 | 0.00 | 0.00 | 63 | 1020.3 |
| 20260904011445 | 19 | 278 | 4.8 | 11.3 | 0.00 | 0.00 | 0.00 | 63 | 1020.3 |
| 20260904011228 | 19 | 232 | 4.8 | 11.3 | 0.00 | 0.00 | 0.00 | 63 | 1020.3 |
| 20260904011217 | 19 | 230 | 6.4 | 12.9 | 0.00 | 0.00 | 0.00 | 63 | 1020.3 |
| 20260904011213 | 19 | 210 | 6.4 | 12.9 | 0.00 | 0.00 | 0.00 | 63 | 1020.3 |
| 20260904010928 | 19 | 264 | 6.4 | 12.9 | 0.00 | 0.00 | 0.00 | 63 | 1020.3 |
| 20260904010828 | 19 | 247 | 6.4 | 12.9 | 0.00 | 0.00 | 0.00 | 63 | 1020.3 |
| 20260904010729 | 19 | 237 | 6.4 | 12.9 | 0.00 | 0.00 | 0.00 | 63 | 1020.3 |
| 20260904010700 | 19 | 245 | 6.4 | 12.9 | 0.00 | 0.00 | 0.00 | 63 | 1020.3 |
| 20260904010528 | 19 | 236 | 6.4 | 12.9 | 0.00 | 0.00 | 0.00 | 63 | 1020.4 |
| 20260904010502 | 19 | 231 | 6.4 | 12.9 | 0.00 | 0.00 | 0.00 | 63 | 1020.3 |
| 20260904010429 | 19 | 247 | 6.4 | 12.9 | 0.00 | 0.00 | 0.00 | 63 | 1020.3 |
| 20260904010324 | 19 | 240 | 6.4 | 12.9 | 0.00 | 0.00 | 0.00 | 63 | 1020.3 |
| 20260904010224 | 19 | 213 | 6.4 | 12.9 | 0.00 | 0.00 | 0.00 | 63 | 1020.3 |
| 20260904010124 | 19 | 245 | 4.8 | 12.9 | 0.00 | 0.00 | 0.00 | 63 | 1020.4 |
| 20260904010002 | 19 | 248 | 4.8 | 11.3 | 0.00 | 0.00 | 0.00 | 63 | 1020.3 |
| 20260904005923 | 19 | 207 | 4.8 | 11.3 | 0.00 | 0.00 | 0.00 | 64 | 1020.3 |
| 20260904005820 | 19 | 245 | 4.8 | 11.3 | 0.00 | 0.00 | 0.00 | 63 | 1020.3 |
| 20260904005720 | 19 | 234 | 4.8 | 11.3 | 0.00 | 0.00 | 0.00 | 63 | 1020.3 |
| 20260904005618 | 19 | 257 | 4.8 | 11.3 | 0.00 | 0.00 | 0.00 | 63 | 1020.3 |
| 20260904005518 | 19 | 225 | 4.8 | 11.3 | 0.00 | 0.00 | 0.00 | 63 | 1020.3 |
| 20260904005501 | 19 | 248 | 4.8 | 12.9 | 0.00 | 0.00 | 0.00 | 63 | 1020.3 |
| 20260904005415 | 19 | 215 | 4.8 | 12.9 | 0.00 | 0.00 | 0.00 | 63 | 1020.3 |
| 20260904005311 | 19 | 217 | 4.8 | 12.9 | 0.00 | 0.00 | 0.00 | 63 | 1020.3 |
| 20260904005214 | 19 | 235 | 4.8 | 12.9 | 0.00 | 0.00 | 0.00 | 63 | 1020.3 |
| 20260904005110 | 19 | 235 | 4.8 | 12.9 | 0.00 | 0.00 | 0.00 | 63 | 1020.3 |
| 20260904005000 | 19 | 234 | 4.8 | 12.9 | 0.00 | 0.00 | 0.00 | 63 | 1020.3 |
| 20260904004910 | 19 | 246 | 6.4 | 12.9 | 0.00 | 0.00 | 0.00 | 63 | 1020.3 |
| 20260904004806 | 19 | 246 | 6.4 | 12.9 | 0.00 | 0.00 | 0.00 | 63 | 1020.3 |
| 20260904004707 | 19 | 220 | 6.4 | 12.9 | 0.00 | 0.00 | 0.00 | 63 | 1020.3 |
| 20260904004607 | 19 | 241 | 6.4 | 12.9 | 0.00 | 0.00 | 0.00 | 63 | 1020.3 |
| 20260904004507 | 19 | 255 | 6.4 | 12.9 | 0.00 | 0.00 | 0.00 | 63 | 1020.2 |
| 20260904004500 | 19 | 275 | 6.4 | 12.9 | 0.00 | 0.00 | 0.00 | 63 | 1020.2 |
| 20260904004406 | 19 | 261 | 6.4 | 12.9 | 0.00 | 0.00 | 0.00 | 63 | 1020.2 |
| 20260904004306 | 19 | 246 | 6.4 | 12.9 | 0.00 | 0.00 | 0.00 | 63 | 1020.3 |
| 20260904004210 | 19 | 203 | 6.4 | 12.9 | 0.00 | 0.00 | 0.00 | 63 | 1020.3 |
| 20260904004106 | 19 | 229 | 6.4 | 14.5 | 0.00 | 0.00 | 0.00 | 63 | 1020.3 |
| 20260904004001 | 19 | 275 | 6.4 | 14.5 | 0.00 | 0.00 | 0.00 | 63 | 1020.3 |
| 20260904003906 | 19 | 230 | 6.4 | 14.5 | 0.00 | 0.00 | 0.00 | 63 | 1020.3 |
| 20260904003805 | 19 | 229 | 6.4 | 14.5 | 0.00 | 0.00 | 0.00 | 63 | 1020.3 |
| 20260904003708 | 19 | 213 | 6.4 | 14.5 | 0.00 | 0.00 | 0.00 | 63 | 1020.3 |
| 20260904003604 | 19 | 219 | 6.4 | 14.5 | 0.00 | 0.00 | 0.00 | 63 | 1020.3 |
| 20260904003505 | 19 | 204 | 6.4 | 14.5 | 0.00 | 0.00 | 0.00 | 63 | 1020.3 |
| 20260904003501 | 19 | 203 | 6.4 | 14.5 | 0.00 | 0.00 | 0.00 | 63 | 1020.3 |
| 20260904003405 | 19 | 215 | 6.4 | 14.5 | 0.00 | 0.00 | 0.00 | 63 | 1020.3 |
| 20260904003304 | 19 | 213 | 6.4 | 14.5 | 0.00 | 0.00 | 0.00 | 63 | 1020.3 |
| 20260904003206 | 19 | 240 | 6.4 | 14.5 | 0.00 | 0.00 | 0.00 | 63 | 1020.3 |
| 20260904003101 | 19 | 227 | 6.4 | 11.3 | 0.00 | 0.00 | 0.00 | 63 | 1020.3 |
| 20260904003001 | 19 | 301 | 6.4 | 12.9 | 0.00 | 0.00 | 0.00 | 63 | 1020.3 |
| 20260904002901 | 19 | 246 | 6.4 | 12.9 | 0.00 | 0.00 | 0.00 | 64 | 1020.3 |
| 20260904002802 | 19 | 225 | 6.4 | 12.9 | 0.00 | 0.00 | 0.00 | 64 | 1020.3 |
| 20260904002706 | 19 | 236 | 6.4 | 12.9 | 0.00 | 0.00 | 0.00 | 64 | 1020.3 |
| 20260904002601 | 19 | 263 | 4.8 | 12.9 | 0.00 | 0.00 | 0.00 | 64 | 1020.3 |
| 20260904002501 | 19 | 238 | 4.8 | 12.9 | 0.00 | 0.00 | 0.00 | 64 | 1020.3 |
| 20260904002401 | 19 | 210 | 4.8 | 12.9 | 0.00 | 0.00 | 0.00 | 64 | 1020.3 |
| 20260904002301 | 19 | 213 | 4.8 | 12.9 | 0.00 | 0.00 | 0.00 | 64 | 1020.3 |
| 20260904002202 | 19 | 236 | 4.8 | 12.9 | 0.00 | 0.00 | 0.00 | 64 | 1020.3 |
| 20260904002101 | 19 | 246 | 4.8 | 12.9 | 0.00 | 0.00 | 0.00 | 64 | 1020.3 |
| 20260904002001 | 19 | 242 | 4.8 | 11.3 | 0.00 | 0.00 | 0.00 | 64 | 1020.3 |
| 20260904001901 | 19 | 242 | 4.8 | 11.3 | 0.00 | 0.00 | 0.00 | 64 | 1020.3 |
| 20260904001801 | 19 | 230 | 4.8 | 11.3 | 0.00 | 0.00 | 0.00 | 65 | 1020.3 |
| 20260904001724 | 18 | 209 | 6.4 | 12.9 | 0.00 | 0.00 | 0.00 | 66 | 1020.5 |
| 20260904001720 | 19 | 230 | 4.8 | 12.9 | 0.00 | 0.00 | 0.00 | 65 | 1020.3 |
| 20260904001712 | 19 | 221 | 4.8 | 12.9 | 0.00 | 0.00 | 0.00 | 65 | 1020.3 |
| 20260904001704 | 19 | 245 | 4.8 | 12.9 | 0.00 | 0.00 | 0.00 | 65 | 1020.4 |
| 20260904001444 | 19 | 220 | 4.8 | 12.9 | 0.00 | 0.00 | 0.00 | 65 | 1020.4 |
| 20260904001441 | 19 | 213 | 6.4 | 12.9 | 0.00 | 0.00 | 0.00 | 66 | 1020.4 |
| 20260904001225 | 19 | 220 | 6.4 | 12.9 | 0.00 | 0.00 | 0.00 | 65 | 1020.4 |
| 20260904001217 | 19 | 211 | 6.4 | 12.9 | 0.00 | 0.00 | 0.00 | 66 | 1020.4 |
| 20260904001213 | 18 | 209 | 6.4 | 12.9 | 0.00 | 0.00 | 0.00 | 66 | 1020.5 |
| 20260904000859 | 18 | 221 | 6.4 | 12.9 | 0.00 | 0.00 | 0.00 | 66 | 1020.5 |
| 20260904000758 | 18 | 226 | 6.4 | 12.9 | 0.00 | 0.00 | 0.00 | 66 | 1020.5 |
| 20260904000728 | 18 | 246 | 6.4 | 12.9 | 0.00 | 0.00 | 0.00 | 66 | 1020.6 |
| 20260904000722 | 18 | 240 | 6.4 | 12.9 | 0.00 | 0.00 | 0.00 | 65 | 1020.5 |
| 20260904000714 | 18 | 238 | 6.4 | 12.9 | 0.00 | 0.00 | 0.00 | 66 | 1020.5 |
| 20260904000458 | 18 | 246 | 6.4 | 12.9 | 0.00 | 0.00 | 0.00 | 66 | 1020.6 |
| 20260904000352 | 18 | 229 | 6.4 | 12.9 | 0.00 | 0.00 | 0.00 | 66 | 1020.6 |
| 20260904000253 | 18 | 231 | 6.4 | 12.9 | 0.00 | 0.00 | 0.00 | 66 | 1020.6 |
| 20260904000153 | 18 | 238 | 6.4 | 12.9 | 0.00 | 0.00 | 0.00 | 67 | 1020.6 |
| 20260904000052 | 18 | 221 | 6.4 | 12.9 | 0.00 | 0.00 | 0.00 | 67 | 1020.7 |
| 20260904000002 | 18 | 216 | 6.4 | 12.9 | 0.00 | 0.00 | 0.00 | 67 | 1020.6 |
| 20260903235952 | 18 | 215 | 6.4 | 12.9 | 0.00 | 0.00 | 0.00 | 67 | 1020.6 |
| 20260903235846 | 18 | 264 | 6.4 | 12.9 | 0.00 | 0.00 | 0.00 | 67 | 1020.6 |
| 20260903235746 | 18 | 234 | 4.8 | 12.9 | 0.00 | 0.00 | 0.00 | 67 | 1020.7 |
| 20260903235730 | 18 | 214 | 4.8 | 8.0 | 0.00 | 0.00 | 0.00 | 68 | 1020.7 |
| 20260903235720 | 18 | 243 | 4.8 | 11.3 | 0.00 | 0.00 | 0.00 | 68 | 1020.6 |
| 20260903235712 | 18 | 246 | 4.8 | 11.3 | 0.00 | 0.00 | 0.00 | 68 | 1020.6 |
| 20260903235448 | 18 | 217 | 4.8 | 8.0 | 0.00 | 0.00 | 0.00 | 68 | 1020.7 |
| 20260903235444 | 18 | 232 | 3.2 | 6.4 | 0.00 | 0.00 | 0.00 | 70 | 1020.7 |
| 20260903235438 | 18 | 227 | 3.2 | 8.0 | 0.00 | 0.00 | 0.00 | 68 | 1020.6 |
| 20260903235434 | 18 | 246 | 3.2 | 8.0 | 0.00 | 0.00 | 0.00 | 68 | 1020.6 |
| 20260903235217 | 18 | 234 | 3.2 | 8.0 | 0.00 | 0.00 | 0.00 | 68 | 1020.7 |
| 20260903235209 | 18 | 238 | 3.2 | 6.4 | 0.00 | 0.00 | 0.00 | 68 | 1020.7 |
| 20260903235205 | 18 | 229 | 3.2 | 6.4 | 0.00 | 0.00 | 0.00 | 68 | 1020.7 |
| 20260903234943 | 18 | 229 | 3.2 | 6.4 | 0.00 | 0.00 | 0.00 | 70 | 1020.7 |
| 20260903234939 | 18 | 225 | 3.2 | 6.4 | 0.00 | 0.00 | 0.00 | 69 | 1020.7 |
| 20260903234935 | 18 | 238 | 3.2 | 6.4 | 0.00 | 0.00 | 0.00 | 69 | 1020.7 |
| 20260903234720 | 18 | 233 | 3.2 | 6.4 | 0.00 | 0.00 | 0.00 | 69 | 1020.6 |
| 20260903234712 | 18 | 233 | 3.2 | 6.4 | 0.00 | 0.00 | 0.00 | 70 | 1020.6 |
| 20260903234441 | 18 | 232 | 3.2 | 6.4 | 0.00 | 0.00 | 0.00 | 70 | 1020.7 |
| 20260903234336 | 18 | 232 | 1.6 | 6.4 | 0.00 | 0.00 | 0.00 | 70 | 1020.7 |
| 20260903234236 | 18 | 290 | 1.6 | 6.4 | 0.00 | 0.00 | 0.00 | 70 | 1020.7 |
| 20260903234230 | 18 | 294 | 1.6 | 4.8 | 0.00 | 0.00 | 0.00 | 71 | 1020.7 |
| 20260903234221 | 18 | 290 | 1.6 | 6.4 | 0.00 | 0.00 | 0.00 | 71 | 1020.7 |
| 20260903234213 | 18 | 290 | 1.6 | 4.8 | 0.00 | 0.00 | 0.00 | 70 | 1020.7 |
| 20260903233949 | 18 | 294 | 0.0 | 3.2 | 0.00 | 0.00 | 0.00 | 71 | 1020.7 |
| 20260903233945 | 18 | 294 | 1.6 | 3.2 | 0.00 | 0.00 | 0.00 | 71 | 1020.7 |
| 20260903233941 | 18 | 294 | 1.6 | 3.2 | 0.00 | 0.00 | 0.00 | 71 | 1020.7 |
| 20260903233937 | 18 | 294 | 1.6 | 3.2 | 0.00 | 0.00 | 0.00 | 72 | 1020.7 |
| 20260903233720 | 18 | 294 | 0.0 | 3.2 | 0.00 | 0.00 | 0.00 | 72 | 1020.7 |
| 20260903233712 | 18 | 294 | 0.0 | 3.2 | 0.00 | 0.00 | 0.00 | 71 | 1020.7 |
| 20260903233430 | 18 | 294 | 0.0 | 3.2 | 0.00 | 0.00 | 0.00 | 71 | 1020.7 |
| 20260903233330 | 18 | 294 | 0.0 | 3.2 | 0.00 | 0.00 | 0.00 | 71 | 1020.7 |
| 20260903233230 | 18 | 294 | 0.0 | 3.2 | 0.00 | 0.00 | 0.00 | 71 | 1020.7 |
| 20260903233133 | 18 | 294 | 0.0 | 0.0 | 0.00 | 0.00 | 0.00 | 71 | 1020.7 |
| 20260903233029 | 18 | 294 | 0.0 | 0.0 | 0.00 | 0.00 | 0.00 | 72 | 1020.7 |
| 20260903233001 | 18 | 294 | 0.0 | 1.6 | 0.00 | 0.00 | 0.00 | 72 | 1020.7 |
| 20260903232930 | 18 | 294 | 0.0 | 1.6 | 0.00 | 0.00 | 0.00 | 72 | 1020.7 |
| 20260903232830 | 18 | 294 | 0.0 | 1.6 | 0.00 | 0.00 | 0.00 | 72 | 1020.7 |
| 20260903232729 | 18 | 294 | 0.0 | 1.6 | 0.00 | 0.00 | 0.00 | 71 | 1020.8 |
| 20260903232632 | 18 | 294 | 0.0 | 1.6 | 0.00 | 0.00 | 0.00 | 71 | 1020.7 |
| 20260903232502 | 18 | 294 | 0.0 | 1.6 | 0.00 | 0.00 | 0.00 | 71 | 1020.8 |
| 20260903232429 | 18 | 294 | 0.0 | 1.6 | 0.00 | 0.00 | 0.00 | 71 | 1020.8 |
| 20260903232328 | 18 | 294 | 0.0 | 3.2 | 0.00 | 0.00 | 0.00 | 72 | 1020.7 |
| 20260903232225 | 18 | 294 | 0.0 | 3.2 | 0.00 | 0.00 | 0.00 | 72 | 1020.7 |
| 20260903232121 | 18 | 294 | 0.0 | 3.2 | 0.00 | 0.00 | 0.00 | 72 | 1020.7 |
| 20260903232001 | 18 | 294 | 0.0 | 3.2 | 0.00 | 0.00 | 0.00 | 72 | 1020.7 |
| 20260903231920 | 18 | 294 | 0.0 | 3.2 | 0.00 | 0.00 | 0.00 | 72 | 1020.8 |
| 20260903231820 | 18 | 294 | 0.0 | 3.2 | 0.00 | 0.00 | 0.00 | 72 | 1020.8 |
| 20260903231720 | 18 | 294 | 0.0 | 3.2 | 0.00 | 0.00 | 0.00 | 72 | 1020.8 |
| 20260903231616 | 18 | 294 | 0.0 | 3.2 | 0.00 | 0.00 | 0.00 | 72 | 1020.8 |
| 20260903231500 | 18 | 294 | 0.0 | 3.2 | 0.00 | 0.00 | 0.00 | 71 | 1020.7 |
| 20260903231416 | 18 | 294 | 0.0 | 3.2 | 0.00 | 0.00 | 0.00 | 71 | 1020.7 |
| 20260903231317 | 18 | 294 | 0.0 | 3.2 | 0.00 | 0.00 | 0.00 | 71 | 1020.7 |
| 20260903231213 | 18 | 294 | 0.0 | 3.2 | 0.00 | 0.00 | 0.00 | 71 | 1020.8 |
| 20260903231112 | 18 | 294 | 0.0 | 3.2 | 0.00 | 0.00 | 0.00 | 72 | 1020.8 |
| 20260903231001 | 18 | 294 | 0.0 | 3.2 | 0.00 | 0.00 | 0.00 | 71 | 1020.8 |
| 20260903230912 | 18 | 294 | 0.0 | 3.2 | 0.00 | 0.00 | 0.00 | 72 | 1020.8 |
| 20260903230810 | 18 | 294 | 0.0 | 3.2 | 0.00 | 0.00 | 0.00 | 72 | 1020.8 |
| 20260903230708 | 18 | 294 | 0.0 | 3.2 | 0.00 | 0.00 | 0.00 | 72 | 1020.8 |
| 20260903230604 | 18 | 294 | 0.0 | 3.2 | 0.00 | 0.00 | 0.00 | 70 | 1020.8 |
| 20260903230503 | 18 | 294 | 1.6 | 3.2 | 0.00 | 0.00 | 0.00 | 71 | 1020.8 |
| 20260903230402 | 18 | 294 | 1.6 | 3.2 | 0.00 | 0.00 | 0.00 | 72 | 1020.9 |
| 20260903230302 | 18 | 294 | 1.6 | 3.2 | 0.00 | 0.00 | 0.00 | 72 | 1020.8 |
| 20260903230201 | 18 | 294 | 1.6 | 3.2 | 0.00 | 0.00 | 0.00 | 72 | 1020.8 |
| 20260903230001 | 18 | 294 | 1.6 | 3.2 | 0.00 | 0.00 | 0.00 | 71 | 1020.8 |
| 20260903225901 | 18 | 294 | 0.0 | 3.2 | 0.00 | 0.00 | 0.00 | 71 | 1020.8 |
| 20260903225801 | 18 | 294 | 0.0 | 3.2 | 0.00 | 0.00 | 0.00 | 71 | 1020.8 |
| 20260903225701 | 18 | 294 | 0.0 | 3.2 | 0.00 | 0.00 | 0.00 | 71 | 1020.8 |
| 20260903225601 | 18 | 294 | 0.0 | 3.2 | 0.00 | 0.00 | 0.00 | 71 | 1020.9 |
| 20260903225501 | 18 | 294 | 0.0 | 3.2 | 0.00 | 0.00 | 0.00 | 71 | 1020.8 |
| 20260903225401 | 18 | 294 | 0.0 | 3.2 | 0.00 | 0.00 | 0.00 | 71 | 1020.8 |
| 20260903225301 | 18 | 294 | 0.0 | 3.2 | 0.00 | 0.00 | 0.00 | 71 | 1020.8 |
| 20260903225201 | 18 | 294 | 0.0 | 3.2 | 0.00 | 0.00 | 0.00 | 71 | 1020.9 |
| 20260903225101 | 18 | 294 | 0.0 | 3.2 | 0.00 | 0.00 | 0.00 | 71 | 1020.8 |
| 20260903225001 | 18 | 294 | 0.0 | 3.2 | 0.00 | 0.00 | 0.00 | 71 | 1020.9 |
| 20260903224900 | 18 | 294 | 0.0 | 3.2 | 0.00 | 0.00 | 0.00 | 71 | 1020.9 |
| 20260903224801 | 18 | 294 | 0.0 | 3.2 | 0.00 | 0.00 | 0.00 | 72 | 1020.9 |
| 20260903224701 | 18 | 294 | 0.0 | 3.2 | 0.00 | 0.00 | 0.00 | 72 | 1020.9 |
| 20260903224600 | 18 | 294 | 0.0 | 3.2 | 0.00 | 0.00 | 0.00 | 72 | 1020.9 |
| 20260903224500 | 18 | 294 | 0.0 | 1.6 | 0.00 | 0.00 | 0.00 | 72 | 1020.9 |
| 20260903224401 | 18 | 294 | 0.0 | 1.6 | 0.00 | 0.00 | 0.00 | 72 | 1020.9 |
| 20260903224301 | 18 | 294 | 0.0 | 1.6 | 0.00 | 0.00 | 0.00 | 72 | 1020.9 |
| 20260903224201 | 18 | 294 | 0.0 | 1.6 | 0.00 | 0.00 | 0.00 | 71 | 1020.9 |
| 20260903224101 | 18 | 294 | 0.0 | 1.6 | 0.00 | 0.00 | 0.00 | 71 | 1020.9 |
| 20260903224001 | 18 | 294 | 0.0 | 1.6 | 0.00 | 0.00 | 0.00 | 71 | 1020.8 |
| 20260903223901 | 18 | 294 | 0.0 | 1.6 | 0.00 | 0.00 | 0.00 | 71 | 1020.9 |
| 20260903223801 | 18 | 294 | 0.0 | 1.6 | 0.00 | 0.00 | 0.00 | 72 | 1020.8 |
| 20260903223701 | 18 | 294 | 0.0 | 1.6 | 0.00 | 0.00 | 0.00 | 72 | 1020.9 |
| 20260903223601 | 18 | 294 | 0.0 | 1.6 | 0.00 | 0.00 | 0.00 | 72 | 1020.8 |
| 20260903223501 | 18 | 294 | 0.0 | 1.6 | 0.00 | 0.00 | 0.00 | 72 | 1020.8 |
| 20260903223400 | 18 | 294 | 0.0 | 1.6 | 0.00 | 0.00 | 0.00 | 71 | 1020.8 |
| 20260903223300 | 18 | 294 | 0.0 | 0.0 | 0.00 | 0.00 | 0.00 | 71 | 1020.8 |
| 20260903223201 | 18 | 294 | 0.0 | 0.0 | 0.00 | 0.00 | 0.00 | 71 | 1020.9 |
| 20260903223101 | 18 | 294 | 0.0 | 0.0 | 0.00 | 0.00 | 0.00 | 71 | 1020.9 |
| 20260903223002 | 18 | 294 | 0.0 | 0.0 | 0.00 | 0.00 | 0.00 | 71 | 1020.9 |
| 20260903222900 | 18 | 294 | 0.0 | 0.0 | 0.00 | 0.00 | 0.00 | 71 | 1020.9 |
| 20260903222757 | 18 | 294 | 0.0 | 0.0 | 0.00 | 0.00 | 0.00 | 71 | 1020.9 |
| 20260903222654 | 18 | 294 | 0.0 | 0.0 | 0.00 | 0.00 | 0.00 | 71 | 1020.9 |
| 20260903222553 | 18 | 294 | 0.0 | 0.0 | 0.00 | 0.00 | 0.00 | 71 | 1020.9 |
| 20260903222500 | 18 | 294 | 0.0 | 0.0 | 0.00 | 0.00 | 0.00 | 71 | 1020.8 |
| 20260903222455 | 18 | 294 | 0.0 | 0.0 | 0.00 | 0.00 | 0.00 | 71 | 1020.8 |
| 20260903222450 | 18 | 294 | 0.0 | 0.0 | 0.00 | 0.00 | 0.00 | 71 | 1020.8 |
| 20260903222442 | 18 | 294 | 0.0 | 0.0 | 0.00 | 0.00 | 0.00 | 71 | 1020.9 |
| 20260903222438 | 18 | 294 | 0.0 | 0.0 | 0.00 | 0.00 | 0.00 | 72 | 1020.8 |
| 20260903222220 | 18 | 294 | 0.0 | 0.0 | 0.00 | 0.00 | 0.00 | 71 | 1020.8 |
| 20260903222212 | 18 | 294 | 0.0 | 0.0 | 0.00 | 0.00 | 0.00 | 71 | 1020.8 |
| 20260903221951 | 18 | 294 | 0.0 | 0.0 | 0.00 | 0.00 | 0.00 | 71 | 1020.8 |
| 20260903221848 | 18 | 294 | 0.0 | 0.0 | 0.00 | 0.00 | 0.00 | 71 | 1020.9 |
| 20260903221746 | 18 | 294 | 0.0 | 0.0 | 0.00 | 0.00 | 0.00 | 71 | 1020.9 |
| 20260903221647 | 18 | 294 | 0.0 | 0.0 | 0.00 | 0.00 | 0.00 | 71 | 1020.8 |
| 20260903221545 | 18 | 294 | 0.0 | 0.0 | 0.00 | 0.00 | 0.00 | 71 | 1020.9 |
| 20260903221501 | 18 | 294 | 0.0 | 0.0 | 0.00 | 0.00 | 0.00 | 71 | 1020.9 |
| 20260903221445 | 18 | 294 | 0.0 | 0.0 | 0.00 | 0.00 | 0.00 | 71 | 1020.9 |
| 20260903221343 | 18 | 294 | 0.0 | 1.6 | 0.00 | 0.00 | 0.00 | 71 | 1020.9 |
| 20260903221241 | 18 | 294 | 0.0 | 1.6 | 0.00 | 0.00 | 0.00 | 71 | 1020.9 |
| 20260903221135 | 18 | 294 | 0.0 | 1.6 | 0.00 | 0.00 | 0.00 | 71 | 1021.0 |
| 20260903221035 | 18 | 294 | 0.0 | 1.6 | 0.00 | 0.00 | 0.00 | 71 | 1021.0 |
| 20260903221000 | 18 | 294 | 0.0 | 1.6 | 0.00 | 0.00 | 0.00 | 71 | 1021.0 |
| 20260903220935 | 18 | 294 | 0.0 | 1.6 | 0.00 | 0.00 | 0.00 | 71 | 1021.0 |
| 20260903220835 | 18 | 294 | 0.0 | 1.6 | 0.00 | 0.00 | 0.00 | 71 | 1021.0 |
| 20260903220734 | 18 | 294 | 0.0 | 3.2 | 0.00 | 0.00 | 0.00 | 71 | 1021.1 |
| 20260903220635 | 18 | 294 | 1.6 | 4.8 | 0.00 | 0.00 | 0.00 | 71 | 1021.1 |
| 20260903220533 | 18 | 294 | 1.6 | 6.4 | 0.00 | 0.00 | 0.00 | 71 | 1021.1 |
| 20260903220500 | 18 | 294 | 1.6 | 6.4 | 0.00 | 0.00 | 0.00 | 71 | 1021.1 |
| 20260903220434 | 18 | 294 | 1.6 | 6.4 | 0.00 | 0.00 | 0.00 | 70 | 1021.1 |
| 20260903220329 | 18 | 294 | 1.6 | 6.4 | 0.00 | 0.00 | 0.00 | 70 | 1021.1 |
| 20260903220229 | 18 | 294 | 1.6 | 6.4 | 0.00 | 0.00 | 0.00 | 70 | 1021.0 |
| 20260903220220 | 18 | 294 | 1.6 | 6.4 | 0.00 | 0.00 | 0.00 | 70 | 1021.0 |
| 20260903220212 | 18 | 294 | 1.6 | 6.4 | 0.00 | 0.00 | 0.00 | 70 | 1021.1 |
| 20260903215929 | 18 | 294 | 1.6 | 6.4 | 0.00 | 0.00 | 0.00 | 70 | 1021.1 |
| 20260903215829 | 18 | 294 | 1.6 | 6.4 | 0.00 | 0.00 | 0.00 | 70 | 1021.1 |
| 20260903215729 | 18 | 294 | 1.6 | 6.4 | 0.00 | 0.00 | 0.00 | 70 | 1021.1 |
| 20260903215630 | 18 | 294 | 1.6 | 6.4 | 0.00 | 0.00 | 0.00 | 70 | 1021.1 |
| 20260903215529 | 18 | 273 | 1.6 | 4.8 | 0.00 | 0.00 | 0.00 | 70 | 1021.1 |
| 20260903215501 | 18 | 267 | 0.0 | 4.8 | 0.00 | 0.00 | 0.00 | 70 | 1021.1 |
| 20260903215428 | 18 | 266 | 0.0 | 4.8 | 0.00 | 0.00 | 0.00 | 70 | 1021.1 |
| 20260903215328 | 18 | 296 | 0.0 | 4.8 | 0.00 | 0.00 | 0.00 | 70 | 1021.1 |
| 20260903215229 | 18 | 296 | 0.0 | 4.8 | 0.00 | 0.00 | 0.00 | 70 | 1021.1 |
| 20260903215129 | 18 | 296 | 0.0 | 0.0 | 0.00 | 0.00 | 0.00 | 71 | 1021.1 |
| 20260903215001 | 18 | 296 | 0.0 | 0.0 | 0.00 | 0.00 | 0.00 | 71 | 1021.0 |
| 20260903214929 | 18 | 296 | 0.0 | 0.0 | 0.00 | 0.00 | 0.00 | 71 | 1021.0 |
| 20260903214829 | 18 | 296 | 0.0 | 0.0 | 0.00 | 0.00 | 0.00 | 71 | 1021.1 |
| 20260903214730 | 18 | 296 | 0.0 | 0.0 | 0.00 | 0.00 | 0.00 | 70 | 1021.0 |
| 20260903214719 | 18 | 296 | 0.0 | 0.0 | 0.00 | 0.00 | 0.00 | 70 | 1021.0 |
| 20260903214715 | 18 | 296 | 0.0 | 0.0 | 0.00 | 0.00 | 0.00 | 70 | 1020.9 |
| 20260903214429 | 18 | 296 | 0.0 | 0.0 | 0.00 | 0.00 | 0.00 | 70 | 1020.9 |
| 20260903214329 | 18 | 296 | 0.0 | 0.0 | 0.00 | 0.00 | 0.00 | 70 | 1021.0 |
| 20260903214229 | 18 | 296 | 0.0 | 0.0 | 0.00 | 0.00 | 0.00 | 70 | 1020.9 |
| 20260903214129 | 18 | 296 | 0.0 | 1.6 | 0.00 | 0.00 | 0.00 | 70 | 1020.9 |
| 20260903214000 | 18 | 296 | 0.0 | 1.6 | 0.00 | 0.00 | 0.00 | 70 | 1020.9 |
| 20260903213929 | 18 | 296 | 0.0 | 1.6 | 0.00 | 0.00 | 0.00 | 70 | 1020.9 |
| 20260903213829 | 18 | 296 | 0.0 | 3.2 | 0.00 | 0.00 | 0.00 | 70 | 1020.9 |
| 20260903213729 | 18 | 296 | 0.0 | 3.2 | 0.00 | 0.00 | 0.00 | 70 | 1020.9 |
| 20260903213629 | 18 | 296 | 0.0 | 3.2 | 0.00 | 0.00 | 0.00 | 70 | 1020.9 |
| 20260903213528 | 18 | 296 | 0.0 | 3.2 | 0.00 | 0.00 | 0.00 | 70 | 1020.8 |
| 20260903213500 | 18 | 296 | 0.0 | 3.2 | 0.00 | 0.00 | 0.00 | 70 | 1020.9 |
| 20260903213428 | 18 | 296 | 0.0 | 3.2 | 0.00 | 0.00 | 0.00 | 70 | 1020.9 |
| 20260903213329 | 18 | 296 | 0.0 | 3.2 | 0.00 | 0.00 | 0.00 | 70 | 1020.9 |
| 20260903213229 | 18 | 296 | 0.0 | 3.2 | 0.00 | 0.00 | 0.00 | 70 | 1020.9 |
| 20260903213129 | 18 | 296 | 0.0 | 3.2 | 0.00 | 0.00 | 0.00 | 71 | 1020.9 |
| 20260903213002 | 18 | 296 | 1.6 | 3.2 | 0.00 | 0.00 | 0.00 | 71 | 1020.9 |
| 20260903212929 | 18 | 296 | 1.6 | 3.2 | 0.00 | 0.00 | 0.00 | 70 | 1020.9 |
| 20260903212828 | 18 | 296 | 0.0 | 3.2 | 0.00 | 0.00 | 0.00 | 70 | 1020.9 |
| 20260903212729 | 18 | 296 | 0.0 | 3.2 | 0.00 | 0.00 | 0.00 | 70 | 1020.9 |
| 20260903212629 | 18 | 296 | 0.0 | 3.2 | 0.00 | 0.00 | 0.00 | 71 | 1020.9 |
| 20260903212501 | 18 | 296 | 0.0 | 3.2 | 0.00 | 0.00 | 0.00 | 71 | 1020.9 |
| 20260903212429 | 18 | 296 | 0.0 | 3.2 | 0.00 | 0.00 | 0.00 | 71 | 1020.9 |
| 20260903212329 | 18 | 296 | 0.0 | 3.2 | 0.00 | 0.00 | 0.00 | 71 | 1020.9 |
| 20260903212229 | 18 | 296 | 0.0 | 3.2 | 0.00 | 0.00 | 0.00 | 71 | 1020.9 |
| 20260903212129 | 18 | 296 | 0.0 | 3.2 | 0.00 | 0.00 | 0.00 | 72 | 1020.9 |
| 20260903212029 | 18 | 296 | 0.0 | 1.6 | 0.00 | 0.00 | 0.00 | 72 | 1020.9 |
| 20260903211929 | 18 | 296 | 0.0 | 1.6 | 0.00 | 0.00 | 0.00 | 71 | 1020.8 |
| 20260903211829 | 18 | 296 | 0.0 | 3.2 | 0.00 | 0.00 | 0.00 | 71 | 1020.8 |
| 20260903211729 | 18 | 296 | 0.0 | 3.2 | 0.00 | 0.00 | 0.00 | 72 | 1020.8 |
| 20260903211629 | 18 | 296 | 1.6 | 6.4 | 0.00 | 0.00 | 0.00 | 72 | 1020.8 |
| 20260903211528 | 18 | 296 | 1.6 | 6.4 | 0.00 | 0.00 | 0.00 | 71 | 1020.8 |
| 20260903211428 | 18 | 296 | 1.6 | 6.4 | 0.00 | 0.00 | 0.00 | 71 | 1020.9 |
| 20260903211328 | 18 | 296 | 1.6 | 6.4 | 0.00 | 0.00 | 0.00 | 71 | 1020.8 |
| 20260903211228 | 18 | 296 | 1.6 | 6.4 | 0.00 | 0.00 | 0.00 | 71 | 1020.8 |
| 20260903211128 | 18 | 296 | 3.2 | 6.4 | 0.00 | 0.00 | 0.00 | 71 | 1020.8 |
| 20260903211029 | 18 | 296 | 3.2 | 6.4 | 0.00 | 0.00 | 0.00 | 71 | 1020.8 |
| 20260903210928 | 18 | 296 | 3.2 | 6.4 | 0.00 | 0.00 | 0.00 | 71 | 1020.8 |
| 20260903210828 | 18 | 296 | 3.2 | 6.4 | 0.00 | 0.00 | 0.00 | 71 | 1020.7 |
| 20260903210729 | 18 | 296 | 3.2 | 6.4 | 0.00 | 0.00 | 0.00 | 71 | 1020.8 |
| 20260903210629 | 18 | 296 | 3.2 | 6.4 | 0.00 | 0.00 | 0.00 | 71 | 1020.7 |
| 20260903210529 | 18 | 238 | 3.2 | 4.8 | 0.00 | 0.00 | 0.00 | 71 | 1020.7 |
| 20260903210429 | 18 | 223 | 3.2 | 4.8 | 0.00 | 0.00 | 0.00 | 71 | 1020.6 |
| 20260903210329 | 18 | 223 | 3.2 | 4.8 | 0.00 | 0.00 | 0.00 | 71 | 1020.7 |
| 20260903210229 | 18 | 223 | 1.6 | 4.8 | 0.00 | 0.00 | 0.00 | 71 | 1020.7 |
| 20260903210128 | 17 | 223 | 1.6 | 4.8 | 0.00 | 0.00 | 0.00 | 71 | 1020.6 |
| 20260903210029 | 17 | 223 | 1.6 | 4.8 | 0.00 | 0.00 | 0.00 | 71 | 1020.7 |
| 20260903205929 | 17 | 223 | 1.6 | 3.2 | 0.00 | 0.00 | 0.00 | 71 | 1020.6 |
| 20260903205829 | 17 | 223 | 1.6 | 4.8 | 0.00 | 0.00 | 0.00 | 71 | 1020.6 |
| 20260903205729 | 17 | 223 | 1.6 | 4.8 | 0.00 | 0.00 | 0.00 | 71 | 1020.6 |
| 20260903205629 | 18 | 223 | 1.6 | 4.8 | 0.00 | 0.00 | 0.00 | 71 | 1020.6 |
| 20260903205529 | 18 | 223 | 1.6 | 4.8 | 0.00 | 0.00 | 0.00 | 71 | 1020.6 |
| 20260903205428 | 18 | 223 | 1.6 | 4.8 | 0.00 | 0.00 | 0.00 | 71 | 1020.6 |
| 20260903205329 | 17 | 223 | 1.6 | 4.8 | 0.00 | 0.00 | 0.00 | 71 | 1020.6 |
| 20260903205229 | 17 | 223 | 1.6 | 4.8 | 0.00 | 0.00 | 0.00 | 70 | 1020.6 |
| 20260903205129 | 17 | 223 | 1.6 | 4.8 | 0.00 | 0.00 | 0.00 | 70 | 1020.6 |
| 20260903205029 | 17 | 223 | 1.6 | 4.8 | 0.00 | 0.00 | 0.00 | 70 | 1020.6 |
| 20260903204929 | 17 | 223 | 1.6 | 4.8 | 0.00 | 0.00 | 0.00 | 70 | 1020.7 |
| 20260903204829 | 17 | 223 | 1.6 | 4.8 | 0.00 | 0.00 | 0.00 | 70 | 1020.6 |
| 20260903204729 | 17 | 223 | 1.6 | 4.8 | 0.00 | 0.00 | 0.00 | 69 | 1020.6 |
| 20260903204629 | 17 | 222 | 1.6 | 4.8 | 0.00 | 0.00 | 0.00 | 69 | 1020.7 |
| 20260903204529 | 17 | 223 | 0.0 | 3.2 | 0.00 | 0.00 | 0.00 | 69 | 1020.7 |
| 20260903204428 | 17 | 223 | 0.0 | 3.2 | 0.00 | 0.00 | 0.00 | 69 | 1020.7 |
| 20260903204329 | 17 | 223 | 0.0 | 3.2 | 0.00 | 0.00 | 0.00 | 70 | 1020.7 |
| 20260903204229 | 17 | 222 | 0.0 | 1.6 | 0.00 | 0.00 | 0.00 | 70 | 1020.8 |
| 20260903204129 | 18 | 223 | 0.0 | 1.6 | 0.00 | 0.00 | 0.00 | 71 | 1020.9 |
| 20260903204029 | 18 | 223 | 0.0 | 1.6 | 0.00 | 0.00 | 0.00 | 70 | 1020.9 |
| 20260903203929 | 18 | 223 | 0.0 | 1.6 | 0.00 | 0.00 | 0.00 | 69 | 1020.9 |
| 20260903203829 | 18 | 223 | 0.0 | 1.6 | 0.00 | 0.00 | 0.00 | 68 | 1021.0 |
| 20260903203729 | 18 | 223 | 0.0 | 1.6 | 0.00 | 0.00 | 0.00 | 69 | 1020.9 |
| 20260903203622 | 18 | 223 | 0.0 | 1.6 | 0.00 | 0.00 | 0.00 | 69 | 1021.0 |
| 20260903203523 | 18 | 223 | 0.0 | 1.6 | 0.00 | 0.00 | 0.00 | 70 | 1020.9 |
| 20260903203422 | 18 | 223 | 0.0 | 1.6 | 0.00 | 0.00 | 0.00 | 70 | 1020.9 |
| 20260903203323 | 18 | 223 | 0.0 | 1.6 | 0.00 | 0.00 | 0.00 | 70 | 1020.9 |
| 20260903203223 | 18 | 223 | 0.0 | 1.6 | 0.00 | 0.00 | 0.00 | 70 | 1020.9 |
| 20260903203123 | 18 | 223 | 0.0 | 1.6 | 0.00 | 0.00 | 0.00 | 70 | 1020.9 |
| 20260903203021 | 18 | 223 | 0.0 | 1.6 | 0.00 | 0.00 | 0.00 | 70 | 1021.0 |
| 20260903202921 | 18 | 223 | 0.0 | 1.6 | 0.00 | 0.00 | 0.00 | 70 | 1021.0 |
| 20260903202821 | 18 | 223 | 0.0 | 1.6 | 0.00 | 0.00 | 0.00 | 70 | 1020.9 |
| 20260903202800 | 18 | 223 | 1.6 | 3.2 | 0.00 | 0.00 | 0.00 | 68 | 1021.0 |
| 20260903202757 | 18 | 223 | 0.0 | 1.6 | 0.00 | 0.00 | 0.00 | 69 | 1021.0 |
| 20260903202752 | 18 | 223 | 0.0 | 3.2 | 0.00 | 0.00 | 0.00 | 68 | 1021.0 |
| 20260903202748 | 18 | 223 | 1.6 | 3.2 | 0.00 | 0.00 | 0.00 | 68 | 1021.0 |
| 20260903202418 | 18 | 223 | 1.6 | 3.2 | 0.00 | 0.00 | 0.00 | 68 | 1021.0 |
| 20260903202317 | 18 | 223 | 1.6 | 3.2 | 0.00 | 0.00 | 0.00 | 69 | 1021.0 |
| 20260903202216 | 18 | 223 | 1.6 | 3.2 | 0.00 | 0.00 | 0.00 | 69 | 1021.0 |
| 20260903202117 | 18 | 223 | 1.6 | 3.2 | 0.00 | 0.00 | 0.00 | 68 | 1021.1 |
| 20260903202017 | 18 | 223 | 1.6 | 3.2 | 0.00 | 0.00 | 0.00 | 68 | 1021.1 |
| 20260903201917 | 18 | 223 | 1.6 | 3.2 | 0.00 | 0.00 | 0.00 | 68 | 1021.1 |
| 20260903201815 | 18 | 223 | 1.6 | 3.2 | 0.00 | 0.00 | 0.00 | 67 | 1021.1 |
| 20260903201713 | 18 | 223 | 1.6 | 3.2 | 0.00 | 0.00 | 0.00 | 67 | 1021.2 |
| 20260903201653 | 18 | 223 | 1.6 | 3.2 | 0.00 | 0.00 | 0.00 | 67 | 1021.1 |
| 20260903201648 | 18 | 223 | 1.6 | 3.2 | 0.00 | 0.00 | 0.00 | 67 | 1021.2 |
| 20260903201644 | 18 | 223 | 1.6 | 3.2 | 0.00 | 0.00 | 0.00 | 67 | 1021.1 |
| 20260903201411 | 18 | 223 | 1.6 | 3.2 | 0.00 | 0.00 | 0.00 | 67 | 1021.1 |
| 20260903201309 | 18 | 223 | 1.6 | 3.2 | 0.00 | 0.00 | 0.00 | 67 | 1021.1 |
| 20260903201209 | 18 | 223 | 1.6 | 3.2 | 0.00 | 0.00 | 0.00 | 67 | 1021.1 |
| 20260903201107 | 18 | 223 | 1.6 | 3.2 | 0.00 | 0.00 | 0.00 | 68 | 1021.1 |
| 20260903201005 | 18 | 223 | 1.6 | 3.2 | 0.00 | 0.00 | 0.00 | 68 | 1021.0 |
| 20260903200903 | 18 | 223 | 1.6 | 3.2 | 0.00 | 0.00 | 0.00 | 68 | 1021.0 |
| 20260903200803 | 18 | 223 | 1.6 | 3.2 | 0.00 | 0.00 | 0.00 | 68 | 1021.0 |
| 20260903200702 | 18 | 223 | 0.0 | 3.2 | 0.00 | 0.00 | 0.00 | 68 | 1021.0 |
| 20260903200602 | 18 | 223 | 0.0 | 3.2 | 0.00 | 0.00 | 0.00 | 69 | 1021.0 |
| 20260903200501 | 18 | 223 | 0.0 | 3.2 | 0.00 | 0.00 | 0.00 | 68 | 1020.9 |
| 20260903200402 | 18 | 223 | 0.0 | 3.2 | 0.00 | 0.00 | 0.00 | 68 | 1020.9 |
| 20260903200301 | 18 | 223 | 0.0 | 3.2 | 0.00 | 0.00 | 0.00 | 68 | 1020.8 |
| 20260903200201 | 18 | 223 | 0.0 | 1.6 | 0.00 | 0.00 | 0.00 | 68 | 1020.8 |
| 20260903200001 | 18 | 223 | 0.0 | 1.6 | 0.00 | 0.00 | 0.00 | 68 | 1020.8 |
| 20260903195928 | 18 | 223 | 0.0 | 1.6 | 0.00 | 0.00 | 0.00 | 68 | 1020.8 |
| 20260903195901 | 18 | 223 | 0.0 | 1.6 | 0.00 | 0.00 | 0.00 | 69 | 1020.8 |
| 20260903195801 | 18 | 223 | 0.0 | 1.6 | 0.00 | 0.00 | 0.00 | 69 | 1020.8 |
| 20260903195701 | 18 | 223 | 0.0 | 1.6 | 0.00 | 0.00 | 0.00 | 69 | 1020.8 |
| 20260903195600 | 18 | 223 | 0.0 | 1.6 | 0.00 | 0.00 | 0.00 | 67 | 1020.7 |
| 20260903195500 | 18 | 223 | 0.0 | 1.6 | 0.00 | 0.00 | 0.00 | 67 | 1020.7 |
| 20260903195417 | 18 | 223 | 0.0 | 3.2 | 0.00 | 0.00 | 0.00 | 67 | 1020.6 |
| 20260903195413 | 18 | 223 | 0.0 | 1.6 | 0.00 | 0.00 | 0.00 | 67 | 1020.7 |
| 20260903195409 | 18 | 223 | 0.0 | 1.6 | 0.00 | 0.00 | 0.00 | 67 | 1020.7 |
| 20260903195405 | 18 | 223 | 0.0 | 1.6 | 0.00 | 0.00 | 0.00 | 68 | 1020.7 |
| 20260903195401 | 18 | 223 | 0.0 | 1.6 | 0.00 | 0.00 | 0.00 | 68 | 1020.7 |
| 20260903195356 | 18 | 223 | 0.0 | 1.6 | 0.00 | 0.00 | 0.00 | 68 | 1020.7 |
| 20260903195352 | 18 | 223 | 0.0 | 1.6 | 0.00 | 0.00 | 0.00 | 67 | 1020.7 |
| 20260903195346 | 18 | 223 | 0.0 | 1.6 | 0.00 | 0.00 | 0.00 | 67 | 1020.7 |
| 20260903194911 | 18 | 223 | 0.0 | 1.6 | 0.00 | 0.00 | 0.00 | 67 | 1020.7 |
| 20260903194907 | 18 | 223 | 0.0 | 1.6 | 0.00 | 0.00 | 0.00 | 68 | 1020.7 |
| 20260903194903 | 18 | 223 | 0.0 | 1.6 | 0.00 | 0.00 | 0.00 | 67 | 1020.7 |
| 20260903194647 | 18 | 223 | 0.0 | 1.6 | 0.00 | 0.00 | 0.00 | 67 | 1020.6 |
| 20260903194644 | 18 | 223 | 0.0 | 1.6 | 0.00 | 0.00 | 0.00 | 67 | 1020.6 |
| 20260903194401 | 18 | 223 | 0.0 | 3.2 | 0.00 | 0.00 | 0.00 | 67 | 1020.6 |
| 20260903194300 | 18 | 223 | 1.6 | 3.2 | 0.00 | 0.00 | 0.00 | 67 | 1020.6 |
| 20260903194200 | 18 | 223 | 1.6 | 3.2 | 0.00 | 0.00 | 0.00 | 67 | 1020.6 |
| 20260903194100 | 18 | 223 | 1.6 | 3.2 | 0.00 | 0.00 | 0.00 | 66 | 1020.6 |
| 20260903194000 | 18 | 223 | 1.6 | 3.2 | 0.00 | 0.00 | 0.00 | 66 | 1020.6 |
| 20260903193901 | 18 | 223 | 1.6 | 3.2 | 0.00 | 0.00 | 0.00 | 66 | 1020.6 |
| 20260903193801 | 19 | 223 | 1.6 | 3.2 | 0.00 | 0.00 | 0.00 | 66 | 1020.7 |
| 20260903193701 | 19 | 223 | 1.6 | 3.2 | 0.00 | 0.00 | 0.00 | 66 | 1020.7 |
| 20260903193601 | 19 | 223 | 1.6 | 3.2 | 0.00 | 0.00 | 0.00 | 66 | 1020.7 |
| 20260903193500 | 19 | 223 | 1.6 | 3.2 | 0.00 | 0.00 | 0.00 | 66 | 1020.7 |
| 20260903193429 | 19 | 223 | 1.6 | 4.8 | 0.00 | 0.00 | 0.00 | 66 | 1020.7 |
| 20260903193402 | 19 | 223 | 1.6 | 4.8 | 0.00 | 0.00 | 0.00 | 66 | 1020.6 |
| 20260903193300 | 19 | 223 | 1.6 | 4.8 | 0.00 | 0.00 | 0.00 | 66 | 1020.6 |
| 20260903193200 | 19 | 223 | 1.6 | 4.8 | 0.00 | 0.00 | 0.00 | 66 | 1020.6 |
| 20260903193100 | 19 | 223 | 1.6 | 4.8 | 0.00 | 0.00 | 0.00 | 65 | 1020.6 |
| 20260903193001 | 19 | 223 | 1.6 | 4.8 | 0.00 | 0.00 | 0.00 | 66 | 1020.6 |
| 20260903192932 | 19 | 223 | 3.2 | 4.8 | 0.00 | 0.00 | 0.00 | 66 | 1020.6 |
| 20260903192901 | 19 | 223 | 3.2 | 4.8 | 0.00 | 0.00 | 0.00 | 65 | 1020.6 |
| 20260903192801 | 19 | 223 | 3.2 | 4.8 | 0.00 | 0.00 | 0.00 | 65 | 1020.5 |
| 20260903192701 | 19 | 223 | 3.2 | 4.8 | 0.00 | 0.00 | 0.00 | 65 | 1020.5 |
| 20260903192601 | 19 | 223 | 3.2 | 4.8 | 0.00 | 0.00 | 0.00 | 65 | 1020.5 |
| 20260903192501 | 19 | 223 | 3.2 | 4.8 | 0.00 | 0.00 | 0.00 | 65 | 1020.5 |
| 20260903192400 | 19 | 223 | 3.2 | 4.8 | 0.00 | 0.00 | 0.00 | 65 | 1020.5 |
| 20260903192300 | 19 | 223 | 3.2 | 4.8 | 0.00 | 0.00 | 0.00 | 65 | 1020.5 |
| 20260903192201 | 19 | 223 | 3.2 | 4.8 | 0.00 | 0.00 | 0.00 | 65 | 1020.5 |
| 20260903192101 | 19 | 222 | 3.2 | 4.8 | 0.00 | 0.00 | 0.00 | 65 | 1020.5 |
| 20260903192001 | 19 | 222 | 3.2 | 4.8 | 0.00 | 0.00 | 0.00 | 64 | 1020.4 |
| 20260903191900 | 19 | 222 | 3.2 | 4.8 | 0.00 | 0.00 | 0.00 | 64 | 1020.4 |
| 20260903191800 | 19 | 222 | 1.6 | 4.8 | 0.00 | 0.00 | 0.00 | 64 | 1020.4 |
| 20260903191701 | 19 | 222 | 3.2 | 4.8 | 0.00 | 0.00 | 0.00 | 64 | 1020.4 |
| 20260903191601 | 19 | 222 | 3.2 | 4.8 | 0.00 | 0.00 | 0.00 | 64 | 1020.4 |
| 20260903191501 | 19 | 222 | 1.6 | 4.8 | 0.00 | 0.00 | 0.00 | 64 | 1020.4 |
| 20260903191425 | 19 | 222 | 1.6 | 4.8 | 0.00 | 0.00 | 0.00 | 64 | 1020.4 |
| 20260903191401 | 20 | 222 | 1.6 | 4.8 | 0.00 | 0.00 | 0.00 | 64 | 1020.4 |
| 20260903191301 | 20 | 222 | 1.6 | 4.8 | 0.00 | 0.00 | 0.00 | 64 | 1020.3 |
| 20260903191201 | 20 | 222 | 1.6 | 4.8 | 0.00 | 0.00 | 0.00 | 64 | 1020.3 |
| 20260903191101 | 20 | 222 | 1.6 | 4.8 | 0.00 | 0.00 | 0.00 | 64 | 1020.4 |
| 20260903191001 | 20 | 222 | 1.6 | 4.8 | 0.00 | 0.00 | 0.00 | 64 | 1020.3 |
| 20260903190925 | 20 | 222 | 1.6 | 4.8 | 0.00 | 0.00 | 0.00 | 64 | 1020.3 |
| 20260903190919 | 20 | 222 | 1.6 | 4.8 | 0.00 | 0.00 | 0.00 | 63 | 1020.3 |
| 20260903190911 | 20 | 222 | 1.6 | 4.8 | 0.00 | 0.00 | 0.00 | 64 | 1020.4 |
| 20260903190904 | 20 | 222 | 1.6 | 4.8 | 0.00 | 0.00 | 0.00 | 64 | 1020.4 |
| 20260903190859 | 20 | 222 | 1.6 | 4.8 | 0.00 | 0.00 | 0.00 | 64 | 1020.3 |
| 20260903190639 | 20 | 222 | 1.6 | 4.8 | 0.00 | 0.00 | 0.00 | 64 | 1020.3 |
| 20260903190635 | 20 | 222 | 1.6 | 4.8 | 0.00 | 0.00 | 0.00 | 64 | 1020.3 |
| 20260903190400 | 20 | 222 | 1.6 | 4.8 | 0.00 | 0.00 | 0.00 | 63 | 1020.3 |
| 20260903190303 | 20 | 222 | 1.6 | 4.8 | 0.00 | 0.00 | 0.00 | 63 | 1020.3 |
| 20260903190201 | 20 | 222 | 3.2 | 4.8 | 0.00 | 0.00 | 0.00 | 63 | 1020.3 |
| 20260903190147 | 20 | 221 | 3.2 | 6.4 | 0.00 | 0.00 | 0.00 | 63 | 1020.3 |
| 20260903190140 | 20 | 221 | 3.2 | 4.8 | 0.00 | 0.00 | 0.00 | 63 | 1020.3 |
| 20260903190136 | 20 | 221 | 3.2 | 6.4 | 0.00 | 0.00 | 0.00 | 63 | 1020.3 |
| 20260903185901 | 20 | 221 | 3.2 | 6.4 | 0.00 | 0.00 | 0.00 | 63 | 1020.3 |
| 20260903185801 | 20 | 221 | 3.2 | 6.4 | 0.00 | 0.00 | 0.00 | 63 | 1020.3 |
| 20260903185701 | 20 | 221 | 3.2 | 6.4 | 0.00 | 0.00 | 0.00 | 63 | 1020.3 |
| 20260903185600 | 20 | 221 | 3.2 | 6.4 | 0.00 | 0.00 | 0.00 | 63 | 1020.3 |
| 20260903185501 | 20 | 221 | 3.2 | 8.0 | 0.00 | 0.00 | 0.00 | 63 | 1020.3 |
| 20260903185422 | 20 | 221 | 3.2 | 8.0 | 0.00 | 0.00 | 0.00 | 63 | 1020.2 |
| 20260903185401 | 20 | 221 | 3.2 | 8.0 | 0.00 | 0.00 | 0.00 | 62 | 1020.2 |
| 20260903185301 | 20 | 221 | 3.2 | 8.0 | 0.00 | 0.00 | 0.00 | 63 | 1020.3 |
| 20260903185201 | 20 | 221 | 3.2 | 8.0 | 0.00 | 0.00 | 0.00 | 63 | 1020.3 |
| 20260903185100 | 20 | 221 | 3.2 | 8.0 | 0.00 | 0.00 | 0.00 | 63 | 1020.3 |
| 20260903185001 | 20 | 225 | 4.8 | 8.0 | 0.00 | 0.00 | 0.00 | 63 | 1020.2 |
| 20260903184922 | 20 | 227 | 4.8 | 8.0 | 0.00 | 0.00 | 0.00 | 62 | 1020.2 |
| 20260903184901 | 20 | 227 | 4.8 | 8.0 | 0.00 | 0.00 | 0.00 | 63 | 1020.2 |
| 20260903184801 | 20 | 229 | 4.8 | 8.0 | 0.00 | 0.00 | 0.00 | 62 | 1020.2 |
| 20260903184700 | 20 | 253 | 4.8 | 8.0 | 0.00 | 0.00 | 0.00 | 62 | 1020.2 |
| 20260903184600 | 20 | 221 | 4.8 | 8.0 | 0.00 | 0.00 | 0.00 | 62 | 1020.2 |
| 20260903184501 | 20 | 220 | 4.8 | 8.0 | 0.00 | 0.00 | 0.00 | 63 | 1020.2 |
| 20260903184422 | 20 | 220 | 4.8 | 8.0 | 0.00 | 0.00 | 0.00 | 62 | 1020.1 |
| 20260903184401 | 20 | 220 | 3.2 | 8.0 | 0.00 | 0.00 | 0.00 | 62 | 1020.1 |
| 20260903184300 | 20 | 214 | 3.2 | 8.0 | 0.00 | 0.00 | 0.00 | 62 | 1020.2 |
| 20260903184201 | 20 | 214 | 3.2 | 8.0 | 0.00 | 0.00 | 0.00 | 62 | 1020.1 |
| 20260903184101 | 20 | 213 | 3.2 | 8.0 | 0.00 | 0.00 | 0.00 | 62 | 1020.2 |
| 20260903184001 | 20 | 229 | 3.2 | 8.0 | 0.00 | 0.00 | 0.00 | 61 | 1020.2 |
| 20260903183901 | 20 | 236 | 3.2 | 8.0 | 0.00 | 0.00 | 0.00 | 61 | 1020.1 |
| 20260903183801 | 20 | 209 | 3.2 | 6.4 | 0.00 | 0.00 | 0.00 | 61 | 1020.1 |
| 20260903183700 | 20 | 250 | 3.2 | 6.4 | 0.00 | 0.00 | 0.00 | 61 | 1020.2 |
| 20260903183601 | 20 | 249 | 3.2 | 4.8 | 0.00 | 0.00 | 0.00 | 61 | 1020.2 |
| 20260903183500 | 20 | 259 | 3.2 | 4.8 | 0.00 | 0.00 | 0.00 | 61 | 1020.1 |
| 20260903183420 | 20 | 259 | 3.2 | 6.4 | 0.00 | 0.00 | 0.00 | 61 | 1020.2 |
| 20260903183400 | 20 | 260 | 3.2 | 9.7 | 0.00 | 0.00 | 0.00 | 61 | 1020.2 |
| 20260903183300 | 20 | 259 | 3.2 | 9.7 | 0.00 | 0.00 | 0.00 | 61 | 1020.1 |
| 20260903183200 | 20 | 260 | 3.2 | 9.7 | 0.00 | 0.00 | 0.00 | 61 | 1020.2 |
| 20260903183100 | 20 | 259 | 3.2 | 9.7 | 0.00 | 0.00 | 0.00 | 61 | 1020.1 |
| 20260903183000 | 20 | 259 | 4.8 | 9.7 | 0.00 | 0.00 | 0.00 | 61 | 1020.1 |
| 20260903182901 | 20 | 259 | 4.8 | 9.7 | 0.00 | 0.00 | 0.00 | 60 | 1020.1 |
| 20260903182802 | 20 | 259 | 4.8 | 9.7 | 0.00 | 0.00 | 0.00 | 60 | 1020.1 |
| 20260903182701 | 21 | 259 | 4.8 | 9.7 | 0.00 | 0.00 | 0.00 | 60 | 1020.1 |
| 20260903182601 | 21 | 259 | 4.8 | 9.7 | 0.00 | 0.00 | 0.00 | 60 | 1020.1 |
| 20260903182500 | 21 | 260 | 4.8 | 9.7 | 0.00 | 0.00 | 0.00 | 60 | 1020.1 |
| 20260903182400 | 21 | 267 | 4.8 | 9.7 | 0.00 | 0.00 | 0.00 | 60 | 1020.1 |
| 20260903182300 | 21 | 268 | 4.8 | 9.7 | 0.00 | 0.00 | 0.00 | 60 | 1020.1 |
| 20260903182201 | 21 | 267 | 4.8 | 9.7 | 0.00 | 0.00 | 0.00 | 59 | 1020.1 |
| 20260903182101 | 21 | 270 | 4.8 | 9.7 | 0.00 | 0.00 | 0.00 | 59 | 1020.0 |
| 20260903182000 | 21 | 270 | 4.8 | 9.7 | 0.00 | 0.00 | 0.00 | 59 | 1020.0 |
| 20260903181916 | 21 | 280 | 4.8 | 9.7 | 0.00 | 0.00 | 0.00 | 59 | 1020.1 |
| 20260903181901 | 21 | 285 | 4.8 | 9.7 | 0.00 | 0.00 | 0.00 | 59 | 1020.1 |
| 20260903181800 | 21 | 225 | 4.8 | 9.7 | 0.00 | 0.00 | 0.00 | 59 | 1020.0 |
| 20260903181704 | 21 | 259 | 4.8 | 9.7 | 0.00 | 0.00 | 0.00 | 59 | 1020.0 |
| 20260903181601 | 21 | 257 | 4.8 | 9.7 | 0.00 | 0.00 | 0.00 | 59 | 1020.0 |
| 20260903181501 | 21 | 257 | 4.8 | 9.7 | 0.00 | 0.00 | 0.00 | 59 | 1019.9 |
| 20260903181417 | 21 | 261 | 3.2 | 9.7 | 0.00 | 0.00 | 0.00 | 59 | 1019.9 |
| 20260903181401 | 21 | 266 | 3.2 | 9.7 | 0.00 | 0.00 | 0.00 | 59 | 1019.9 |
| 20260903181301 | 21 | 268 | 3.2 | 9.7 | 0.00 | 0.00 | 0.00 | 59 | 1019.9 |
| 20260903181201 | 21 | 247 | 3.2 | 8.0 | 0.00 | 0.00 | 0.00 | 58 | 1020.0 |
| 20260903181100 | 21 | 247 | 3.2 | 8.0 | 0.00 | 0.00 | 0.00 | 58 | 1020.0 |
| 20260903181000 | 21 | 248 | 3.2 | 8.0 | 0.00 | 0.00 | 0.00 | 58 | 1019.9 |
| 20260903180916 | 21 | 248 | 3.2 | 8.0 | 0.00 | 0.00 | 0.00 | 59 | 1020.0 |
| 20260903180900 | 21 | 247 | 3.2 | 8.0 | 0.00 | 0.00 | 0.00 | 59 | 1020.0 |
| 20260903180801 | 21 | 237 | 3.2 | 9.7 | 0.00 | 0.00 | 0.00 | 58 | 1019.9 |
| 20260903180701 | 21 | 236 | 3.2 | 9.7 | 0.00 | 0.00 | 0.00 | 58 | 1019.9 |
| 20260903180600 | 21 | 234 | 3.2 | 9.7 | 0.00 | 0.00 | 0.00 | 58 | 1019.9 |
| 20260903180500 | 21 | 234 | 3.2 | 9.7 | 0.00 | 0.00 | 0.00 | 58 | 1019.9 |
| 20260903180401 | 21 | 233 | 4.8 | 9.7 | 0.00 | 0.00 | 0.00 | 57 | 1019.9 |
| 20260903180300 | 21 | 233 | 4.8 | 9.7 | 0.00 | 0.00 | 0.00 | 58 | 1019.9 |
| 20260903180200 | 21 | 232 | 4.8 | 9.7 | 0.00 | 0.00 | 0.00 | 57 | 1019.9 |
| 20260903180100 | 21 | 233 | 4.8 | 9.7 | 0.00 | 0.00 | 0.00 | 57 | 1019.8 |
| 20260903180001 | 21 | 269 | 4.8 | 9.7 | 0.00 | 0.00 | 0.00 | 57 | 1019.9 |
| 20260903175901 | 21 | 269 | 4.8 | 9.7 | 0.00 | 0.00 | 0.00 | 57 | 1019.9 |
| 20260903175801 | 21 | 245 | 4.8 | 8.0 | 0.00 | 0.00 | 0.00 | 57 | 1019.8 |
| 20260903175701 | 21 | 261 | 4.8 | 8.0 | 0.00 | 0.00 | 0.00 | 57 | 1019.8 |
| 20260903175600 | 21 | 261 | 4.8 | 8.0 | 0.00 | 0.00 | 0.00 | 57 | 1019.8 |
| 20260903175501 | 21 | 261 | 4.8 | 8.0 | 0.00 | 0.00 | 0.00 | 57 | 1019.8 |
| 20260903175417 | 21 | 261 | 4.8 | 8.0 | 0.00 | 0.00 | 0.00 | 57 | 1019.7 |
| 20260903175400 | 21 | 260 | 4.8 | 8.0 | 0.00 | 0.00 | 0.00 | 57 | 1019.7 |
| 20260903175300 | 21 | 264 | 4.8 | 8.0 | 0.00 | 0.00 | 0.00 | 56 | 1019.8 |
| 20260903175200 | 21 | 261 | 4.8 | 8.0 | 0.00 | 0.00 | 0.00 | 56 | 1019.8 |
| 20260903175100 | 21 | 233 | 4.8 | 8.0 | 0.00 | 0.00 | 0.00 | 56 | 1019.8 |
| 20260903174956 | 21 | 232 | 4.8 | 8.0 | 0.00 | 0.00 | 0.00 | 57 | 1019.8 |
| 20260903174916 | 21 | 236 | 4.8 | 8.0 | 0.00 | 0.00 | 0.00 | 56 | 1019.8 |
| 20260903174856 | 21 | 236 | 4.8 | 8.0 | 0.00 | 0.00 | 0.00 | 56 | 1019.8 |
| 20260903174757 | 21 | 234 | 3.2 | 8.0 | 0.00 | 0.00 | 0.00 | 56 | 1019.7 |
| 20260903174657 | 21 | 260 | 4.8 | 8.0 | 0.00 | 0.00 | 0.00 | 56 | 1019.7 |
| 20260903174558 | 22 | 246 | 4.8 | 11.3 | 0.00 | 0.00 | 0.00 | 56 | 1019.7 |
| 20260903174457 | 22 | 246 | 4.8 | 11.3 | 0.00 | 0.00 | 0.00 | 56 | 1019.7 |
| 20260903174413 | 22 | 245 | 3.2 | 11.3 | 0.00 | 0.00 | 0.00 | 56 | 1019.7 |
| 20260903174357 | 22 | 245 | 3.2 | 11.3 | 0.00 | 0.00 | 0.00 | 56 | 1019.7 |
| 20260903174257 | 22 | 244 | 3.2 | 11.3 | 0.00 | 0.00 | 0.00 | 55 | 1019.7 |
| 20260903174157 | 22 | 244 | 3.2 | 11.3 | 0.00 | 0.00 | 0.00 | 55 | 1019.7 |
| 20260903174056 | 22 | 244 | 3.2 | 11.3 | 0.00 | 0.00 | 0.00 | 55 | 1019.7 |
| 20260903173956 | 22 | 242 | 3.2 | 11.3 | 0.00 | 0.00 | 0.00 | 55 | 1019.7 |
| 20260903173912 | 22 | 218 | 3.2 | 11.3 | 0.00 | 0.00 | 0.00 | 55 | 1019.7 |
| 20260903173856 | 22 | 218 | 3.2 | 11.3 | 0.00 | 0.00 | 0.00 | 55 | 1019.7 |
| 20260903173756 | 22 | 218 | 3.2 | 11.3 | 0.00 | 0.00 | 0.00 | 55 | 1019.7 |
| 20260903173714 | 22 | 217 | 3.2 | 11.3 | 0.00 | 0.00 | 0.00 | 55 | 1019.7 |
| 20260903173709 | 22 | 214 | 3.2 | 8.0 | 0.00 | 0.00 | 0.00 | 55 | 1019.7 |
| 20260903173458 | 22 | 231 | 3.2 | 8.0 | 0.00 | 0.00 | 0.00 | 55 | 1019.5 |
| 20260903173413 | 22 | 232 | 3.2 | 8.0 | 0.00 | 0.00 | 0.00 | 55 | 1019.5 |
| 20260903173356 | 22 | 231 | 3.2 | 8.0 | 0.00 | 0.00 | 0.00 | 55 | 1019.5 |
| 20260903173257 | 22 | 232 | 3.2 | 8.0 | 0.00 | 0.00 | 0.00 | 55 | 1019.7 |
| 20260903173157 | 22 | 228 | 3.2 | 6.4 | 0.00 | 0.00 | 0.00 | 55 | 1019.5 |
| 20260903173050 | 22 | 228 | 3.2 | 6.4 | 0.00 | 0.00 | 0.00 | 55 | 1019.7 |
| 20260903172950 | 22 | 228 | 3.2 | 6.4 | 0.00 | 0.00 | 0.00 | 55 | 1019.7 |
| 20260903172911 | 22 | 228 | 3.2 | 6.4 | 0.00 | 0.00 | 0.00 | 55 | 1019.7 |
| 20260903172852 | 22 | 228 | 3.2 | 6.4 | 0.00 | 0.00 | 0.00 | 55 | 1019.7 |
| 20260903172750 | 22 | 229 | 3.2 | 8.0 | 0.00 | 0.00 | 0.00 | 55 | 1019.5 |
| 20260903172650 | 22 | 221 | 4.8 | 8.0 | 0.00 | 0.00 | 0.00 | 55 | 1019.7 |
| 20260903172551 | 22 | 221 | 4.8 | 8.0 | 0.00 | 0.00 | 0.00 | 54 | 1019.7 |
| 20260903172451 | 22 | 221 | 4.8 | 8.0 | 0.00 | 0.00 | 0.00 | 54 | 1019.5 |
| 20260903172409 | 22 | 221 | 4.8 | 8.0 | 0.00 | 0.00 | 0.00 | 54 | 1019.5 |
| 20260903172348 | 22 | 221 | 4.8 | 8.0 | 0.00 | 0.00 | 0.00 | 54 | 1019.5 |
| 20260903172249 | 22 | 221 | 4.8 | 8.0 | 0.00 | 0.00 | 0.00 | 54 | 1019.7 |
| 20260903172149 | 22 | 221 | 4.8 | 8.0 | 0.00 | 0.00 | 0.00 | 54 | 1019.7 |
| 20260903172125 | 22 | 223 | 6.4 | 14.5 | 0.00 | 0.00 | 0.00 | 54 | 1019.5 |
| 20260903172121 | 22 | 221 | 4.8 | 8.0 | 0.00 | 0.00 | 0.00 | 54 | 1019.7 |
| 20260903172117 | 22 | 223 | 4.8 | 9.7 | 0.00 | 0.00 | 0.00 | 54 | 1019.7 |
| 20260903171842 | 22 | 223 | 6.4 | 14.5 | 0.00 | 0.00 | 0.00 | 54 | 1019.5 |
| 20260903171740 | 22 | 222 | 6.4 | 14.5 | 0.00 | 0.00 | 0.00 | 54 | 1019.7 |
| 20260903171638 | 22 | 246 | 4.8 | 14.5 | 0.00 | 0.00 | 0.00 | 55 | 1019.7 |
| 20260903171535 | 22 | 241 | 4.8 | 14.5 | 0.00 | 0.00 | 0.00 | 54 | 1019.7 |
| 20260903171436 | 22 | 241 | 4.8 | 14.5 | 0.00 | 0.00 | 0.00 | 54 | 1019.7 |
| 20260903171404 | 22 | 241 | 4.8 | 14.5 | 0.00 | 0.00 | 0.00 | 54 | 1019.5 |
| 20260903171332 | 22 | 223 | 4.8 | 14.5 | 0.00 | 0.00 | 0.00 | 54 | 1019.5 |
| 20260903171233 | 22 | 240 | 4.8 | 14.5 | 0.00 | 0.00 | 0.00 | 54 | 1019.7 |
| 20260903171131 | 22 | 240 | 3.2 | 14.5 | 0.00 | 0.00 | 0.00 | 53 | 1019.5 |
| 20260903171032 | 22 | 225 | 3.2 | 14.5 | 0.00 | 0.00 | 0.00 | 54 | 1019.5 |
| 20260903170930 | 22 | 256 | 3.2 | 14.5 | 0.00 | 0.00 | 0.00 | 54 | 1019.5 |
| 20260903170905 | 22 | 235 | 3.2 | 14.5 | 0.00 | 0.00 | 0.00 | 54 | 1019.7 |
| 20260903170829 | 22 | 234 | 3.2 | 6.4 | 0.00 | 0.00 | 0.00 | 54 | 1019.7 |
| 20260903170726 | 22 | 234 | 3.2 | 8.0 | 0.00 | 0.00 | 0.00 | 53 | 1019.7 |
| 20260903170626 | 22 | 234 | 3.2 | 9.7 | 0.00 | 0.00 | 0.00 | 54 | 1019.7 |
| 20260903170520 | 23 | 233 | 3.2 | 9.7 | 0.00 | 0.00 | 0.00 | 54 | 1019.7 |
| 20260903170404 | 23 | 234 | 3.2 | 9.7 | 0.00 | 0.00 | 0.00 | 54 | 1019.7 |
| 20260903170321 | 23 | 234 | 4.8 | 9.7 | 0.00 | 0.00 | 0.00 | 54 | 1019.7 |
| 20260903170221 | 23 | 234 | 4.8 | 16.1 | 0.00 | 0.00 | 0.00 | 54 | 1019.5 |
| 20260903170120 | 23 | 234 | 6.4 | 16.1 | 0.00 | 0.00 | 0.00 | 54 | 1019.7 |
| 20260903170016 | 23 | 233 | 6.4 | 16.1 | 0.00 | 0.00 | 0.00 | 54 | 1019.7 |
| 20260903165902 | 23 | 231 | 6.4 | 16.1 | 0.00 | 0.00 | 0.00 | 54 | 1019.7 |
| 20260903165814 | 23 | 231 | 6.4 | 16.1 | 0.00 | 0.00 | 0.00 | 54 | 1019.7 |
| 20260903165714 | 23 | 221 | 6.4 | 16.1 | 0.00 | 0.00 | 0.00 | 54 | 1019.7 |
| 20260903165627 | 23 | 275 | 6.4 | 16.1 | 0.00 | 0.00 | 0.00 | 53 | 1019.7 |
| 20260903165623 | 23 | 271 | 6.4 | 16.1 | 0.00 | 0.00 | 0.00 | 52 | 1019.5 |
| 20260903165619 | 23 | 267 | 6.4 | 16.1 | 0.00 | 0.00 | 0.00 | 53 | 1019.7 |
| 20260903165615 | 23 | 277 | 6.4 | 16.1 | 0.00 | 0.00 | 0.00 | 53 | 1019.7 |
| 20260903165308 | 23 | 234 | 6.4 | 16.1 | 0.00 | 0.00 | 0.00 | 52 | 1019.7 |
| 20260903165209 | 23 | 232 | 6.4 | 12.9 | 0.00 | 0.00 | 0.00 | 53 | 1019.7 |
| 20260903165107 | 23 | 290 | 4.8 | 12.9 | 0.00 | 0.00 | 0.00 | 53 | 1019.7 |
| 20260903165008 | 23 | 238 | 4.8 | 12.9 | 0.00 | 0.00 | 0.00 | 53 | 1019.7 |
| 20260903164902 | 23 | 253 | 4.8 | 12.9 | 0.00 | 0.00 | 0.00 | 53 | 1019.8 |
| 20260903164808 | 23 | 257 | 4.8 | 12.9 | 0.00 | 0.00 | 0.00 | 53 | 1019.8 |
| 20260903164708 | 23 | 270 | 4.8 | 12.9 | 0.00 | 0.00 | 0.00 | 53 | 1019.8 |
| 20260903164624 | 23 | 272 | 4.8 | 12.9 | 0.00 | 0.00 | 0.00 | 53 | 1019.7 |
| 20260903164618 | 23 | 252 | 4.8 | 9.7 | 0.00 | 0.00 | 0.00 | 53 | 1019.8 |
| 20260903164614 | 23 | 231 | 4.8 | 9.7 | 0.00 | 0.00 | 0.00 | 53 | 1019.8 |
| 20260903164306 | 23 | 224 | 4.8 | 9.7 | 0.00 | 0.00 | 0.00 | 53 | 1019.8 |
| 20260903164204 | 23 | 244 | 4.8 | 9.7 | 0.00 | 0.00 | 0.00 | 53 | 1019.7 |
| 20260903164102 | 23 | 227 | 4.8 | 9.7 | 0.00 | 0.00 | 0.00 | 53 | 1019.7 |
| 20260903164002 | 23 | 279 | 4.8 | 9.7 | 0.00 | 0.00 | 0.00 | 53 | 1019.7 |
| 20260903163902 | 23 | 231 | 4.8 | 11.3 | 0.00 | 0.00 | 0.00 | 54 | 1019.8 |
| 20260903163802 | 23 | 240 | 4.8 | 11.3 | 0.00 | 0.00 | 0.00 | 53 | 1019.8 |
| 20260903163701 | 23 | 240 | 4.8 | 11.3 | 0.00 | 0.00 | 0.00 | 53 | 1019.7 |
| 20260903163601 | 23 | 265 | 4.8 | 11.3 | 0.00 | 0.00 | 0.00 | 54 | 1019.7 |
| 20260903163502 | 23 | 270 | 4.8 | 11.3 | 0.00 | 0.00 | 0.00 | 54 | 1019.7 |
| 20260903163401 | 23 | 281 | 4.8 | 11.3 | 0.00 | 0.00 | 0.00 | 53 | 1019.7 |
| 20260903163300 | 23 | 246 | 4.8 | 11.3 | 0.00 | 0.00 | 0.00 | 52 | 1019.7 |
| 20260903163200 | 23 | 215 | 6.4 | 11.3 | 0.00 | 0.00 | 0.00 | 53 | 1019.7 |
| 20260903163100 | 23 | 242 | 6.4 | 11.3 | 0.00 | 0.00 | 0.00 | 53 | 1019.7 |
| 20260903163000 | 23 | 240 | 4.8 | 11.3 | 0.00 | 0.00 | 0.00 | 54 | 1019.7 |
| 20260903162904 | 23 | 229 | 4.8 | 11.3 | 0.00 | 0.00 | 0.00 | 53 | 1019.7 |
| 20260903162900 | 23 | 230 | 4.8 | 11.3 | 0.00 | 0.00 | 0.00 | 53 | 1019.7 |
| 20260903162759 | 23 | 232 | 4.8 | 11.3 | 0.00 | 0.00 | 0.00 | 53 | 1019.7 |
| 20260903162658 | 23 | 233 | 4.8 | 11.3 | 0.00 | 0.00 | 0.00 | 53 | 1019.5 |
| 20260903162559 | 23 | 229 | 6.4 | 11.3 | 0.00 | 0.00 | 0.00 | 53 | 1019.5 |
| 20260903162456 | 23 | 256 | 6.4 | 12.9 | 0.00 | 0.00 | 0.00 | 53 | 1019.5 |
| 20260903162400 | 23 | 269 | 6.4 | 14.5 | 0.00 | 0.00 | 0.00 | 53 | 1019.5 |
| 20260903162353 | 23 | 268 | 6.4 | 14.5 | 0.00 | 0.00 | 0.00 | 53 | 1019.5 |
| 20260903162250 | 23 | 270 | 6.4 | 14.5 | 0.00 | 0.00 | 0.00 | 53 | 1019.5 |
| 20260903162150 | 23 | 284 | 8.0 | 14.5 | 0.00 | 0.00 | 0.00 | 52 | 1019.5 |
| 20260903162123 | 23 | 240 | 8.0 | 14.5 | 0.00 | 0.00 | 0.00 | 52 | 1019.5 |
| 20260903162117 | 23 | 259 | 8.0 | 14.5 | 0.00 | 0.00 | 0.00 | 53 | 1019.5 |
| 20260903162113 | 23 | 245 | 8.0 | 14.5 | 0.00 | 0.00 | 0.00 | 52 | 1019.5 |
| 20260903161847 | 23 | 226 | 8.0 | 14.5 | 0.00 | 0.00 | 0.00 | 52 | 1019.5 |
| 20260903161742 | 23 | 228 | 9.7 | 14.5 | 0.00 | 0.00 | 0.00 | 52 | 1019.5 |
| 20260903161642 | 23 | 266 | 9.7 | 14.5 | 0.00 | 0.00 | 0.00 | 51 | 1019.7 |
| 20260903161542 | 23 | 254 | 9.7 | 14.5 | 0.00 | 0.00 | 0.00 | 51 | 1019.7 |
| 20260903161442 | 23 | 271 | 9.7 | 14.5 | 0.00 | 0.00 | 0.00 | 51 | 1019.7 |
| 20260903161400 | 23 | 241 | 9.7 | 16.1 | 0.00 | 0.00 | 0.00 | 51 | 1019.7 |
| 20260903161342 | 23 | 237 | 9.7 | 16.1 | 0.00 | 0.00 | 0.00 | 51 | 1019.7 |
| 20260903161238 | 23 | 252 | 9.7 | 16.1 | 0.00 | 0.00 | 0.00 | 51 | 1019.7 |
| 20260903161138 | 23 | 259 | 9.7 | 17.7 | 0.00 | 0.00 | 0.00 | 51 | 1019.7 |
| 20260903161038 | 23 | 258 | 9.7 | 17.7 | 0.00 | 0.00 | 0.00 | 52 | 1019.7 |
| 20260903160938 | 23 | 252 | 9.7 | 17.7 | 0.00 | 0.00 | 0.00 | 51 | 1019.7 |
| 20260903160901 | 23 | 265 | 9.7 | 17.7 | 0.00 | 0.00 | 0.00 | 52 | 1019.7 |
| 20260903160836 | 23 | 272 | 9.7 | 17.7 | 0.00 | 0.00 | 0.00 | 52 | 1019.7 |
| 20260903160736 | 23 | 267 | 11.3 | 17.7 | 0.00 | 0.00 | 0.00 | 51 | 1019.7 |
| 20260903160636 | 23 | 252 | 11.3 | 19.3 | 0.00 | 0.00 | 0.00 | 51 | 1019.7 |
| 20260903160536 | 23 | 261 | 11.3 | 19.3 | 0.00 | 0.00 | 0.00 | 51 | 1019.7 |
| 20260903160436 | 23 | 277 | 11.3 | 20.9 | 0.00 | 0.00 | 0.00 | 51 | 1019.7 |
| 20260903160401 | 23 | 281 | 11.3 | 20.9 | 0.00 | 0.00 | 0.00 | 51 | 1019.7 |
| 20260903160336 | 23 | 254 | 11.3 | 20.9 | 0.00 | 0.00 | 0.00 | 51 | 1019.7 |
| 20260903160236 | 23 | 215 | 11.3 | 20.9 | 0.00 | 0.00 | 0.00 | 51 | 1019.8 |
| 20260903160136 | 23 | 248 | 11.3 | 20.9 | 0.00 | 0.00 | 0.00 | 51 | 1019.8 |
| 20260903160037 | 23 | 267 | 11.3 | 20.9 | 0.00 | 0.00 | 0.00 | 51 | 1019.8 |
| 20260903155937 | 23 | 276 | 11.3 | 20.9 | 0.00 | 0.00 | 0.00 | 50 | 1019.8 |
| 20260903155902 | 23 | 234 | 11.3 | 20.9 | 0.00 | 0.00 | 0.00 | 50 | 1019.8 |
| 20260903155836 | 23 | 277 | 11.3 | 20.9 | 0.00 | 0.00 | 0.00 | 50 | 1019.8 |
| 20260903155736 | 23 | 263 | 11.3 | 20.9 | 0.00 | 0.00 | 0.00 | 50 | 1019.8 |
| 20260903155635 | 23 | 247 | 11.3 | 20.9 | 0.00 | 0.00 | 0.00 | 50 | 1019.8 |
| 20260903155534 | 23 | 283 | 11.3 | 20.9 | 0.00 | 0.00 | 0.00 | 50 | 1019.8 |
| 20260903155434 | 23 | 277 | 11.3 | 20.9 | 0.00 | 0.00 | 0.00 | 51 | 1019.7 |
| 20260903155400 | 23 | 251 | 11.3 | 20.9 | 0.00 | 0.00 | 0.00 | 51 | 1019.7 |
| 20260903155334 | 23 | 236 | 11.3 | 20.9 | 0.00 | 0.00 | 0.00 | 51 | 1019.7 |
| 20260903155234 | 23 | 275 | 11.3 | 20.9 | 0.00 | 0.00 | 0.00 | 50 | 1019.7 |
| 20260903155134 | 23 | 285 | 11.3 | 20.9 | 0.00 | 0.00 | 0.00 | 50 | 1019.7 |
| 20260903155033 | 23 | 268 | 11.3 | 20.9 | 0.00 | 0.00 | 0.00 | 50 | 1019.7 |
| 20260903154932 | 23 | 263 | 11.3 | 20.9 | 0.00 | 0.00 | 0.00 | 51 | 1019.7 |
| 20260903154901 | 23 | 262 | 11.3 | 20.9 | 0.00 | 0.00 | 0.00 | 51 | 1019.7 |
| 20260903154832 | 23 | 252 | 11.3 | 20.9 | 0.00 | 0.00 | 0.00 | 51 | 1019.7 |
| 20260903154732 | 23 | 263 | 11.3 | 20.9 | 0.00 | 0.00 | 0.00 | 51 | 1019.7 |
| 20260903154632 | 23 | 263 | 11.3 | 20.9 | 0.00 | 0.00 | 0.00 | 51 | 1019.7 |
| 20260903154621 | 23 | 256 | 11.3 | 17.7 | 0.00 | 0.00 | 0.00 | 51 | 1019.7 |
| 20260903154615 | 23 | 250 | 11.3 | 17.7 | 0.00 | 0.00 | 0.00 | 51 | 1019.7 |
| 20260903154612 | 23 | 276 | 11.3 | 17.7 | 0.00 | 0.00 | 0.00 | 51 | 1019.7 |
| 20260903154330 | 23 | 242 | 11.3 | 17.7 | 0.00 | 0.00 | 0.00 | 51 | 1019.7 |
| 20260903154230 | 23 | 264 | 11.3 | 17.7 | 0.00 | 0.00 | 0.00 | 50 | 1019.8 |
| 20260903154130 | 23 | 240 | 11.3 | 17.7 | 0.00 | 0.00 | 0.00 | 50 | 1019.8 |
| 20260903154029 | 23 | 259 | 11.3 | 17.7 | 0.00 | 0.00 | 0.00 | 50 | 1019.8 |
| 20260903153929 | 23 | 267 | 11.3 | 17.7 | 0.00 | 0.00 | 0.00 | 51 | 1019.8 |
| 20260903153901 | 23 | 256 | 11.3 | 17.7 | 0.00 | 0.00 | 0.00 | 51 | 1019.8 |
| 20260903153830 | 23 | 293 | 11.3 | 17.7 | 0.00 | 0.00 | 0.00 | 50 | 1019.8 |
| 20260903153730 | 23 | 269 | 11.3 | 17.7 | 0.00 | 0.00 | 0.00 | 50 | 1019.8 |
| 20260903153630 | 23 | 235 | 11.3 | 19.3 | 0.00 | 0.00 | 0.00 | 50 | 1019.8 |
| 20260903153532 | 23 | 286 | 11.3 | 19.3 | 0.00 | 0.00 | 0.00 | 51 | 1019.9 |
| 20260903153429 | 23 | 254 | 11.3 | 19.3 | 0.00 | 0.00 | 0.00 | 50 | 1019.8 |
| 20260903153402 | 23 | 253 | 11.3 | 19.3 | 0.00 | 0.00 | 0.00 | 50 | 1019.8 |
| 20260903153329 | 23 | 261 | 11.3 | 19.3 | 0.00 | 0.00 | 0.00 | 50 | 1019.8 |
| 20260903153230 | 23 | 275 | 9.7 | 19.3 | 0.00 | 0.00 | 0.00 | 50 | 1019.8 |
| 20260903153129 | 23 | 266 | 9.7 | 19.3 | 0.00 | 0.00 | 0.00 | 50 | 1019.8 |
| 20260903153029 | 23 | 279 | 9.7 | 19.3 | 0.00 | 0.00 | 0.00 | 50 | 1019.8 |
| 20260903152929 | 23 | 267 | 9.7 | 19.3 | 0.00 | 0.00 | 0.00 | 50 | 1019.8 |
| 20260903152901 | 23 | 235 | 9.7 | 19.3 | 0.00 | 0.00 | 0.00 | 50 | 1019.8 |
| 20260903152829 | 23 | 251 | 9.7 | 19.3 | 0.00 | 0.00 | 0.00 | 50 | 1019.8 |
| 20260903152729 | 23 | 262 | 8.0 | 19.3 | 0.00 | 0.00 | 0.00 | 50 | 1019.8 |
| 20260903152629 | 23 | 250 | 9.7 | 17.7 | 0.00 | 0.00 | 0.00 | 50 | 1019.8 |
| 20260903152529 | 24 | 233 | 9.7 | 17.7 | 0.00 | 0.00 | 0.00 | 50 | 1019.8 |
| 20260903152429 | 24 | 281 | 9.7 | 17.7 | 0.00 | 0.00 | 0.00 | 50 | 1019.8 |
| 20260903152400 | 24 | 257 | 11.3 | 17.7 | 0.00 | 0.00 | 0.00 | 49 | 1019.8 |
| 20260903152329 | 24 | 263 | 11.3 | 17.7 | 0.00 | 0.00 | 0.00 | 49 | 1019.8 |
| 20260903152229 | 24 | 239 | 11.3 | 17.7 | 0.00 | 0.00 | 0.00 | 49 | 1019.9 |
| 20260903152129 | 24 | 257 | 11.3 | 19.3 | 0.00 | 0.00 | 0.00 | 49 | 1019.9 |
| 20260903152031 | 24 | 269 | 11.3 | 19.3 | 0.00 | 0.00 | 0.00 | 50 | 1019.8 |
| 20260903151929 | 24 | 271 | 11.3 | 19.3 | 0.00 | 0.00 | 0.00 | 50 | 1019.8 |
| 20260903151900 | 24 | 274 | 12.9 | 19.3 | 0.00 | 0.00 | 0.00 | 50 | 1019.8 |
| 20260903151829 | 24 | 266 | 12.9 | 22.5 | 0.00 | 0.00 | 0.00 | 49 | 1019.8 |
| 20260903151728 | 24 | 267 | 12.9 | 22.5 | 0.00 | 0.00 | 0.00 | 49 | 1019.8 |
| 20260903151628 | 24 | 269 | 12.9 | 22.5 | 0.00 | 0.00 | 0.00 | 49 | 1019.8 |
| 20260903151528 | 24 | 252 | 12.9 | 22.5 | 0.00 | 0.00 | 0.00 | 48 | 1019.9 |
| 20260903151429 | 24 | 286 | 12.9 | 22.5 | 0.00 | 0.00 | 0.00 | 48 | 1019.9 |
| 20260903151400 | 24 | 263 | 12.9 | 22.5 | 0.00 | 0.00 | 0.00 | 48 | 1019.9 |
| 20260903151328 | 24 | 234 | 12.9 | 22.5 | 0.00 | 0.00 | 0.00 | 48 | 1019.9 |
| 20260903151227 | 24 | 248 | 12.9 | 22.5 | 0.00 | 0.00 | 0.00 | 48 | 1019.9 |
| 20260903151123 | 24 | 274 | 12.9 | 22.5 | 0.00 | 0.00 | 0.00 | 48 | 1019.9 |
| 20260903151022 | 24 | 263 | 12.9 | 22.5 | 0.00 | 0.00 | 0.00 | 49 | 1019.8 |
| 20260903150922 | 24 | 303 | 11.3 | 22.5 | 0.00 | 0.00 | 0.00 | 48 | 1019.9 |
| 20260903150902 | 24 | 296 | 11.3 | 22.5 | 0.00 | 0.00 | 0.00 | 48 | 1019.9 |
| 20260903150844 | 24 | 272 | 12.9 | 22.5 | 0.00 | 0.00 | 0.00 | 49 | 1019.8 |
| 20260903150840 | 24 | 263 | 11.3 | 20.9 | 0.00 | 0.00 | 0.00 | 48 | 1019.8 |
| 20260903150836 | 24 | 261 | 11.3 | 20.9 | 0.00 | 0.00 | 0.00 | 49 | 1019.9 |
| 20260903150618 | 24 | 304 | 11.3 | 20.9 | 0.00 | 0.00 | 0.00 | 49 | 1019.8 |
| 20260903150613 | 24 | 256 | 11.3 | 20.9 | 0.00 | 0.00 | 0.00 | 49 | 1019.8 |
| 20260903150609 | 24 | 280 | 12.9 | 22.5 | 0.00 | 0.00 | 0.00 | 49 | 1019.8 |
| 20260903150317 | 24 | 281 | 12.9 | 22.5 | 0.00 | 0.00 | 0.00 | 50 | 1019.9 |
| 20260903150215 | 24 | 257 | 12.9 | 22.5 | 0.00 | 0.00 | 0.00 | 49 | 1019.8 |
| 20260903150110 | 24 | 261 | 12.9 | 24.1 | 0.00 | 0.00 | 0.00 | 49 | 1019.8 |
| 20260903150010 | 24 | 265 | 12.9 | 24.1 | 0.00 | 0.00 | 0.00 | 49 | 1019.8 |
| 20260903145913 | 24 | 274 | 14.5 | 24.1 | 0.00 | 0.00 | 0.00 | 49 | 1019.8 |
| 20260903145852 | 24 | 234 | 14.5 | 24.1 | 0.00 | 0.00 | 0.00 | 49 | 1019.8 |
| 20260903145810 | 24 | 279 | 14.5 | 24.1 | 0.00 | 0.00 | 0.00 | 49 | 1019.7 |
| 20260903145709 | 24 | 265 | 14.5 | 24.1 | 0.00 | 0.00 | 0.00 | 48 | 1019.8 |
| 20260903145604 | 24 | 254 | 14.5 | 24.1 | 0.00 | 0.00 | 0.00 | 48 | 1019.8 |
| 20260903145504 | 24 | 266 | 14.5 | 24.1 | 0.00 | 0.00 | 0.00 | 49 | 1019.9 |
| 20260903145405 | 24 | 273 | 14.5 | 24.1 | 0.00 | 0.00 | 0.00 | 48 | 1019.9 |
| 20260903145346 | 24 | 287 | 14.5 | 24.1 | 0.00 | 0.00 | 0.00 | 48 | 1019.9 |
| 20260903145306 | 25 | 290 | 12.9 | 24.1 | 0.00 | 0.00 | 0.00 | 48 | 1019.9 |
| 20260903145203 | 25 | 259 | 12.9 | 24.1 | 0.00 | 0.00 | 0.00 | 49 | 1019.9 |
| 20260903145104 | 25 | 258 | 12.9 | 24.1 | 0.00 | 0.00 | 0.00 | 49 | 1019.8 |
| 20260903145004 | 25 | 292 | 12.9 | 24.1 | 0.00 | 0.00 | 0.00 | 49 | 1019.9 |
| 20260903144904 | 25 | 259 | 12.9 | 24.1 | 0.00 | 0.00 | 0.00 | 49 | 1019.9 |
| 20260903144840 | 25 | 277 | 12.9 | 22.5 | 0.00 | 0.00 | 0.00 | 49 | 1019.9 |
| 20260903144804 | 25 | 261 | 12.9 | 20.9 | 0.00 | 0.00 | 0.00 | 50 | 1019.8 |
| 20260903144704 | 25 | 261 | 12.9 | 22.5 | 0.00 | 0.00 | 0.00 | 49 | 1019.8 |
| 20260903144604 | 25 | 270 | 12.9 | 22.5 | 0.00 | 0.00 | 0.00 | 49 | 1019.8 |
| 20260903144504 | 25 | 259 | 12.9 | 22.5 | 0.00 | 0.00 | 0.00 | 49 | 1019.9 |
| 20260903144404 | 25 | 240 | 11.3 | 22.5 | 0.00 | 0.00 | 0.00 | 49 | 1019.8 |
| 20260903144340 | 25 | 246 | 11.3 | 22.5 | 0.00 | 0.00 | 0.00 | 49 | 1019.8 |
| 20260903144302 | 25 | 242 | 11.3 | 22.5 | 0.00 | 0.00 | 0.00 | 49 | 1019.9 |
| 20260903144203 | 25 | 246 | 11.3 | 22.5 | 0.00 | 0.00 | 0.00 | 49 | 1019.9 |
| 20260903144102 | 25 | 260 | 11.3 | 22.5 | 0.00 | 0.00 | 0.00 | 49 | 1019.9 |
| 20260903144002 | 25 | 285 | 11.3 | 22.5 | 0.00 | 0.00 | 0.00 | 49 | 1019.9 |
| 20260903143901 | 25 | 246 | 9.7 | 22.5 | 0.00 | 0.00 | 0.00 | 49 | 1019.9 |
| 20260903143838 | 25 | 240 | 9.7 | 22.5 | 0.00 | 0.00 | 0.00 | 49 | 1019.9 |
| 20260903143801 | 25 | 246 | 9.7 | 22.5 | 0.00 | 0.00 | 0.00 | 49 | 1019.9 |
| 20260903143701 | 25 | 249 | 9.7 | 19.3 | 0.00 | 0.00 | 0.00 | 51 | 1019.8 |
| 20260903143601 | 24 | 282 | 9.7 | 19.3 | 0.00 | 0.00 | 0.00 | 51 | 1019.8 |
| 20260903143501 | 24 | 284 | 9.7 | 19.3 | 0.00 | 0.00 | 0.00 | 50 | 1019.8 |
| 20260903143402 | 24 | 293 | 11.3 | 19.3 | 0.00 | 0.00 | 0.00 | 50 | 1019.8 |
| 20260903143338 | 24 | 248 | 11.3 | 19.3 | 0.00 | 0.00 | 0.00 | 51 | 1019.8 |
| 20260903143301 | 24 | 233 | 11.3 | 19.3 | 0.00 | 0.00 | 0.00 | 51 | 1019.8 |
| 20260903143201 | 24 | 238 | 11.3 | 19.3 | 0.00 | 0.00 | 0.00 | 50 | 1019.7 |
| 20260903143101 | 24 | 235 | 11.3 | 19.3 | 0.00 | 0.00 | 0.00 | 50 | 1019.8 |
| 20260903143001 | 24 | 237 | 11.3 | 19.3 | 0.00 | 0.00 | 0.00 | 50 | 1019.8 |
| 20260903142901 | 24 | 265 | 11.3 | 19.3 | 0.00 | 0.00 | 0.00 | 50 | 1019.9 |
| 20260903142838 | 24 | 284 | 11.3 | 19.3 | 0.00 | 0.00 | 0.00 | 50 | 1019.9 |
| 20260903142801 | 24 | 246 | 12.9 | 25.7 | 0.00 | 0.00 | 0.00 | 50 | 1019.8 |
| 20260903142701 | 24 | 269 | 12.9 | 25.7 | 0.00 | 0.00 | 0.00 | 51 | 1019.9 |
| 20260903142602 | 24 | 240 | 11.3 | 25.7 | 0.00 | 0.00 | 0.00 | 51 | 1019.9 |
| 20260903142501 | 24 | 252 | 11.3 | 25.7 | 0.00 | 0.00 | 0.00 | 50 | 1019.9 |
| 20260903142402 | 24 | 263 | 11.3 | 25.7 | 0.00 | 0.00 | 0.00 | 50 | 1019.9 |
| 20260903142336 | 24 | 277 | 11.3 | 25.7 | 0.00 | 0.00 | 0.00 | 50 | 1019.9 |
| 20260903142300 | 24 | 219 | 11.3 | 25.7 | 0.00 | 0.00 | 0.00 | 50 | 1019.9 |
| 20260903142200 | 24 | 279 | 11.3 | 25.7 | 0.00 | 0.00 | 0.00 | 50 | 1019.9 |
| 20260903142101 | 24 | 273 | 11.3 | 25.7 | 0.00 | 0.00 | 0.00 | 49 | 1019.9 |
| 20260903142001 | 24 | 248 | 11.3 | 25.7 | 0.00 | 0.00 | 0.00 | 49 | 1020.0 |
| 20260903141900 | 24 | 243 | 11.3 | 25.7 | 0.00 | 0.00 | 0.00 | 50 | 1020.0 |
| 20260903141836 | 24 | 242 | 11.3 | 25.7 | 0.00 | 0.00 | 0.00 | 50 | 1020.0 |
| 20260903141800 | 24 | 236 | 11.3 | 24.1 | 0.00 | 0.00 | 0.00 | 48 | 1019.9 |
| 20260903141658 | 24 | 217 | 11.3 | 19.3 | 0.00 | 0.00 | 0.00 | 48 | 1019.9 |
| 20260903141558 | 25 | 214 | 12.9 | 19.3 | 0.00 | 0.00 | 0.00 | 48 | 1019.9 |
| 20260903141458 | 25 | 208 | 12.9 | 20.9 | 0.00 | 0.00 | 0.00 | 48 | 1020.0 |
| 20260903141358 | 25 | 218 | 12.9 | 22.5 | 0.00 | 0.00 | 0.00 | 48 | 1019.9 |
| 20260903141336 | 25 | 204 | 12.9 | 22.5 | 0.00 | 0.00 | 0.00 | 48 | 1019.9 |
| 20260903141257 | 25 | 272 | 14.5 | 22.5 | 0.00 | 0.00 | 0.00 | 48 | 1020.0 |
| 20260903141152 | 25 | 195 | 14.5 | 22.5 | 0.00 | 0.00 | 0.00 | 48 | 1019.9 |
| 20260903141103 | 25 | 272 | 12.9 | 24.1 | 0.00 | 0.00 | 0.00 | 47 | 1020.0 |
| 20260903141055 | 25 | 220 | 14.5 | 22.5 | 0.00 | 0.00 | 0.00 | 48 | 1019.9 |
| 20260903141051 | 25 | 219 | 14.5 | 24.1 | 0.00 | 0.00 | 0.00 | 48 | 1019.9 |
| 20260903141047 | 25 | 276 | 12.9 | 24.1 | 0.00 | 0.00 | 0.00 | 47 | 1020.0 |
| 20260903140752 | 25 | 279 | 12.9 | 24.1 | 0.00 | 0.00 | 0.00 | 48 | 1020.0 |
| 20260903140646 | 25 | 253 | 12.9 | 24.1 | 0.00 | 0.00 | 0.00 | 49 | 1020.0 |
| 20260903140546 | 25 | 293 | 12.9 | 24.1 | 0.00 | 0.00 | 0.00 | 48 | 1020.0 |
| 20260903140445 | 25 | 233 | 11.3 | 24.1 | 0.00 | 0.00 | 0.00 | 48 | 1020.0 |
| 20260903140346 | 25 | 232 | 11.3 | 24.1 | 0.00 | 0.00 | 0.00 | 49 | 1020.1 |
| 20260903140336 | 25 | 200 | 11.3 | 24.1 | 0.00 | 0.00 | 0.00 | 49 | 1020.1 |
| 20260903140245 | 25 | 250 | 11.3 | 24.1 | 0.00 | 0.00 | 0.00 | 49 | 1020.0 |
| 20260903140142 | 25 | 205 | 11.3 | 24.1 | 0.00 | 0.00 | 0.00 | 50 | 1020.0 |
| 20260903140042 | 25 | 239 | 11.3 | 24.1 | 0.00 | 0.00 | 0.00 | 49 | 1020.0 |
| 20260903135942 | 25 | 281 | 11.3 | 22.5 | 0.00 | 0.00 | 0.00 | 48 | 1020.0 |
| 20260903135842 | 25 | 259 | 11.3 | 22.5 | 0.00 | 0.00 | 0.00 | 49 | 1020.1 |
| 20260903135834 | 25 | 251 | 11.3 | 22.5 | 0.00 | 0.00 | 0.00 | 49 | 1020.1 |
| 20260903135740 | 25 | 196 | 11.3 | 22.5 | 0.00 | 0.00 | 0.00 | 49 | 1020.1 |
| 20260903135634 | 24 | 273 | 12.9 | 22.5 | 0.00 | 0.00 | 0.00 | 50 | 1020.1 |
| 20260903135534 | 24 | 244 | 12.9 | 22.5 | 0.00 | 0.00 | 0.00 | 50 | 1020.1 |
| 20260903135434 | 24 | 264 | 12.9 | 24.1 | 0.00 | 0.00 | 0.00 | 50 | 1020.1 |
| 20260903135336 | 24 | 252 | 12.9 | 30.6 | 0.00 | 0.00 | 0.00 | 50 | 1020.1 |
| 20260903135331 | 24 | 237 | 12.9 | 30.6 | 0.00 | 0.00 | 0.00 | 50 | 1020.1 |
| 20260903135233 | 24 | 265 | 12.9 | 30.6 | 0.00 | 0.00 | 0.00 | 51 | 1020.1 |
| 20260903135134 | 24 | 221 | 12.9 | 30.6 | 0.00 | 0.00 | 0.00 | 51 | 1020.1 |
| 20260903135031 | 24 | 202 | 12.9 | 30.6 | 0.00 | 0.00 | 0.00 | 51 | 1020.1 |
| 20260903134932 | 24 | 275 | 12.9 | 30.6 | 0.00 | 0.00 | 0.00 | 51 | 1020.1 |
| 20260903134834 | 24 | 221 | 12.9 | 30.6 | 0.00 | 0.00 | 0.00 | 50 | 1020.1 |
| 20260903134830 | 24 | 229 | 12.9 | 30.6 | 0.00 | 0.00 | 0.00 | 50 | 1020.1 |
| 20260903134732 | 24 | 235 | 12.9 | 30.6 | 0.00 | 0.00 | 0.00 | 50 | 1020.1 |
| 20260903134632 | 24 | 239 | 12.9 | 30.6 | 0.00 | 0.00 | 0.00 | 50 | 1020.1 |
| 20260903134530 | 24 | 192 | 12.9 | 30.6 | 0.00 | 0.00 | 0.00 | 51 | 1020.1 |
| 20260903134430 | 24 | 233 | 12.9 | 25.7 | 0.00 | 0.00 | 0.00 | 51 | 1020.1 |
| 20260903134330 | 24 | 246 | 12.9 | 20.9 | 0.00 | 0.00 | 0.00 | 52 | 1020.2 |
| 20260903134229 | 24 | 209 | 12.9 | 20.9 | 0.00 | 0.00 | 0.00 | 51 | 1020.1 |
| 20260903134129 | 24 | 255 | 12.9 | 20.9 | 0.00 | 0.00 | 0.00 | 50 | 1020.2 |
| 20260903134030 | 24 | 279 | 12.9 | 22.5 | 0.00 | 0.00 | 0.00 | 50 | 1020.3 |
| 20260903133931 | 23 | 219 | 12.9 | 22.5 | 0.00 | 0.00 | 0.00 | 50 | 1020.3 |
| 20260903133829 | 23 | 263 | 12.9 | 22.5 | 0.00 | 0.00 | 0.00 | 51 | 1020.2 |
| 20260903133729 | 23 | 273 | 14.5 | 22.5 | 0.00 | 0.00 | 0.00 | 50 | 1020.2 |
| 20260903133629 | 23 | 265 | 14.5 | 22.5 | 0.00 | 0.00 | 0.00 | 51 | 1020.2 |
| 20260903133529 | 23 | 278 | 14.5 | 24.1 | 0.00 | 0.00 | 0.00 | 51 | 1020.1 |
| 20260903133429 | 23 | 256 | 14.5 | 24.1 | 0.00 | 0.00 | 0.00 | 51 | 1020.1 |
| 20260903133330 | 23 | 267 | 14.5 | 24.1 | 0.00 | 0.00 | 0.00 | 51 | 1020.1 |
| 20260903133229 | 23 | 271 | 14.5 | 24.1 | 0.00 | 0.00 | 0.00 | 51 | 1020.1 |
| 20260903133129 | 23 | 246 | 14.5 | 24.1 | 0.00 | 0.00 | 0.00 | 50 | 1020.1 |
| 20260903133028 | 23 | 264 | 12.9 | 24.1 | 0.00 | 0.00 | 0.00 | 51 | 1020.2 |
| 20260903132929 | 23 | 229 | 12.9 | 24.1 | 0.00 | 0.00 | 0.00 | 51 | 1020.1 |
| 20260903132829 | 23 | 266 | 12.9 | 24.1 | 0.00 | 0.00 | 0.00 | 52 | 1020.1 |
| 20260903132729 | 23 | 264 | 11.3 | 24.1 | 0.00 | 0.00 | 0.00 | 51 | 1020.1 |
| 20260903132629 | 23 | 274 | 11.3 | 24.1 | 0.00 | 0.00 | 0.00 | 51 | 1020.2 |
| 20260903132529 | 23 | 255 | 11.3 | 19.3 | 0.00 | 0.00 | 0.00 | 52 | 1020.2 |
| 20260903132429 | 23 | 262 | 11.3 | 19.3 | 0.00 | 0.00 | 0.00 | 52 | 1020.3 |
| 20260903132330 | 23 | 252 | 11.3 | 19.3 | 0.00 | 0.00 | 0.00 | 53 | 1020.2 |
| 20260903132228 | 23 | 278 | 11.3 | 19.3 | 0.00 | 0.00 | 0.00 | 53 | 1020.2 |
| 20260903132128 | 23 | 284 | 11.3 | 19.3 | 0.00 | 0.00 | 0.00 | 53 | 1020.2 |
| 20260903132029 | 23 | 227 | 11.3 | 19.3 | 0.00 | 0.00 | 0.00 | 53 | 1020.1 |
| 20260903131928 | 23 | 276 | 12.9 | 19.3 | 0.00 | 0.00 | 0.00 | 53 | 1020.2 |
| 20260903131828 | 23 | 244 | 12.9 | 19.3 | 0.00 | 0.00 | 0.00 | 52 | 1020.3 |
| 20260903131724 | 23 | 235 | 11.3 | 19.3 | 0.00 | 0.00 | 0.00 | 53 | 1020.3 |
| 20260903131625 | 23 | 219 | 11.3 | 19.3 | 0.00 | 0.00 | 0.00 | 52 | 1020.2 |
| 20260903131524 | 23 | 260 | 12.9 | 20.9 | 0.00 | 0.00 | 0.00 | 52 | 1020.2 |
| 20260903131424 | 23 | 271 | 11.3 | 20.9 | 0.00 | 0.00 | 0.00 | 52 | 1020.4 |
| 20260903131324 | 23 | 223 | 11.3 | 20.9 | 0.00 | 0.00 | 0.00 | 53 | 1020.3 |
| 20260903131217 | 23 | 270 | 11.3 | 20.9 | 0.00 | 0.00 | 0.00 | 53 | 1020.3 |
| 20260903131118 | 23 | 241 | 11.3 | 20.9 | 0.00 | 0.00 | 0.00 | 52 | 1020.3 |
| 20260903131017 | 23 | 260 | 11.3 | 20.9 | 0.00 | 0.00 | 0.00 | 54 | 1020.3 |
| 20260903130917 | 23 | 259 | 11.3 | 20.9 | 0.00 | 0.00 | 0.00 | 53 | 1020.3 |
| 20260903130817 | 23 | 238 | 11.3 | 20.9 | 0.00 | 0.00 | 0.00 | 53 | 1020.4 |
| 20260903130714 | 23 | 275 | 11.3 | 20.9 | 0.00 | 0.00 | 0.00 | 53 | 1020.3 |
| 20260903130616 | 23 | 275 | 11.3 | 19.3 | 0.00 | 0.00 | 0.00 | 53 | 1020.3 |
| 20260903130514 | 23 | 255 | 11.3 | 19.3 | 0.00 | 0.00 | 0.00 | 53 | 1020.3 |
| 20260903130414 | 23 | 207 | 12.9 | 19.3 | 0.00 | 0.00 | 0.00 | 53 | 1020.3 |
| 20260903130312 | 23 | 236 | 12.9 | 24.1 | 0.00 | 0.00 | 0.00 | 53 | 1020.3 |
| 20260903130212 | 23 | 284 | 12.9 | 24.1 | 0.00 | 0.00 | 0.00 | 52 | 1020.3 |
| 20260903130111 | 23 | 260 | 12.9 | 24.1 | 0.00 | 0.00 | 0.00 | 52 | 1020.3 |
| 20260903130012 | 23 | 281 | 12.9 | 24.1 | 0.00 | 0.00 | 0.00 | 52 | 1020.2 |
| 20260903125912 | 23 | 238 | 12.9 | 24.1 | 0.00 | 0.00 | 0.00 | 52 | 1020.3 |
| 20260903125812 | 23 | 276 | 12.9 | 24.1 | 0.00 | 0.00 | 0.00 | 53 | 1020.3 |
| 20260903125807 | 23 | 251 | 12.9 | 24.1 | 0.00 | 0.00 | 0.00 | 53 | 1020.3 |
| 20260903125709 | 23 | 269 | 12.9 | 24.1 | 0.00 | 0.00 | 0.00 | 52 | 1020.2 |
| 20260903125609 | 23 | 240 | 12.9 | 24.1 | 0.00 | 0.00 | 0.00 | 52 | 1020.3 |
| 20260903125510 | 23 | 261 | 12.9 | 24.1 | 0.00 | 0.00 | 0.00 | 51 | 1020.3 |
| 20260903125410 | 23 | 279 | 12.9 | 24.1 | 0.00 | 0.00 | 0.00 | 52 | 1020.3 |
| 20260903125308 | 23 | 277 | 12.9 | 20.9 | 0.00 | 0.00 | 0.00 | 52 | 1020.3 |
| 20260903125208 | 23 | 259 | 12.9 | 20.9 | 0.00 | 0.00 | 0.00 | 52 | 1020.2 |
| 20260903125108 | 23 | 243 | 12.9 | 20.9 | 0.00 | 0.00 | 0.00 | 52 | 1020.2 |
| 20260903125008 | 23 | 306 | 12.9 | 20.9 | 0.00 | 0.00 | 0.00 | 52 | 1020.2 |
| 20260903124908 | 23 | 246 | 11.3 | 20.9 | 0.00 | 0.00 | 0.00 | 52 | 1020.2 |
| 20260903124808 | 23 | 246 | 11.3 | 20.9 | 0.00 | 0.00 | 0.00 | 52 | 1020.1 |
| 20260903124753 | 23 | 286 | 11.3 | 22.5 | 0.00 | 0.00 | 0.00 | 51 | 1020.1 |
| 20260903124746 | 23 | 271 | 11.3 | 20.9 | 0.00 | 0.00 | 0.00 | 51 | 1020.2 |
| 20260903124742 | 23 | 260 | 11.3 | 20.9 | 0.00 | 0.00 | 0.00 | 52 | 1020.2 |
| 20260903124521 | 23 | 273 | 11.3 | 22.5 | 0.00 | 0.00 | 0.00 | 52 | 1020.2 |
| 20260903124517 | 23 | 260 | 11.3 | 22.5 | 0.00 | 0.00 | 0.00 | 52 | 1020.1 |
| 20260903124301 | 23 | 275 | 11.3 | 22.5 | 0.00 | 0.00 | 0.00 | 51 | 1020.1 |
| 20260903124202 | 23 | 279 | 11.3 | 22.5 | 0.00 | 0.00 | 0.00 | 51 | 1020.1 |
| 20260903124102 | 23 | 257 | 11.3 | 22.5 | 0.00 | 0.00 | 0.00 | 52 | 1020.2 |
| 20260903124001 | 23 | 259 | 11.3 | 22.5 | 0.00 | 0.00 | 0.00 | 52 | 1020.2 |
| 20260903123902 | 23 | 284 | 11.3 | 22.5 | 0.00 | 0.00 | 0.00 | 52 | 1020.1 |
| 20260903123806 | 23 | 311 | 11.3 | 22.5 | 0.00 | 0.00 | 0.00 | 51 | 1020.1 |
| 20260903123801 | 23 | 321 | 11.3 | 22.5 | 0.00 | 0.00 | 0.00 | 51 | 1020.1 |
| 20260903123701 | 23 | 338 | 11.3 | 22.5 | 0.00 | 0.00 | 0.00 | 51 | 1020.1 |
| 20260903123601 | 23 | 275 | 11.3 | 22.5 | 0.00 | 0.00 | 0.00 | 51 | 1020.2 |
| 20260903123501 | 23 | 257 | 9.7 | 22.5 | 0.00 | 0.00 | 0.00 | 50 | 1020.2 |
| 20260903123401 | 24 | 278 | 9.7 | 22.5 | 0.00 | 0.00 | 0.00 | 51 | 1020.2 |
| 20260903123305 | 24 | 283 | 9.7 | 22.5 | 0.00 | 0.00 | 0.00 | 51 | 1020.3 |
| 20260903123301 | 24 | 273 | 9.7 | 22.5 | 0.00 | 0.00 | 0.00 | 51 | 1020.3 |
| 20260903123201 | 24 | 288 | 9.7 | 22.5 | 0.00 | 0.00 | 0.00 | 51 | 1020.2 |
| 20260903123102 | 24 | 271 | 9.7 | 19.3 | 0.00 | 0.00 | 0.00 | 51 | 1020.2 |
| 20260903123001 | 24 | 280 | 9.7 | 19.3 | 0.00 | 0.00 | 0.00 | 52 | 1020.2 |
| 20260903122901 | 24 | 256 | 9.7 | 19.3 | 0.00 | 0.00 | 0.00 | 52 | 1020.2 |
| 20260903122805 | 24 | 275 | 9.7 | 19.3 | 0.00 | 0.00 | 0.00 | 51 | 1020.2 |
| 20260903122801 | 24 | 296 | 9.7 | 19.3 | 0.00 | 0.00 | 0.00 | 51 | 1020.2 |
| 20260903122701 | 24 | 289 | 9.7 | 19.3 | 0.00 | 0.00 | 0.00 | 52 | 1020.2 |
| 20260903122601 | 24 | 243 | 9.7 | 19.3 | 0.00 | 0.00 | 0.00 | 51 | 1020.2 |
| 20260903122501 | 24 | 254 | 11.3 | 19.3 | 0.00 | 0.00 | 0.00 | 50 | 1020.3 |
| 20260903122401 | 24 | 280 | 11.3 | 22.5 | 0.00 | 0.00 | 0.00 | 51 | 1020.2 |
| 20260903122305 | 24 | 283 | 11.3 | 22.5 | 0.00 | 0.00 | 0.00 | 51 | 1020.3 |
| 20260903122300 | 24 | 271 | 11.3 | 22.5 | 0.00 | 0.00 | 0.00 | 51 | 1020.3 |
| 20260903122200 | 24 | 253 | 11.3 | 22.5 | 0.00 | 0.00 | 0.00 | 51 | 1020.3 |
| 20260903122100 | 24 | 296 | 12.9 | 24.1 | 0.00 | 0.00 | 0.00 | 50 | 1020.2 |
| 20260903122000 | 24 | 271 | 12.9 | 24.1 | 0.00 | 0.00 | 0.00 | 50 | 1020.3 |
| 20260903121858 | 24 | 250 | 12.9 | 24.1 | 0.00 | 0.00 | 0.00 | 50 | 1020.3 |
| 20260903121801 | 24 | 252 | 12.9 | 24.1 | 0.00 | 0.00 | 0.00 | 50 | 1020.3 |
| 20260903121753 | 24 | 268 | 12.9 | 24.1 | 0.00 | 0.00 | 0.00 | 50 | 1020.3 |
| 20260903121652 | 24 | 266 | 14.5 | 24.1 | 0.00 | 0.00 | 0.00 | 50 | 1020.3 |
| 20260903121551 | 24 | 266 | 14.5 | 24.1 | 0.00 | 0.00 | 0.00 | 50 | 1020.3 |
| 20260903121453 | 24 | 271 | 12.9 | 24.1 | 0.00 | 0.00 | 0.00 | 50 | 1020.3 |
| 20260903121352 | 24 | 238 | 14.5 | 24.1 | 0.00 | 0.00 | 0.00 | 50 | 1020.2 |
| 20260903121302 | 24 | 269 | 14.5 | 24.1 | 0.00 | 0.00 | 0.00 | 50 | 1020.3 |
| 20260903121245 | 24 | 265 | 14.5 | 24.1 | 0.00 | 0.00 | 0.00 | 50 | 1020.3 |
| 20260903121146 | 24 | 256 | 14.5 | 24.1 | 0.00 | 0.00 | 0.00 | 49 | 1020.3 |
| 20260903121045 | 24 | 282 | 14.5 | 25.7 | 0.00 | 0.00 | 0.00 | 50 | 1020.4 |
| 20260903121025 | 24 | 255 | 14.5 | 25.7 | 0.00 | 0.00 | 0.00 | 50 | 1020.4 |
| 20260903121020 | 24 | 240 | 14.5 | 25.7 | 0.00 | 0.00 | 0.00 | 50 | 1020.4 |
| 20260903121014 | 24 | 240 | 14.5 | 25.7 | 0.00 | 0.00 | 0.00 | 50 | 1020.4 |
| 20260903120746 | 24 | 284 | 14.5 | 25.7 | 0.00 | 0.00 | 0.00 | 50 | 1020.4 |
| 20260903120645 | 24 | 279 | 14.5 | 25.7 | 0.00 | 0.00 | 0.00 | 49 | 1020.4 |
| 20260903120545 | 24 | 317 | 14.5 | 25.7 | 0.00 | 0.00 | 0.00 | 48 | 1020.3 |
| 20260903120526 | 24 | 267 | 14.5 | 25.7 | 0.00 | 0.00 | 0.00 | 48 | 1020.3 |
| 20260903120517 | 24 | 263 | 14.5 | 25.7 | 0.00 | 0.00 | 0.00 | 49 | 1020.3 |
| 20260903120513 | 24 | 249 | 14.5 | 25.7 | 0.00 | 0.00 | 0.00 | 49 | 1020.3 |
| 20260903120246 | 24 | 271 | 14.5 | 25.7 | 0.00 | 0.00 | 0.00 | 48 | 1020.3 |
| 20260903120144 | 24 | 256 | 14.5 | 25.7 | 0.00 | 0.00 | 0.00 | 48 | 1020.4 |
| 20260903120045 | 24 | 284 | 14.5 | 25.7 | 0.00 | 0.00 | 0.00 | 49 | 1020.4 |
| 20260903120029 | 24 | 256 | 16.1 | 29.0 | 0.00 | 0.00 | 0.00 | 49 | 1020.4 |
| 20260903120018 | 24 | 291 | 16.1 | 29.0 | 0.00 | 0.00 | 0.00 | 49 | 1020.4 |
| 20260903120014 | 24 | 275 | 16.1 | 29.0 | 0.00 | 0.00 | 0.00 | 49 | 1020.5 |
| 20260903115743 | 24 | 261 | 16.1 | 29.0 | 0.00 | 0.00 | 0.00 | 49 | 1020.4 |
| 20260903115643 | 24 | 297 | 16.1 | 29.0 | 0.00 | 0.00 | 0.00 | 50 | 1020.4 |
| 20260903115538 | 24 | 246 | 16.1 | 29.0 | 0.00 | 0.00 | 0.00 | 48 | 1020.5 |
| 20260903115437 | 24 | 288 | 14.5 | 29.0 | 0.00 | 0.00 | 0.00 | 48 | 1020.4 |
| 20260903115337 | 24 | 273 | 14.5 | 29.0 | 0.00 | 0.00 | 0.00 | 49 | 1020.4 |
| 20260903115305 | 24 | 263 | 14.5 | 29.0 | 0.00 | 0.00 | 0.00 | 48 | 1020.4 |
| 20260903115238 | 24 | 244 | 14.5 | 29.0 | 0.00 | 0.00 | 0.00 | 48 | 1020.4 |
| 20260903115138 | 24 | 242 | 14.5 | 29.0 | 0.00 | 0.00 | 0.00 | 48 | 1020.4 |
| 20260903115036 | 24 | 257 | 14.5 | 29.0 | 0.00 | 0.00 | 0.00 | 48 | 1020.5 |
| 20260903114936 | 24 | 298 | 12.9 | 24.1 | 0.00 | 0.00 | 0.00 | 48 | 1020.5 |
| 20260903114836 | 24 | 248 | 12.9 | 24.1 | 0.00 | 0.00 | 0.00 | 48 | 1020.5 |
| 20260903114801 | 24 | 220 | 12.9 | 24.1 | 0.00 | 0.00 | 0.00 | 48 | 1020.5 |
| 20260903114736 | 24 | 214 | 12.9 | 24.1 | 0.00 | 0.00 | 0.00 | 49 | 1020.5 |
| 20260903114636 | 24 | 256 | 12.9 | 24.1 | 0.00 | 0.00 | 0.00 | 49 | 1020.5 |
| 20260903114536 | 24 | 277 | 12.9 | 24.1 | 0.00 | 0.00 | 0.00 | 48 | 1020.5 |
| 20260903114525 | 24 | 269 | 12.9 | 24.1 | 0.00 | 0.00 | 0.00 | 48 | 1020.5 |
| 20260903114516 | 24 | 312 | 12.9 | 24.1 | 0.00 | 0.00 | 0.00 | 48 | 1020.5 |
| 20260903114512 | 24 | 285 | 12.9 | 24.1 | 0.00 | 0.00 | 0.00 | 48 | 1020.5 |
| 20260903114236 | 24 | 323 | 12.9 | 24.1 | 0.00 | 0.00 | 0.00 | 48 | 1020.5 |
| 20260903114136 | 24 | 257 | 12.9 | 24.1 | 0.00 | 0.00 | 0.00 | 48 | 1020.5 |
| 20260903114036 | 24 | 289 | 12.9 | 24.1 | 0.00 | 0.00 | 0.00 | 49 | 1020.6 |
| 20260903114029 | 24 | 269 | 14.5 | 24.1 | 0.00 | 0.00 | 0.00 | 49 | 1020.7 |
| 20260903114018 | 24 | 275 | 12.9 | 24.1 | 0.00 | 0.00 | 0.00 | 49 | 1020.6 |
| 20260903114013 | 24 | 263 | 12.9 | 24.1 | 0.00 | 0.00 | 0.00 | 49 | 1020.6 |
| 20260903113732 | 24 | 281 | 14.5 | 24.1 | 0.00 | 0.00 | 0.00 | 49 | 1020.7 |
| 20260903113632 | 24 | 236 | 12.9 | 24.1 | 0.00 | 0.00 | 0.00 | 50 | 1020.7 |
| 20260903113531 | 24 | 250 | 12.9 | 24.1 | 0.00 | 0.00 | 0.00 | 50 | 1020.6 |
| 20260903113432 | 24 | 260 | 12.9 | 24.1 | 0.00 | 0.00 | 0.00 | 50 | 1020.6 |
| 20260903113332 | 24 | 315 | 14.5 | 24.1 | 0.00 | 0.00 | 0.00 | 49 | 1020.5 |
| 20260903113302 | 24 | 267 | 14.5 | 24.1 | 0.00 | 0.00 | 0.00 | 50 | 1020.6 |
| 20260903113231 | 24 | 222 | 14.5 | 24.1 | 0.00 | 0.00 | 0.00 | 49 | 1020.6 |
| 20260903113131 | 24 | 306 | 14.5 | 25.7 | 0.00 | 0.00 | 0.00 | 49 | 1020.6 |
| 20260903113031 | 24 | 324 | 14.5 | 25.7 | 0.00 | 0.00 | 0.00 | 49 | 1020.7 |
| 20260903112931 | 24 | 274 | 14.5 | 25.7 | 0.00 | 0.00 | 0.00 | 48 | 1020.6 |
| 20260903112831 | 24 | 262 | 14.5 | 25.7 | 0.00 | 0.00 | 0.00 | 49 | 1020.7 |
| 20260903112801 | 24 | 263 | 14.5 | 25.7 | 0.00 | 0.00 | 0.00 | 49 | 1020.7 |
| 20260903112732 | 24 | 263 | 14.5 | 25.7 | 0.00 | 0.00 | 0.00 | 49 | 1020.7 |
| 20260903112632 | 24 | 240 | 14.5 | 25.7 | 0.00 | 0.00 | 0.00 | 51 | 1020.7 |
| 20260903112532 | 24 | 258 | 14.5 | 25.7 | 0.00 | 0.00 | 0.00 | 50 | 1020.6 |
| 20260903112432 | 24 | 278 | 14.5 | 25.7 | 0.00 | 0.00 | 0.00 | 49 | 1020.6 |
| 20260903112332 | 24 | 281 | 14.5 | 25.7 | 0.00 | 0.00 | 0.00 | 49 | 1020.7 |
| 20260903112305 | 24 | 315 | 12.9 | 25.7 | 0.00 | 0.00 | 0.00 | 49 | 1020.7 |
| 20260903112232 | 24 | 275 | 12.9 | 25.7 | 0.00 | 0.00 | 0.00 | 49 | 1020.7 |
| 20260903112132 | 24 | 281 | 12.9 | 22.5 | 0.00 | 0.00 | 0.00 | 52 | 1020.8 |
| 20260903112031 | 24 | 296 | 12.9 | 22.5 | 0.00 | 0.00 | 0.00 | 51 | 1020.8 |
| 20260903111932 | 24 | 329 | 12.9 | 24.1 | 0.00 | 0.00 | 0.00 | 52 | 1020.8 |
| 20260903111832 | 24 | 261 | 12.9 | 24.1 | 0.00 | 0.00 | 0.00 | 52 | 1020.8 |
| 20260903111802 | 24 | 239 | 12.9 | 24.1 | 0.00 | 0.00 | 0.00 | 52 | 1020.8 |
| 20260903111730 | 24 | 262 | 12.9 | 24.1 | 0.00 | 0.00 | 0.00 | 52 | 1020.8 |
| 20260903111629 | 24 | 275 | 14.5 | 24.1 | 0.00 | 0.00 | 0.00 | 51 | 1020.8 |
| 20260903111529 | 24 | 246 | 14.5 | 24.1 | 0.00 | 0.00 | 0.00 | 51 | 1020.9 |
| 20260903111429 | 24 | 263 | 14.5 | 24.1 | 0.00 | 0.00 | 0.00 | 51 | 1020.9 |
| 20260903111329 | 24 | 273 | 14.5 | 29.0 | 0.00 | 0.00 | 0.00 | 52 | 1020.8 |
| 20260903111302 | 24 | 238 | 12.9 | 29.0 | 0.00 | 0.00 | 0.00 | 52 | 1020.7 |
| 20260903111229 | 24 | 282 | 12.9 | 29.0 | 0.00 | 0.00 | 0.00 | 51 | 1020.7 |
| 20260903111129 | 24 | 238 | 12.9 | 29.0 | 0.00 | 0.00 | 0.00 | 52 | 1020.7 |
| 20260903111029 | 23 | 254 | 12.9 | 29.0 | 0.00 | 0.00 | 0.00 | 51 | 1020.7 |
| 20260903110929 | 23 | 245 | 12.9 | 29.0 | 0.00 | 0.00 | 0.00 | 52 | 1020.7 |
| 20260903110830 | 23 | 227 | 12.9 | 32.2 | 0.00 | 0.00 | 0.00 | 53 | 1020.8 |
| 20260903110802 | 23 | 251 | 12.9 | 32.2 | 0.00 | 0.00 | 0.00 | 53 | 1020.8 |
| 20260903110729 | 23 | 252 | 12.9 | 32.2 | 0.00 | 0.00 | 0.00 | 52 | 1020.8 |
| 20260903110629 | 23 | 234 | 12.9 | 32.2 | 0.00 | 0.00 | 0.00 | 52 | 1020.8 |
| 20260903110529 | 23 | 303 | 12.9 | 32.2 | 0.00 | 0.00 | 0.00 | 52 | 1020.7 |
| 20260903110429 | 23 | 232 | 14.5 | 32.2 | 0.00 | 0.00 | 0.00 | 52 | 1020.7 |
| 20260903110329 | 23 | 215 | 14.5 | 32.2 | 0.00 | 0.00 | 0.00 | 53 | 1020.7 |
| 20260903110302 | 23 | 225 | 14.5 | 32.2 | 0.00 | 0.00 | 0.00 | 53 | 1020.7 |
| 20260903110229 | 23 | 251 | 14.5 | 32.2 | 0.00 | 0.00 | 0.00 | 54 | 1020.7 |
| 20260903110129 | 23 | 252 | 16.1 | 32.2 | 0.00 | 0.00 | 0.00 | 53 | 1020.7 |
| 20260903110026 | 23 | 297 | 16.1 | 32.2 | 0.00 | 0.00 | 0.00 | 52 | 1020.7 |
| 20260903105926 | 23 | 213 | 17.7 | 32.2 | 0.00 | 0.00 | 0.00 | 52 | 1020.7 |
| 20260903105826 | 23 | 247 | 17.7 | 33.8 | 0.00 | 0.00 | 0.00 | 53 | 1020.7 |
| 20260903105801 | 23 | 245 | 17.7 | 33.8 | 0.00 | 0.00 | 0.00 | 53 | 1020.8 |
| 20260903105726 | 23 | 254 | 17.7 | 33.8 | 0.00 | 0.00 | 0.00 | 53 | 1020.8 |
| 20260903105626 | 23 | 298 | 17.7 | 33.8 | 0.00 | 0.00 | 0.00 | 52 | 1020.7 |
| 20260903105525 | 23 | 252 | 17.7 | 33.8 | 0.00 | 0.00 | 0.00 | 53 | 1020.8 |
| 20260903105426 | 23 | 288 | 17.7 | 33.8 | 0.00 | 0.00 | 0.00 | 52 | 1020.8 |
| 20260903105326 | 23 | 281 | 17.7 | 33.8 | 0.00 | 0.00 | 0.00 | 52 | 1020.8 |
| 20260903105301 | 23 | 262 | 17.7 | 33.8 | 0.00 | 0.00 | 0.00 | 52 | 1020.8 |
| 20260903105225 | 23 | 267 | 17.7 | 33.8 | 0.00 | 0.00 | 0.00 | 53 | 1020.8 |
| 20260903105125 | 23 | 263 | 16.1 | 33.8 | 0.00 | 0.00 | 0.00 | 52 | 1020.9 |
| 20260903105025 | 23 | 287 | 16.1 | 33.8 | 0.00 | 0.00 | 0.00 | 53 | 1020.9 |
| 20260903105019 | 23 | 244 | 16.1 | 30.6 | 0.00 | 0.00 | 0.00 | 54 | 1020.8 |
| 20260903105011 | 23 | 264 | 14.5 | 33.8 | 0.00 | 0.00 | 0.00 | 53 | 1020.8 |
| 20260903105007 | 23 | 228 | 14.5 | 25.7 | 0.00 | 0.00 | 0.00 | 53 | 1020.8 |
| 20260903105003 | 23 | 277 | 14.5 | 25.7 | 0.00 | 0.00 | 0.00 | 53 | 1020.8 |
| 20260903104748 | 23 | 262 | 16.1 | 30.6 | 0.00 | 0.00 | 0.00 | 54 | 1020.8 |
| 20260903104744 | 23 | 254 | 14.5 | 25.7 | 0.00 | 0.00 | 0.00 | 53 | 1020.8 |
| 20260903104740 | 23 | 248 | 14.5 | 25.7 | 0.00 | 0.00 | 0.00 | 53 | 1020.8 |
| 20260903104736 | 23 | 279 | 14.5 | 27.4 | 0.00 | 0.00 | 0.00 | 55 | 1020.8 |
| 20260903104727 | 23 | 272 | 14.5 | 27.4 | 0.00 | 0.00 | 0.00 | 54 | 1020.8 |
| 20260903104723 | 23 | 258 | 16.1 | 27.4 | 0.00 | 0.00 | 0.00 | 54 | 1020.8 |
| 20260903104249 | 23 | 299 | 16.1 | 30.6 | 0.00 | 0.00 | 0.00 | 54 | 1020.9 |
| 20260903104245 | 23 | 227 | 16.1 | 30.6 | 0.00 | 0.00 | 0.00 | 54 | 1020.9 |
| 20260903104025 | 23 | 278 | 16.1 | 30.6 | 0.00 | 0.00 | 0.00 | 54 | 1020.8 |
| 20260903104017 | 23 | 269 | 16.1 | 30.6 | 0.00 | 0.00 | 0.00 | 53 | 1020.9 |
| 20260903104013 | 23 | 230 | 16.1 | 30.6 | 0.00 | 0.00 | 0.00 | 54 | 1020.8 |
| 20260903103721 | 23 | 275 | 16.1 | 30.6 | 0.00 | 0.00 | 0.00 | 53 | 1020.9 |
| 20260903103621 | 23 | 261 | 16.1 | 30.6 | 0.00 | 0.00 | 0.00 | 53 | 1020.8 |
| 20260903103521 | 23 | 261 | 16.1 | 30.6 | 0.00 | 0.00 | 0.00 | 53 | 1020.9 |
| 20260903103422 | 23 | 270 | 16.1 | 30.6 | 0.00 | 0.00 | 0.00 | 53 | 1020.8 |
| 20260903103321 | 23 | 289 | 16.1 | 30.6 | 0.00 | 0.00 | 0.00 | 53 | 1020.8 |
| 20260903103301 | 23 | 275 | 16.1 | 25.7 | 0.00 | 0.00 | 0.00 | 53 | 1020.8 |
| 20260903103221 | 23 | 267 | 16.1 | 25.7 | 0.00 | 0.00 | 0.00 | 54 | 1020.8 |
| 20260903103121 | 23 | 294 | 16.1 | 25.7 | 0.00 | 0.00 | 0.00 | 53 | 1020.7 |
| 20260903103021 | 23 | 281 | 16.1 | 25.7 | 0.00 | 0.00 | 0.00 | 54 | 1020.8 |
| 20260903102921 | 23 | 279 | 16.1 | 25.7 | 0.00 | 0.00 | 0.00 | 53 | 1020.7 |
| 20260903102821 | 23 | 281 | 16.1 | 24.1 | 0.00 | 0.00 | 0.00 | 53 | 1020.8 |
| 20260903102802 | 23 | 257 | 16.1 | 24.1 | 0.00 | 0.00 | 0.00 | 53 | 1020.8 |
| 20260903102721 | 23 | 249 | 16.1 | 24.1 | 0.00 | 0.00 | 0.00 | 53 | 1020.8 |
| 20260903102622 | 23 | 257 | 16.1 | 24.1 | 0.00 | 0.00 | 0.00 | 53 | 1020.8 |
| 20260903102522 | 23 | 290 | 14.5 | 24.1 | 0.00 | 0.00 | 0.00 | 53 | 1020.7 |
| 20260903102421 | 23 | 267 | 14.5 | 24.1 | 0.00 | 0.00 | 0.00 | 54 | 1020.8 |
| 20260903102322 | 23 | 302 | 14.5 | 24.1 | 0.00 | 0.00 | 0.00 | 54 | 1020.8 |
| 20260903102305 | 23 | 247 | 14.5 | 24.1 | 0.00 | 0.00 | 0.00 | 54 | 1020.8 |
| 20260903102217 | 23 | 272 | 14.5 | 22.5 | 0.00 | 0.00 | 0.00 | 54 | 1020.8 |
| 20260903102117 | 23 | 265 | 12.9 | 22.5 | 0.00 | 0.00 | 0.00 | 55 | 1020.8 |
| 20260903102033 | 23 | 283 | 12.9 | 22.5 | 0.00 | 0.00 | 0.00 | 55 | 1020.8 |
| 20260903102025 | 23 | 221 | 12.9 | 22.5 | 0.00 | 0.00 | 0.00 | 54 | 1020.8 |
| 20260903102017 | 23 | 325 | 12.9 | 22.5 | 0.00 | 0.00 | 0.00 | 54 | 1020.8 |
| 20260903102013 | 23 | 288 | 12.9 | 22.5 | 0.00 | 0.00 | 0.00 | 55 | 1020.8 |
| 20260903101758 | 22 | 269 | 11.3 | 20.9 | 0.00 | 0.00 | 0.00 | 57 | 1020.9 |
| 20260903101745 | 23 | 303 | 11.3 | 22.5 | 0.00 | 0.00 | 0.00 | 56 | 1020.9 |
| 20260903101742 | 23 | 257 | 11.3 | 22.5 | 0.00 | 0.00 | 0.00 | 56 | 1020.9 |
| 20260903101524 | 23 | 257 | 11.3 | 22.5 | 0.00 | 0.00 | 0.00 | 56 | 1020.9 |
| 20260903101516 | 22 | 263 | 11.3 | 20.9 | 0.00 | 0.00 | 0.00 | 56 | 1020.9 |
| 20260903101512 | 22 | 225 | 11.3 | 20.9 | 0.00 | 0.00 | 0.00 | 57 | 1020.9 |
| 20260903101218 | 22 | 260 | 11.3 | 20.9 | 0.00 | 0.00 | 0.00 | 55 | 1020.9 |
| 20260903101117 | 22 | 227 | 12.9 | 20.9 | 0.00 | 0.00 | 0.00 | 55 | 1021.0 |
| 20260903101017 | 22 | 275 | 11.3 | 20.9 | 0.00 | 0.00 | 0.00 | 56 | 1021.0 |
| 20260903100918 | 22 | 258 | 11.3 | 20.9 | 0.00 | 0.00 | 0.00 | 55 | 1021.0 |
| 20260903100817 | 22 | 289 | 11.3 | 19.3 | 0.00 | 0.00 | 0.00 | 56 | 1020.9 |
| 20260903100801 | 22 | 255 | 11.3 | 19.3 | 0.00 | 0.00 | 0.00 | 55 | 1020.9 |
| 20260903100717 | 22 | 259 | 12.9 | 19.3 | 0.00 | 0.00 | 0.00 | 55 | 1020.9 |
| 20260903100617 | 22 | 287 | 12.9 | 20.9 | 0.00 | 0.00 | 0.00 | 55 | 1021.0 |
| 20260903100517 | 22 | 256 | 12.9 | 20.9 | 0.00 | 0.00 | 0.00 | 55 | 1021.0 |
| 20260903100421 | 22 | 295 | 12.9 | 20.9 | 0.00 | 0.00 | 0.00 | 55 | 1021.0 |
| 20260903100313 | 22 | 268 | 12.9 | 20.9 | 0.00 | 0.00 | 0.00 | 55 | 1020.9 |
| 20260903100302 | 22 | 254 | 12.9 | 20.9 | 0.00 | 0.00 | 0.00 | 55 | 1020.9 |
| 20260903100213 | 22 | 305 | 11.3 | 20.9 | 0.00 | 0.00 | 0.00 | 56 | 1020.9 |
| 20260903100114 | 22 | 244 | 11.3 | 20.9 | 0.00 | 0.00 | 0.00 | 56 | 1020.9 |
| 20260903100014 | 22 | 285 | 12.9 | 20.9 | 0.00 | 0.00 | 0.00 | 56 | 1020.9 |
| 20260903095914 | 22 | 300 | 12.9 | 22.5 | 0.00 | 0.00 | 0.00 | 55 | 1020.9 |
| 20260903095814 | 22 | 282 | 12.9 | 22.5 | 0.00 | 0.00 | 0.00 | 55 | 1021.0 |
| 20260903095802 | 22 | 257 | 12.9 | 22.5 | 0.00 | 0.00 | 0.00 | 55 | 1021.0 |
| 20260903095714 | 22 | 262 | 12.9 | 22.5 | 0.00 | 0.00 | 0.00 | 56 | 1021.1 |
| 20260903095614 | 22 | 283 | 12.9 | 22.5 | 0.00 | 0.00 | 0.00 | 56 | 1021.0 |
| 20260903095531 | 22 | 292 | 14.5 | 22.5 | 0.00 | 0.00 | 0.00 | 56 | 1021.1 |
| 20260903095526 | 22 | 250 | 14.5 | 22.5 | 0.00 | 0.00 | 0.00 | 56 | 1021.1 |
| 20260903095522 | 22 | 281 | 12.9 | 22.5 | 0.00 | 0.00 | 0.00 | 56 | 1021.1 |
| 20260903095514 | 22 | 223 | 14.5 | 22.5 | 0.00 | 0.00 | 0.00 | 56 | 1021.1 |
| 20260903095210 | 22 | 276 | 14.5 | 22.5 | 0.00 | 0.00 | 0.00 | 56 | 1021.1 |
| 20260903095104 | 22 | 275 | 14.5 | 22.5 | 0.00 | 0.00 | 0.00 | 56 | 1021.1 |
| 20260903095004 | 22 | 258 | 12.9 | 22.5 | 0.00 | 0.00 | 0.00 | 55 | 1021.1 |
| 20260903094904 | 22 | 261 | 12.9 | 22.5 | 0.00 | 0.00 | 0.00 | 56 | 1021.2 |
| 20260903094802 | 22 | 269 | 12.9 | 22.5 | 0.00 | 0.00 | 0.00 | 55 | 1021.1 |
| 20260903094701 | 22 | 265 | 12.9 | 25.7 | 0.00 | 0.00 | 0.00 | 55 | 1021.1 |
| 20260903094601 | 22 | 222 | 12.9 | 25.7 | 0.00 | 0.00 | 0.00 | 56 | 1021.1 |
| 20260903094528 | 22 | 271 | 11.3 | 25.7 | 0.00 | 0.00 | 0.00 | 57 | 1021.1 |
| 20260903094523 | 22 | 234 | 12.9 | 25.7 | 0.00 | 0.00 | 0.00 | 56 | 1021.0 |
| 20260903094516 | 22 | 255 | 12.9 | 25.7 | 0.00 | 0.00 | 0.00 | 56 | 1021.0 |
| 20260903094508 | 22 | 282 | 12.9 | 25.7 | 0.00 | 0.00 | 0.00 | 56 | 1021.1 |
| 20260903094246 | 22 | 266 | 11.3 | 25.7 | 0.00 | 0.00 | 0.00 | 57 | 1021.1 |
| 20260903094242 | 22 | 309 | 11.3 | 25.7 | 0.00 | 0.00 | 0.00 | 56 | 1021.0 |
| 20260903094026 | 22 | 259 | 11.3 | 25.7 | 0.00 | 0.00 | 0.00 | 56 | 1021.0 |
| 20260903094022 | 22 | 298 | 11.3 | 25.7 | 0.00 | 0.00 | 0.00 | 56 | 1021.0 |
| 20260903094015 | 22 | 271 | 11.3 | 25.7 | 0.00 | 0.00 | 0.00 | 57 | 1021.1 |
| 20260903093701 | 22 | 263 | 9.7 | 19.3 | 0.00 | 0.00 | 0.00 | 57 | 1021.1 |
| 20260903093601 | 22 | 257 | 9.7 | 19.3 | 0.00 | 0.00 | 0.00 | 57 | 1021.1 |
| 20260903093501 | 22 | 297 | 9.7 | 19.3 | 0.00 | 0.00 | 0.00 | 59 | 1021.1 |
| 20260903093403 | 21 | 306 | 9.7 | 19.3 | 0.00 | 0.00 | 0.00 | 60 | 1021.1 |
| 20260903093301 | 21 | 282 | 9.7 | 19.3 | 0.00 | 0.00 | 0.00 | 60 | 1021.1 |
| 20260903093201 | 21 | 284 | 9.7 | 19.3 | 0.00 | 0.00 | 0.00 | 59 | 1021.1 |
| 20260903093100 | 21 | 229 | 9.7 | 19.3 | 0.00 | 0.00 | 0.00 | 59 | 1021.0 |
| 20260903093000 | 21 | 262 | 9.7 | 19.3 | 0.00 | 0.00 | 0.00 | 58 | 1021.1 |
| 20260903092901 | 21 | 209 | 9.7 | 19.3 | 0.00 | 0.00 | 0.00 | 57 | 1021.1 |
| 20260903092801 | 21 | 211 | 9.7 | 19.3 | 0.00 | 0.00 | 0.00 | 59 | 1021.1 |
| 20260903092757 | 21 | 206 | 9.7 | 19.3 | 0.00 | 0.00 | 0.00 | 59 | 1021.1 |
| 20260903092657 | 21 | 250 | 9.7 | 19.3 | 0.00 | 0.00 | 0.00 | 61 | 1021.1 |
| 20260903092557 | 21 | 225 | 9.7 | 19.3 | 0.00 | 0.00 | 0.00 | 62 | 1021.1 |
| 20260903092457 | 21 | 259 | 9.7 | 19.3 | 0.00 | 0.00 | 0.00 | 62 | 1021.1 |
| 20260903092353 | 21 | 249 | 9.7 | 19.3 | 0.00 | 0.00 | 0.00 | 62 | 1021.1 |
| 20260903092300 | 21 | 237 | 9.7 | 19.3 | 0.00 | 0.00 | 0.00 | 61 | 1021.1 |
| 20260903092253 | 21 | 238 | 9.7 | 19.3 | 0.00 | 0.00 | 0.00 | 61 | 1021.1 |
| 20260903092153 | 21 | 271 | 9.7 | 19.3 | 0.00 | 0.00 | 0.00 | 62 | 1021.1 |
| 20260903092053 | 21 | 246 | 9.7 | 19.3 | 0.00 | 0.00 | 0.00 | 62 | 1021.1 |
| 20260903091951 | 21 | 244 | 9.7 | 19.3 | 0.00 | 0.00 | 0.00 | 62 | 1021.1 |
| 20260903091845 | 21 | 260 | 9.7 | 16.1 | 0.00 | 0.00 | 0.00 | 62 | 1021.2 |
| 20260903091801 | 21 | 253 | 9.7 | 16.1 | 0.00 | 0.00 | 0.00 | 63 | 1021.2 |
| 20260903091745 | 21 | 284 | 9.7 | 16.1 | 0.00 | 0.00 | 0.00 | 63 | 1021.2 |
| 20260903091646 | 21 | 259 | 9.7 | 16.1 | 0.00 | 0.00 | 0.00 | 62 | 1021.2 |
| 20260903091546 | 21 | 273 | 9.7 | 16.1 | 0.00 | 0.00 | 0.00 | 61 | 1021.2 |
| 20260903091444 | 21 | 257 | 9.7 | 16.1 | 0.00 | 0.00 | 0.00 | 62 | 1021.3 |
| 20260903091346 | 21 | 284 | 9.7 | 16.1 | 0.00 | 0.00 | 0.00 | 61 | 1021.2 |
| 20260903091302 | 21 | 284 | 9.7 | 16.1 | 0.00 | 0.00 | 0.00 | 61 | 1021.2 |
| 20260903091243 | 21 | 274 | 9.7 | 19.3 | 0.00 | 0.00 | 0.00 | 61 | 1021.2 |
| 20260903091143 | 21 | 317 | 9.7 | 19.3 | 0.00 | 0.00 | 0.00 | 62 | 1021.1 |
| 20260903091043 | 21 | 299 | 8.0 | 19.3 | 0.00 | 0.00 | 0.00 | 63 | 1021.2 |
| 20260903091026 | 21 | 273 | 8.0 | 19.3 | 0.00 | 0.00 | 0.00 | 62 | 1021.2 |
| 20260903091021 | 21 | 285 | 8.0 | 19.3 | 0.00 | 0.00 | 0.00 | 62 | 1021.2 |
| 20260903091012 | 21 | 234 | 9.7 | 19.3 | 0.00 | 0.00 | 0.00 | 63 | 1021.2 |
| 20260903090741 | 21 | 281 | 8.0 | 19.3 | 0.00 | 0.00 | 0.00 | 62 | 1021.2 |
| 20260903090642 | 21 | 224 | 8.0 | 19.3 | 0.00 | 0.00 | 0.00 | 63 | 1021.2 |
| 20260903090541 | 20 | 254 | 8.0 | 19.3 | 0.00 | 0.00 | 0.00 | 63 | 1021.2 |
| 20260903090441 | 20 | 273 | 8.0 | 19.3 | 0.00 | 0.00 | 0.00 | 63 | 1021.2 |
| 20260903090342 | 20 | 268 | 6.4 | 19.3 | 0.00 | 0.00 | 0.00 | 63 | 1021.3 |
| 20260903090301 | 20 | 257 | 6.4 | 19.3 | 0.00 | 0.00 | 0.00 | 63 | 1021.2 |
| 20260903090239 | 20 | 221 | 6.4 | 12.9 | 0.00 | 0.00 | 0.00 | 63 | 1021.2 |
| 20260903090139 | 20 | 292 | 6.4 | 12.9 | 0.00 | 0.00 | 0.00 | 63 | 1021.3 |
| 20260903090039 | 20 | 273 | 6.4 | 12.9 | 0.00 | 0.00 | 0.00 | 63 | 1021.3 |
| 20260903085939 | 20 | 211 | 6.4 | 12.9 | 0.00 | 0.00 | 0.00 | 64 | 1021.5 |
| 20260903085839 | 20 | 259 | 6.4 | 12.9 | 0.00 | 0.00 | 0.00 | 63 | 1021.3 |
| 20260903085800 | 20 | 310 | 8.0 | 14.5 | 0.00 | 0.00 | 0.00 | 63 | 1021.5 |
| 20260903085737 | 20 | 263 | 8.0 | 16.1 | 0.00 | 0.00 | 0.00 | 63 | 1021.5 |
| 20260903085637 | 20 | 240 | 8.0 | 16.1 | 0.00 | 0.00 | 0.00 | 63 | 1021.5 |
| 20260903085535 | 20 | 261 | 8.0 | 16.1 | 0.00 | 0.00 | 0.00 | 64 | 1021.6 |
| 20260903085436 | 20 | 253 | 8.0 | 16.1 | 0.00 | 0.00 | 0.00 | 64 | 1021.5 |
| 20260903085334 | 20 | 257 | 8.0 | 16.1 | 0.00 | 0.00 | 0.00 | 63 | 1021.6 |
| 20260903085300 | 20 | 274 | 8.0 | 16.1 | 0.00 | 0.00 | 0.00 | 63 | 1021.3 |
| 20260903085231 | 20 | 317 | 8.0 | 16.1 | 0.00 | 0.00 | 0.00 | 64 | 1021.3 |
| 20260903085131 | 20 | 309 | 8.0 | 16.1 | 0.00 | 0.00 | 0.00 | 64 | 1021.6 |
| 20260903085031 | 20 | 274 | 8.0 | 16.1 | 0.00 | 0.00 | 0.00 | 63 | 1021.6 |
| 20260903084929 | 20 | 293 | 9.7 | 20.9 | 0.00 | 0.00 | 0.00 | 64 | 1021.6 |
| 20260903084829 | 20 | 292 | 9.7 | 20.9 | 0.00 | 0.00 | 0.00 | 64 | 1021.6 |
| 20260903084802 | 20 | 284 | 8.0 | 20.9 | 0.00 | 0.00 | 0.00 | 64 | 1021.5 |
| 20260903084729 | 20 | 277 | 8.0 | 20.9 | 0.00 | 0.00 | 0.00 | 64 | 1021.6 |
| 20260903084629 | 20 | 298 | 8.0 | 20.9 | 0.00 | 0.00 | 0.00 | 64 | 1021.6 |
| 20260903084530 | 20 | 279 | 8.0 | 20.9 | 0.00 | 0.00 | 0.00 | 64 | 1021.6 |
| 20260903084429 | 20 | 227 | 9.7 | 20.9 | 0.00 | 0.00 | 0.00 | 64 | 1021.6 |
| 20260903084301 | 20 | 275 | 9.7 | 20.9 | 0.00 | 0.00 | 0.00 | 64 | 1021.5 |
| 20260903084229 | 20 | 265 | 9.7 | 20.9 | 0.00 | 0.00 | 0.00 | 64 | 1021.5 |
| 20260903084129 | 20 | 234 | 11.3 | 20.9 | 0.00 | 0.00 | 0.00 | 64 | 1021.5 |
| 20260903084030 | 20 | 269 | 11.3 | 20.9 | 0.00 | 0.00 | 0.00 | 64 | 1021.5 |
| 20260903084026 | 20 | 283 | 9.7 | 19.3 | 0.00 | 0.00 | 0.00 | 64 | 1021.5 |
| 20260903084020 | 20 | 275 | 9.7 | 19.3 | 0.00 | 0.00 | 0.00 | 64 | 1021.5 |
| 20260903084012 | 20 | 317 | 9.7 | 19.3 | 0.00 | 0.00 | 0.00 | 64 | 1021.3 |
| 20260903083730 | 20 | 252 | 9.7 | 19.3 | 0.00 | 0.00 | 0.00 | 64 | 1021.5 |
| 20260903083629 | 20 | 319 | 9.7 | 19.3 | 0.00 | 0.00 | 0.00 | 64 | 1021.5 |
| 20260903083529 | 20 | 270 | 9.7 | 19.3 | 0.00 | 0.00 | 0.00 | 64 | 1021.5 |
| 20260903083429 | 20 | 273 | 9.7 | 17.7 | 0.00 | 0.00 | 0.00 | 64 | 1021.6 |
| 20260903083329 | 20 | 250 | 9.7 | 17.7 | 0.00 | 0.00 | 0.00 | 64 | 1021.5 |
| 20260903083301 | 20 | 298 | 9.7 | 17.7 | 0.00 | 0.00 | 0.00 | 65 | 1021.3 |
| 20260903083229 | 20 | 300 | 9.7 | 17.7 | 0.00 | 0.00 | 0.00 | 65 | 1021.3 |
| 20260903083129 | 20 | 279 | 9.7 | 16.1 | 0.00 | 0.00 | 0.00 | 66 | 1021.5 |
| 20260903083029 | 20 | 282 | 9.7 | 16.1 | 0.00 | 0.00 | 0.00 | 66 | 1021.3 |
| 20260903082929 | 20 | 309 | 9.7 | 16.1 | 0.00 | 0.00 | 0.00 | 66 | 1021.3 |
| 20260903082829 | 20 | 273 | 9.7 | 16.1 | 0.00 | 0.00 | 0.00 | 66 | 1021.3 |
| 20260903082801 | 19 | 261 | 9.7 | 16.1 | 0.00 | 0.00 | 0.00 | 65 | 1021.2 |
| 20260903082729 | 19 | 297 | 9.7 | 16.1 | 0.00 | 0.00 | 0.00 | 65 | 1021.2 |
| 20260903082628 | 19 | 288 | 9.7 | 16.1 | 0.00 | 0.00 | 0.00 | 65 | 1021.2 |
| 20260903082529 | 19 | 255 | 9.7 | 16.1 | 0.00 | 0.00 | 0.00 | 66 | 1021.2 |
| 20260903082525 | 19 | 209 | 8.0 | 16.1 | 0.00 | 0.00 | 0.00 | 65 | 1021.2 |
| 20260903082519 | 19 | 240 | 8.0 | 16.1 | 0.00 | 0.00 | 0.00 | 66 | 1021.2 |
| 20260903082511 | 19 | 209 | 8.0 | 16.1 | 0.00 | 0.00 | 0.00 | 66 | 1021.2 |
| 20260903082228 | 19 | 209 | 8.0 | 16.1 | 0.00 | 0.00 | 0.00 | 65 | 1021.2 |
| 20260903082128 | 19 | 265 | 8.0 | 17.7 | 0.00 | 0.00 | 0.00 | 65 | 1021.3 |
| 20260903082029 | 19 | 250 | 9.7 | 17.7 | 0.00 | 0.00 | 0.00 | 65 | 1021.3 |
| 20260903081929 | 19 | 263 | 9.7 | 17.7 | 0.00 | 0.00 | 0.00 | 67 | 1021.3 |
| 20260903081833 | 19 | 268 | 9.7 | 17.7 | 0.00 | 0.00 | 0.00 | 67 | 1021.2 |
| 20260903081801 | 19 | 262 | 9.7 | 17.7 | 0.00 | 0.00 | 0.00 | 67 | 1021.2 |
| 20260903081725 | 19 | 272 | 9.7 | 17.7 | 0.00 | 0.00 | 0.00 | 66 | 1021.2 |
| 20260903081625 | 19 | 285 | 9.7 | 17.7 | 0.00 | 0.00 | 0.00 | 67 | 1021.2 |
| 20260903081525 | 19 | 234 | 9.7 | 17.7 | 0.00 | 0.00 | 0.00 | 67 | 1021.1 |
| 20260903081425 | 19 | 233 | 9.7 | 17.7 | 0.00 | 0.00 | 0.00 | 67 | 1021.1 |
| 20260903081328 | 19 | 227 | 9.7 | 17.7 | 0.00 | 0.00 | 0.00 | 66 | 1021.1 |
| 20260903081301 | 19 | 290 | 9.7 | 17.7 | 0.00 | 0.00 | 0.00 | 66 | 1021.1 |
| 20260903081219 | 19 | 214 | 9.7 | 16.1 | 0.00 | 0.00 | 0.00 | 67 | 1021.1 |
| 20260903081119 | 19 | 282 | 9.7 | 16.1 | 0.00 | 0.00 | 0.00 | 67 | 1021.1 |
| 20260903081019 | 19 | 263 | 9.7 | 16.1 | 0.00 | 0.00 | 0.00 | 67 | 1021.2 |
| 20260903080919 | 19 | 267 | 9.7 | 16.1 | 0.00 | 0.00 | 0.00 | 68 | 1021.2 |
| 20260903080822 | 19 | 222 | 9.7 | 16.1 | 0.00 | 0.00 | 0.00 | 69 | 1021.2 |
| 20260903080801 | 18 | 257 | 9.7 | 16.1 | 0.00 | 0.00 | 0.00 | 69 | 1021.2 |
| 20260903080756 | 18 | 225 | 9.7 | 16.1 | 0.00 | 0.00 | 0.00 | 69 | 1021.1 |
| 20260903080743 | 18 | 300 | 9.7 | 16.1 | 0.00 | 0.00 | 0.00 | 69 | 1021.2 |
| 20260903080739 | 18 | 280 | 9.7 | 16.1 | 0.00 | 0.00 | 0.00 | 69 | 1021.2 |
| 20260903080523 | 18 | 246 | 9.7 | 16.1 | 0.00 | 0.00 | 0.00 | 69 | 1021.1 |
| 20260903080519 | 18 | 278 | 9.7 | 16.1 | 0.00 | 0.00 | 0.00 | 69 | 1021.1 |
| 20260903080515 | 18 | 246 | 9.7 | 16.1 | 0.00 | 0.00 | 0.00 | 69 | 1021.1 |
| 20260903080207 | 18 | 219 | 9.7 | 16.1 | 0.00 | 0.00 | 0.00 | 69 | 1021.1 |
| 20260903080107 | 18 | 282 | 9.7 | 16.1 | 0.00 | 0.00 | 0.00 | 70 | 1021.2 |
| 20260903080007 | 18 | 181 | 9.7 | 16.1 | 0.00 | 0.00 | 0.00 | 70 | 1021.2 |
| 20260903075907 | 18 | 290 | 9.7 | 16.1 | 0.00 | 0.00 | 0.00 | 70 | 1021.1 |
| 20260903075810 | 18 | 279 | 9.7 | 16.1 | 0.00 | 0.00 | 0.00 | 70 | 1021.1 |
| 20260903075800 | 18 | 289 | 9.7 | 16.1 | 0.00 | 0.00 | 0.00 | 70 | 1021.1 |
| 20260903075705 | 18 | 259 | 9.7 | 16.1 | 0.00 | 0.00 | 0.00 | 71 | 1021.1 |
| 20260903075605 | 18 | 242 | 8.0 | 16.1 | 0.00 | 0.00 | 0.00 | 71 | 1021.0 |
| 20260903075505 | 18 | 270 | 8.0 | 16.1 | 0.00 | 0.00 | 0.00 | 71 | 1021.0 |
| 20260903075403 | 18 | 219 | 8.0 | 16.1 | 0.00 | 0.00 | 0.00 | 71 | 1021.0 |
| 20260903075310 | 18 | 288 | 8.0 | 16.1 | 0.00 | 0.00 | 0.00 | 71 | 1020.9 |
| 20260903075307 | 18 | 272 | 8.0 | 16.1 | 0.00 | 0.00 | 0.00 | 71 | 1020.9 |
| 20260903075258 | 18 | 231 | 8.0 | 16.1 | 0.00 | 0.00 | 0.00 | 72 | 1021.0 |
| 20260903075243 | 18 | 263 | 8.0 | 16.1 | 0.00 | 0.00 | 0.00 | 71 | 1020.9 |
| 20260903075240 | 18 | 255 | 8.0 | 16.1 | 0.00 | 0.00 | 0.00 | 72 | 1021.0 |
| 20260903075020 | 18 | 220 | 8.0 | 16.1 | 0.00 | 0.00 | 0.00 | 72 | 1021.0 |
| 20260903075016 | 18 | 219 | 8.0 | 16.1 | 0.00 | 0.00 | 0.00 | 72 | 1021.0 |
| 20260903075012 | 18 | 231 | 8.0 | 16.1 | 0.00 | 0.00 | 0.00 | 72 | 1021.0 |
| 20260903074701 | 18 | 237 | 8.0 | 16.1 | 0.00 | 0.00 | 0.00 | 73 | 1020.9 |
| 20260903074601 | 18 | 218 | 8.0 | 16.1 | 0.00 | 0.00 | 0.00 | 73 | 1021.0 |
| 20260903074501 | 18 | 269 | 8.0 | 16.1 | 0.00 | 0.00 | 0.00 | 73 | 1020.9 |
| 20260903074401 | 18 | 252 | 8.0 | 16.1 | 0.00 | 0.00 | 0.00 | 74 | 1020.9 |
| 20260903074301 | 18 | 275 | 8.0 | 16.1 | 0.00 | 0.00 | 0.00 | 73 | 1021.0 |
| 20260903074201 | 17 | 261 | 8.0 | 16.1 | 0.00 | 0.00 | 0.00 | 74 | 1020.9 |
| 20260903074101 | 17 | 273 | 6.4 | 16.1 | 0.00 | 0.00 | 0.00 | 74 | 1021.0 |
| 20260903074001 | 17 | 250 | 6.4 | 16.1 | 0.00 | 0.00 | 0.00 | 74 | 1021.0 |
| 20260903073901 | 17 | 246 | 4.8 | 12.9 | 0.00 | 0.00 | 0.00 | 74 | 1021.0 |
| 20260903073801 | 17 | 227 | 4.8 | 12.9 | 0.00 | 0.00 | 0.00 | 75 | 1021.0 |
| 20260903073701 | 17 | 211 | 4.8 | 12.9 | 0.00 | 0.00 | 0.00 | 75 | 1020.9 |
| 20260903073601 | 17 | 271 | 4.8 | 12.9 | 0.00 | 0.00 | 0.00 | 75 | 1020.9 |
| 20260903073501 | 17 | 286 | 4.8 | 12.9 | 0.00 | 0.00 | 0.00 | 76 | 1020.9 |
| 20260903073401 | 17 | 213 | 3.2 | 12.9 | 0.00 | 0.00 | 0.00 | 76 | 1020.9 |
| 20260903073301 | 17 | 267 | 4.8 | 12.9 | 0.00 | 0.00 | 0.00 | 76 | 1020.9 |
| 20260903073201 | 17 | 266 | 4.8 | 12.9 | 0.00 | 0.00 | 0.00 | 76 | 1021.0 |
| 20260903073101 | 17 | 238 | 4.8 | 12.9 | 0.00 | 0.00 | 0.00 | 76 | 1021.0 |
| 20260903073000 | 17 | 236 | 4.8 | 12.9 | 0.00 | 0.00 | 0.00 | 77 | 1021.0 |
| 20260903072900 | 17 | 236 | 4.8 | 12.9 | 0.00 | 0.00 | 0.00 | 77 | 1021.0 |
| 20260903072801 | 17 | 234 | 6.4 | 12.9 | 0.00 | 0.00 | 0.00 | 77 | 1021.1 |
| 20260903072700 | 17 | 232 | 6.4 | 12.9 | 0.00 | 0.00 | 0.00 | 76 | 1021.1 |
| 20260903072600 | 17 | 273 | 6.4 | 12.9 | 0.00 | 0.00 | 0.00 | 76 | 1021.1 |
| 20260903072500 | 17 | 273 | 6.4 | 12.9 | 0.00 | 0.00 | 0.00 | 77 | 1021.2 |
| 20260903072400 | 17 | 234 | 6.4 | 12.9 | 0.00 | 0.00 | 0.00 | 77 | 1021.1 |
| 20260903072300 | 17 | 286 | 6.4 | 12.9 | 0.00 | 0.00 | 0.00 | 77 | 1021.2 |
| 20260903072200 | 17 | 277 | 6.4 | 12.9 | 0.00 | 0.00 | 0.00 | 78 | 1021.2 |
| 20260903072101 | 16 | 250 | 6.4 | 12.9 | 0.00 | 0.00 | 0.00 | 79 | 1021.2 |
| 20260903072001 | 16 | 279 | 6.4 | 12.9 | 0.00 | 0.00 | 0.00 | 78 | 1021.2 |
| 20260903071901 | 16 | 263 | 6.4 | 12.9 | 0.00 | 0.00 | 0.00 | 79 | 1021.2 |
| 20260903071801 | 16 | 254 | 6.4 | 12.9 | 0.00 | 0.00 | 0.00 | 79 | 1021.2 |
| 20260903071701 | 16 | 271 | 6.4 | 12.9 | 0.00 | 0.00 | 0.00 | 80 | 1021.2 |
| 20260903071601 | 16 | 227 | 6.4 | 12.9 | 0.00 | 0.00 | 0.00 | 80 | 1021.2 |
| 20260903071501 | 16 | 279 | 6.4 | 12.9 | 0.00 | 0.00 | 0.00 | 80 | 1021.2 |
| 20260903071401 | 16 | 216 | 6.4 | 12.9 | 0.00 | 0.00 | 0.00 | 80 | 1021.2 |
| 20260903071300 | 16 | 270 | 6.4 | 12.9 | 0.00 | 0.00 | 0.00 | 81 | 1021.2 |
| 20260903071201 | 16 | 212 | 6.4 | 12.9 | 0.00 | 0.00 | 0.00 | 81 | 1021.2 |
| 20260903071101 | 16 | 211 | 6.4 | 12.9 | 0.00 | 0.00 | 0.00 | 82 | 1021.2 |
| 20260903071020 | 16 | 221 | 6.4 | 12.9 | 0.00 | 0.00 | 0.00 | 82 | 1021.2 |
| 20260903071016 | 16 | 255 | 4.8 | 12.9 | 0.00 | 0.00 | 0.00 | 82 | 1021.3 |
| 20260903071012 | 15 | 271 | 4.8 | 12.9 | 0.00 | 0.00 | 0.00 | 83 | 1021.2 |
| 20260903070755 | 15 | 318 | 3.2 | 9.7 | 0.00 | 0.00 | 0.00 | 86 | 1021.5 |
| 20260903070740 | 15 | 225 | 4.8 | 12.9 | 0.00 | 0.00 | 0.00 | 83 | 1021.3 |
| 20260903070736 | 15 | 238 | 4.8 | 12.9 | 0.00 | 0.00 | 0.00 | 83 | 1021.3 |
| 20260903070521 | 15 | 227 | 3.2 | 12.9 | 0.00 | 0.00 | 0.00 | 84 | 1021.3 |
| 20260903070517 | 15 | 313 | 3.2 | 9.7 | 0.00 | 0.00 | 0.00 | 85 | 1021.3 |
| 20260903070513 | 15 | 318 | 3.2 | 9.7 | 0.00 | 0.00 | 0.00 | 86 | 1021.5 |
| 20260903070205 | 15 | 323 | 3.2 | 6.4 | 0.00 | 0.00 | 0.00 | 86 | 1021.3 |
| 20260903070001 | 15 | 329 | 3.2 | 6.4 | 0.00 | 0.00 | 0.00 | 86 | 1021.3 |
| 20260903065900 | 15 | 329 | 3.2 | 6.4 | 0.00 | 0.00 | 0.00 | 87 | 1021.5 |
| 20260903065800 | 15 | 329 | 3.2 | 6.4 | 0.00 | 0.00 | 0.00 | 87 | 1021.5 |
| 20260903065700 | 14 | 0 | 3.2 | 6.4 | 0.00 | 0.00 | 0.00 | 87 | 1021.5 |
| 20260903065600 | 14 | 5 | 3.2 | 6.4 | 0.00 | 0.00 | 0.00 | 87 | 1021.6 |
| 20260903065500 | 14 | 5 | 3.2 | 6.4 | 0.00 | 0.00 | 0.00 | 87 | 1021.6 |
| 20260903065401 | 14 | 5 | 3.2 | 6.4 | 0.00 | 0.00 | 0.00 | 87 | 1021.6 |
| 20260903065301 | 14 | 5 | 3.2 | 6.4 | 0.00 | 0.00 | 0.00 | 88 | 1021.6 |
| 20260903065200 | 14 | 5 | 3.2 | 6.4 | 0.00 | 0.00 | 0.00 | 88 | 1021.6 |
| 20260903065101 | 14 | 5 | 1.6 | 6.4 | 0.00 | 0.00 | 0.00 | 88 | 1021.6 |
| 20260903065002 | 14 | 9 | 1.6 | 4.8 | 0.00 | 0.00 | 0.00 | 88 | 1021.6 |
| 20260903064901 | 14 | 11 | 1.6 | 4.8 | 0.00 | 0.00 | 0.00 | 88 | 1021.6 |
| 20260903064800 | 14 | 11 | 1.6 | 4.8 | 0.00 | 0.00 | 0.00 | 89 | 1021.6 |
| 20260903064701 | 14 | 11 | 1.6 | 4.8 | 0.00 | 0.00 | 0.00 | 89 | 1021.6 |
| 20260903064601 | 13 | 11 | 1.6 | 4.8 | 0.00 | 0.00 | 0.00 | 89 | 1021.6 |
| 20260903064521 | 13 | 11 | 1.6 | 4.8 | 0.00 | 0.00 | 0.00 | 89 | 1021.6 |
| 20260903064517 | 13 | 11 | 0.0 | 4.8 | 0.00 | 0.00 | 0.00 | 89 | 1021.6 |
| 20260903064513 | 13 | 11 | 0.0 | 4.8 | 0.00 | 0.00 | 0.00 | 89 | 1021.6 |
| 20260903064201 | 13 | 10 | 0.0 | 4.8 | 0.00 | 0.00 | 0.00 | 90 | 1021.6 |
| 20260903064101 | 13 | 10 | 0.0 | 3.2 | 0.00 | 0.00 | 0.00 | 90 | 1021.6 |
| 20260903064001 | 13 | 10 | 0.0 | 1.6 | 0.00 | 0.00 | 0.00 | 90 | 1021.6 |
| 20260903063901 | 13 | 10 | 0.0 | 1.6 | 0.00 | 0.00 | 0.00 | 89 | 1021.6 |
| 20260903063801 | 13 | 10 | 0.0 | 1.6 | 0.00 | 0.00 | 0.00 | 90 | 1021.6 |
| 20260903063700 | 13 | 10 | 0.0 | 1.6 | 0.00 | 0.00 | 0.00 | 90 | 1021.6 |
| 20260903063602 | 13 | 10 | 0.0 | 1.6 | 0.00 | 0.00 | 0.00 | 91 | 1021.5 |
| 20260903063501 | 13 | 10 | 0.0 | 3.2 | 0.00 | 0.00 | 0.00 | 91 | 1021.5 |
| 20260903063400 | 13 | 10 | 0.0 | 3.2 | 0.00 | 0.00 | 0.00 | 91 | 1021.5 |
| 20260903063300 | 13 | 10 | 0.0 | 3.2 | 0.00 | 0.00 | 0.00 | 91 | 1021.5 |
| 20260903063252 | 13 | 10 | 0.0 | 3.2 | 0.00 | 0.00 | 0.00 | 91 | 1021.3 |
| 20260903063247 | 13 | 10 | 0.0 | 3.2 | 0.00 | 0.00 | 0.00 | 91 | 1021.3 |
| 20260903063239 | 13 | 10 | 0.0 | 3.2 | 0.00 | 0.00 | 0.00 | 91 | 1021.5 |
| 20260903063021 | 13 | 10 | 0.0 | 3.2 | 0.00 | 0.00 | 0.00 | 91 | 1021.3 |
| 20260903063017 | 13 | 10 | 0.0 | 3.2 | 0.00 | 0.00 | 0.00 | 91 | 1021.3 |
| 20260903063011 | 13 | 10 | 0.0 | 3.2 | 0.00 | 0.00 | 0.00 | 91 | 1021.3 |
| 20260903062700 | 13 | 10 | 0.0 | 3.2 | 0.00 | 0.00 | 0.00 | 91 | 1021.3 |
| 20260903062600 | 13 | 10 | 0.0 | 3.2 | 0.00 | 0.00 | 0.00 | 91 | 1021.5 |
| 20260903062521 | 13 | 11 | 0.0 | 1.6 | 0.00 | 0.00 | 0.00 | 91 | 1021.3 |
| 20260903062516 | 13 | 11 | 0.0 | 1.6 | 0.00 | 0.00 | 0.00 | 91 | 1021.3 |
| 20260903062513 | 13 | 11 | 0.0 | 1.6 | 0.00 | 0.00 | 0.00 | 91 | 1021.3 |
| 20260903062201 | 13 | 11 | 0.0 | 1.6 | 0.00 | 0.00 | 0.00 | 91 | 1021.2 |
| 20260903062100 | 13 | 11 | 0.0 | 1.6 | 0.00 | 0.00 | 0.00 | 91 | 1021.3 |
| 20260903062000 | 13 | 11 | 0.0 | 1.6 | 0.00 | 0.00 | 0.00 | 91 | 1021.2 |
| 20260903061902 | 13 | 11 | 0.0 | 1.6 | 0.00 | 0.00 | 0.00 | 91 | 1021.3 |
| 20260903061801 | 13 | 11 | 0.0 | 1.6 | 0.00 | 0.00 | 0.00 | 91 | 1021.2 |
| 20260903061701 | 13 | 11 | 0.0 | 1.6 | 0.00 | 0.00 | 0.00 | 91 | 1021.2 |
| 20260903061601 | 13 | 11 | 0.0 | 1.6 | 0.00 | 0.00 | 0.00 | 91 | 1021.2 |
| 20260903061501 | 13 | 11 | 0.0 | 1.6 | 0.00 | 0.00 | 0.00 | 91 | 1021.1 |
| 20260903061401 | 13 | 11 | 0.0 | 1.6 | 0.00 | 0.00 | 0.00 | 91 | 1021.1 |
| 20260903061301 | 13 | 11 | 0.0 | 1.6 | 0.00 | 0.00 | 0.00 | 91 | 1021.1 |
| 20260903061201 | 13 | 11 | 0.0 | 1.6 | 0.00 | 0.00 | 0.00 | 91 | 1021.1 |
| 20260903061104 | 13 | 11 | 0.0 | 1.6 | 0.00 | 0.00 | 0.00 | 91 | 1021.1 |
| 20260903061001 | 13 | 11 | 0.0 | 1.6 | 0.00 | 0.00 | 0.00 | 91 | 1021.1 |
| 20260903060901 | 13 | 11 | 0.0 | 1.6 | 0.00 | 0.00 | 0.00 | 91 | 1021.1 |
| 20260903060802 | 13 | 11 | 0.0 | 1.6 | 0.00 | 0.00 | 0.00 | 91 | 1021.1 |
| 20260903060701 | 13 | 11 | 0.0 | 1.6 | 0.00 | 0.00 | 0.00 | 91 | 1021.0 |
| 20260903060601 | 13 | 11 | 0.0 | 1.6 | 0.00 | 0.00 | 0.00 | 91 | 1021.1 |
| 20260903060501 | 13 | 11 | 0.0 | 1.6 | 0.00 | 0.00 | 0.00 | 91 | 1021.0 |
| 20260903060401 | 12 | 10 | 0.0 | 1.6 | 0.00 | 0.00 | 0.00 | 91 | 1021.0 |
| 20260903060301 | 12 | 10 | 0.0 | 1.6 | 0.00 | 0.00 | 0.00 | 91 | 1021.0 |
| 20260903060201 | 12 | 11 | 0.0 | 1.6 | 0.00 | 0.00 | 0.00 | 91 | 1021.0 |
| 20260903060100 | 12 | 11 | 0.0 | 1.6 | 0.00 | 0.00 | 0.00 | 91 | 1021.0 |
| 20260903060019 | 12 | 11 | 0.0 | 1.6 | 0.00 | 0.00 | 0.00 | 91 | 1021.1 |
| 20260903060015 | 12 | 11 | 0.0 | 1.6 | 0.00 | 0.00 | 0.00 | 91 | 1021.0 |
| 20260903060011 | 12 | 11 | 0.0 | 1.6 | 0.00 | 0.00 | 0.00 | 91 | 1021.0 |
| 20260903055755 | 12 | 11 | 1.6 | 3.2 | 0.00 | 0.00 | 0.00 | 91 | 1021.0 |
| 20260903055747 | 12 | 11 | 0.0 | 1.6 | 0.00 | 0.00 | 0.00 | 91 | 1021.0 |
| 20260903055743 | 12 | 11 | 0.0 | 1.6 | 0.00 | 0.00 | 0.00 | 91 | 1021.0 |
| 20260903055520 | 12 | 11 | 0.0 | 3.2 | 0.00 | 0.00 | 0.00 | 91 | 1021.0 |
| 20260903055516 | 12 | 11 | 0.0 | 3.2 | 0.00 | 0.00 | 0.00 | 91 | 1021.0 |
| 20260903055512 | 12 | 11 | 1.6 | 3.2 | 0.00 | 0.00 | 0.00 | 91 | 1021.0 |
| 20260903055201 | 12 | 11 | 1.6 | 4.8 | 0.00 | 0.00 | 0.00 | 91 | 1021.0 |
| 20260903055101 | 12 | 11 | 1.6 | 4.8 | 0.00 | 0.00 | 0.00 | 90 | 1021.0 |
| 20260903055021 | 12 | 11 | 1.6 | 4.8 | 0.00 | 0.00 | 0.00 | 91 | 1021.0 |
| 20260903055017 | 12 | 11 | 1.6 | 4.8 | 0.00 | 0.00 | 0.00 | 90 | 1021.0 |
| 20260903055013 | 12 | 11 | 1.6 | 4.8 | 0.00 | 0.00 | 0.00 | 91 | 1021.0 |
| 20260903054700 | 12 | 11 | 1.6 | 4.8 | 0.00 | 0.00 | 0.00 | 91 | 1021.0 |
| 20260903054601 | 12 | 11 | 0.0 | 4.8 | 0.00 | 0.00 | 0.00 | 91 | 1021.0 |
| 20260903054500 | 12 | 11 | 0.0 | 4.8 | 0.00 | 0.00 | 0.00 | 91 | 1021.0 |
| 20260903054400 | 12 | 11 | 0.0 | 4.8 | 0.00 | 0.00 | 0.00 | 91 | 1021.0 |
| 20260903054301 | 12 | 11 | 0.0 | 4.8 | 0.00 | 0.00 | 0.00 | 91 | 1021.0 |
| 20260903054201 | 12 | 9 | 0.0 | 0.0 | 0.00 | 0.00 | 0.00 | 91 | 1020.9 |
| 20260903054101 | 12 | 9 | 0.0 | 0.0 | 0.00 | 0.00 | 0.00 | 91 | 1020.9 |
| 20260903054000 | 12 | 9 | 0.0 | 0.0 | 0.00 | 0.00 | 0.00 | 91 | 1021.0 |
| 20260903053900 | 12 | 9 | 0.0 | 0.0 | 0.00 | 0.00 | 0.00 | 91 | 1020.9 |
| 20260903053801 | 12 | 9 | 0.0 | 0.0 | 0.00 | 0.00 | 0.00 | 91 | 1020.9 |
| 20260903053701 | 12 | 9 | 0.0 | 0.0 | 0.00 | 0.00 | 0.00 | 91 | 1020.9 |
| 20260903053601 | 12 | 9 | 0.0 | 0.0 | 0.00 | 0.00 | 0.00 | 91 | 1020.9 |
| 20260903053520 | 12 | 9 | 0.0 | 0.0 | 0.00 | 0.00 | 0.00 | 91 | 1020.9 |
| 20260903053516 | 12 | 9 | 0.0 | 0.0 | 0.00 | 0.00 | 0.00 | 91 | 1020.9 |
| 20260903053512 | 12 | 9 | 0.0 | 0.0 | 0.00 | 0.00 | 0.00 | 91 | 1020.9 |
| 20260903053200 | 12 | 9 | 0.0 | 1.6 | 0.00 | 0.00 | 0.00 | 91 | 1020.9 |
| 20260903053100 | 12 | 9 | 0.0 | 1.6 | 0.00 | 0.00 | 0.00 | 91 | 1020.9 |
| 20260903053000 | 12 | 9 | 0.0 | 1.6 | 0.00 | 0.00 | 0.00 | 91 | 1020.9 |
| 20260903052900 | 12 | 9 | 0.0 | 1.6 | 0.00 | 0.00 | 0.00 | 91 | 1020.8 |
| 20260903052801 | 12 | 9 | 0.0 | 1.6 | 0.00 | 0.00 | 0.00 | 91 | 1020.8 |
| 20260903052701 | 12 | 9 | 0.0 | 1.6 | 0.00 | 0.00 | 0.00 | 91 | 1020.8 |
| 20260903052601 | 12 | 9 | 0.0 | 1.6 | 0.00 | 0.00 | 0.00 | 91 | 1020.8 |
| 20260903052501 | 12 | 9 | 0.0 | 1.6 | 0.00 | 0.00 | 0.00 | 91 | 1020.9 |
| 20260903052400 | 12 | 9 | 0.0 | 1.6 | 0.00 | 0.00 | 0.00 | 91 | 1020.8 |
| 20260903052301 | 12 | 9 | 0.0 | 1.6 | 0.00 | 0.00 | 0.00 | 91 | 1020.9 |
| 20260903052201 | 12 | 9 | 0.0 | 1.6 | 0.00 | 0.00 | 0.00 | 91 | 1020.8 |
| 20260903052101 | 12 | 9 | 0.0 | 1.6 | 0.00 | 0.00 | 0.00 | 91 | 1020.9 |
| 20260903052005 | 12 | 9 | 0.0 | 1.6 | 0.00 | 0.00 | 0.00 | 91 | 1020.9 |
| 20260903051900 | 12 | 9 | 0.0 | 1.6 | 0.00 | 0.00 | 0.00 | 91 | 1020.9 |
| 20260903051801 | 12 | 9 | 0.0 | 1.6 | 0.00 | 0.00 | 0.00 | 91 | 1020.8 |
| 20260903051701 | 12 | 9 | 0.0 | 1.6 | 0.00 | 0.00 | 0.00 | 91 | 1020.9 |
| 20260903051601 | 12 | 9 | 0.0 | 1.6 | 0.00 | 0.00 | 0.00 | 91 | 1020.8 |
| 20260903051501 | 12 | 9 | 0.0 | 1.6 | 0.00 | 0.00 | 0.00 | 91 | 1020.9 |
| 20260903051401 | 12 | 9 | 0.0 | 1.6 | 0.00 | 0.00 | 0.00 | 91 | 1020.9 |
| 20260903051301 | 12 | 9 | 0.0 | 1.6 | 0.00 | 0.00 | 0.00 | 91 | 1020.9 |
| 20260903051201 | 12 | 9 | 0.0 | 0.0 | 0.00 | 0.00 | 0.00 | 91 | 1020.8 |
| 20260903051101 | 12 | 9 | 0.0 | 0.0 | 0.00 | 0.00 | 0.00 | 91 | 1020.8 |
| 20260903051025 | 12 | 9 | 0.0 | 0.0 | 0.00 | 0.00 | 0.00 | 91 | 1020.8 |
| 20260903051017 | 12 | 9 | 0.0 | 0.0 | 0.00 | 0.00 | 0.00 | 91 | 1020.8 |
| 20260903051013 | 12 | 9 | 0.0 | 0.0 | 0.00 | 0.00 | 0.00 | 91 | 1020.8 |
| 20260903050701 | 12 | 9 | 0.0 | 0.0 | 0.00 | 0.00 | 0.00 | 91 | 1020.8 |
| 20260903050601 | 12 | 9 | 0.0 | 0.0 | 0.00 | 0.00 | 0.00 | 91 | 1020.8 |
| 20260903050501 | 12 | 9 | 0.0 | 0.0 | 0.00 | 0.00 | 0.00 | 91 | 1020.8 |
| 20260903050401 | 12 | 9 | 0.0 | 0.0 | 0.00 | 0.00 | 0.00 | 91 | 1020.8 |
| 20260903050301 | 12 | 9 | 0.0 | 0.0 | 0.00 | 0.00 | 0.00 | 91 | 1020.8 |
| 20260903050201 | 12 | 9 | 0.0 | 0.0 | 0.00 | 0.00 | 0.00 | 91 | 1020.8 |
| 20260903050100 | 12 | 9 | 0.0 | 0.0 | 0.00 | 0.00 | 0.00 | 91 | 1020.8 |
| 20260903050023 | 12 | 9 | 0.0 | 0.0 | 0.00 | 0.00 | 0.00 | 91 | 1020.8 |
| 20260903050015 | 12 | 9 | 0.0 | 0.0 | 0.00 | 0.00 | 0.00 | 91 | 1020.8 |
| 20260903050011 | 12 | 9 | 0.0 | 0.0 | 0.00 | 0.00 | 0.00 | 91 | 1020.8 |
| 20260903045700 | 12 | 9 | 0.0 | 0.0 | 0.00 | 0.00 | 0.00 | 91 | 1020.9 |
| 20260903045600 | 12 | 9 | 0.0 | 0.0 | 0.00 | 0.00 | 0.00 | 91 | 1020.9 |
| 20260903045500 | 12 | 9 | 0.0 | 0.0 | 0.00 | 0.00 | 0.00 | 91 | 1020.8 |
| 20260903045400 | 12 | 9 | 0.0 | 0.0 | 0.00 | 0.00 | 0.00 | 91 | 1020.9 |
| 20260903045301 | 12 | 9 | 0.0 | 0.0 | 0.00 | 0.00 | 0.00 | 91 | 1020.9 |
| 20260903045201 | 12 | 9 | 0.0 | 0.0 | 0.00 | 0.00 | 0.00 | 90 | 1020.9 |
| 20260903045101 | 12 | 9 | 0.0 | 1.6 | 0.00 | 0.00 | 0.00 | 90 | 1020.9 |
| 20260903045001 | 12 | 9 | 0.0 | 1.6 | 0.00 | 0.00 | 0.00 | 90 | 1020.9 |
| 20260903044901 | 12 | 9 | 0.0 | 3.2 | 0.00 | 0.00 | 0.00 | 90 | 1020.9 |
| 20260903044801 | 12 | 9 | 0.0 | 3.2 | 0.00 | 0.00 | 0.00 | 90 | 1020.9 |
| 20260903044702 | 12 | 9 | 0.0 | 3.2 | 0.00 | 0.00 | 0.00 | 90 | 1020.9 |
| 20260903044600 | 12 | 9 | 0.0 | 3.2 | 0.00 | 0.00 | 0.00 | 90 | 1020.8 |
| 20260903044500 | 12 | 9 | 0.0 | 3.2 | 0.00 | 0.00 | 0.00 | 90 | 1020.8 |
| 20260903044401 | 12 | 9 | 0.0 | 3.2 | 0.00 | 0.00 | 0.00 | 90 | 1020.9 |
| 20260903044302 | 12 | 9 | 0.0 | 3.2 | 0.00 | 0.00 | 0.00 | 90 | 1020.8 |
| 20260903044200 | 12 | 9 | 0.0 | 3.2 | 0.00 | 0.00 | 0.00 | 90 | 1020.7 |
| 20260903044101 | 12 | 9 | 0.0 | 3.2 | 0.00 | 0.00 | 0.00 | 90 | 1020.7 |
| 20260903044001 | 12 | 9 | 0.0 | 3.2 | 0.00 | 0.00 | 0.00 | 90 | 1020.8 |
| 20260903043901 | 12 | 9 | 0.0 | 3.2 | 0.00 | 0.00 | 0.00 | 90 | 1020.7 |
| 20260903043801 | 12 | 9 | 0.0 | 3.2 | 0.00 | 0.00 | 0.00 | 90 | 1020.8 |
| 20260903043701 | 12 | 9 | 0.0 | 3.2 | 0.00 | 0.00 | 0.00 | 90 | 1020.8 |
| 20260903043601 | 12 | 9 | 0.0 | 3.2 | 0.00 | 0.00 | 0.00 | 90 | 1020.8 |
| 20260903043500 | 12 | 9 | 0.0 | 3.2 | 0.00 | 0.00 | 0.00 | 90 | 1020.8 |
| 20260903043401 | 12 | 9 | 0.0 | 3.2 | 0.00 | 0.00 | 0.00 | 90 | 1020.7 |
| 20260903043301 | 12 | 9 | 0.0 | 3.2 | 0.00 | 0.00 | 0.00 | 90 | 1020.7 |
| 20260903043200 | 12 | 9 | 0.0 | 3.2 | 0.00 | 0.00 | 0.00 | 90 | 1020.7 |
| 20260903043100 | 12 | 9 | 0.0 | 3.2 | 0.00 | 0.00 | 0.00 | 90 | 1020.8 |
| 20260903043000 | 12 | 9 | 0.0 | 3.2 | 0.00 | 0.00 | 0.00 | 90 | 1020.7 |
| 20260903042905 | 12 | 9 | 0.0 | 3.2 | 0.00 | 0.00 | 0.00 | 90 | 1020.7 |
| 20260903042801 | 12 | 9 | 0.0 | 3.2 | 0.00 | 0.00 | 0.00 | 90 | 1020.7 |
| 20260903042701 | 12 | 9 | 1.6 | 3.2 | 0.00 | 0.00 | 0.00 | 90 | 1020.7 |
| 20260903042600 | 12 | 9 | 1.6 | 3.2 | 0.00 | 0.00 | 0.00 | 90 | 1020.7 |
| 20260903042500 | 12 | 9 | 1.6 | 3.2 | 0.00 | 0.00 | 0.00 | 90 | 1020.7 |
| 20260903042403 | 12 | 9 | 1.6 | 3.2 | 0.00 | 0.00 | 0.00 | 90 | 1020.7 |
| 20260903042301 | 12 | 9 | 1.6 | 3.2 | 0.00 | 0.00 | 0.00 | 90 | 1020.7 |
| 20260903042202 | 12 | 9 | 1.6 | 3.2 | 0.00 | 0.00 | 0.00 | 90 | 1020.7 |
| 20260903042102 | 12 | 9 | 1.6 | 3.2 | 0.00 | 0.00 | 0.00 | 90 | 1020.7 |
| 20260903042000 | 12 | 9 | 1.6 | 3.2 | 0.00 | 0.00 | 0.00 | 90 | 1020.8 |
| 20260903041900 | 12 | 9 | 1.6 | 3.2 | 0.00 | 0.00 | 0.00 | 90 | 1020.7 |
| 20260903041801 | 12 | 9 | 1.6 | 3.2 | 0.00 | 0.00 | 0.00 | 90 | 1020.7 |
| 20260903041701 | 12 | 9 | 1.6 | 3.2 | 0.00 | 0.00 | 0.00 | 90 | 1020.7 |
| 20260903041559 | 12 | 9 | 1.6 | 3.2 | 0.00 | 0.00 | 0.00 | 90 | 1020.7 |
| 20260903041459 | 12 | 5 | 1.6 | 3.2 | 0.00 | 0.00 | 0.00 | 90 | 1020.7 |
| 20260903041359 | 12 | 5 | 0.0 | 3.2 | 0.00 | 0.00 | 0.00 | 90 | 1020.7 |
| 20260903041303 | 12 | 5 | 0.0 | 3.2 | 0.00 | 0.00 | 0.00 | 90 | 1020.7 |
| 20260903041259 | 12 | 5 | 0.0 | 3.2 | 0.00 | 0.00 | 0.00 | 90 | 1020.7 |
| 20260903041158 | 12 | 5 | 0.0 | 3.2 | 0.00 | 0.00 | 0.00 | 90 | 1020.7 |
| 20260903041058 | 12 | 5 | 0.0 | 3.2 | 0.00 | 0.00 | 0.00 | 90 | 1020.7 |
| 20260903040956 | 12 | 5 | 0.0 | 3.2 | 0.00 | 0.00 | 0.00 | 90 | 1020.7 |
| 20260903040857 | 12 | 5 | 1.6 | 3.2 | 0.00 | 0.00 | 0.00 | 90 | 1020.7 |
| 20260903040801 | 12 | 5 | 1.6 | 3.2 | 0.00 | 0.00 | 0.00 | 90 | 1020.7 |
| 20260903040755 | 12 | 5 | 1.6 | 3.2 | 0.00 | 0.00 | 0.00 | 90 | 1020.7 |
| 20260903040653 | 12 | 5 | 1.6 | 3.2 | 0.00 | 0.00 | 0.00 | 90 | 1020.7 |
| 20260903040551 | 12 | 5 | 1.6 | 3.2 | 0.00 | 0.00 | 0.00 | 90 | 1020.6 |
| 20260903040450 | 12 | 5 | 1.6 | 3.2 | 0.00 | 0.00 | 0.00 | 90 | 1020.7 |
| 20260903040354 | 12 | 5 | 1.6 | 3.2 | 0.00 | 0.00 | 0.00 | 90 | 1020.6 |
| 20260903040301 | 12 | 5 | 1.6 | 3.2 | 0.00 | 0.00 | 0.00 | 90 | 1020.6 |
| 20260903040248 | 12 | 5 | 1.6 | 3.2 | 0.00 | 0.00 | 0.00 | 90 | 1020.6 |
| 20260903040149 | 12 | 5 | 0.0 | 3.2 | 0.00 | 0.00 | 0.00 | 90 | 1020.6 |
| 20260903040048 | 12 | 5 | 0.0 | 3.2 | 0.00 | 0.00 | 0.00 | 90 | 1020.6 |
| 20260903035949 | 12 | 5 | 0.0 | 3.2 | 0.00 | 0.00 | 0.00 | 90 | 1020.6 |
| 20260903035851 | 12 | 5 | 0.0 | 3.2 | 0.00 | 0.00 | 0.00 | 90 | 1020.6 |
| 20260903035800 | 12 | 5 | 0.0 | 3.2 | 0.00 | 0.00 | 0.00 | 90 | 1020.6 |
| 20260903035748 | 12 | 5 | 0.0 | 3.2 | 0.00 | 0.00 | 0.00 | 90 | 1020.6 |
| 20260903035648 | 12 | 5 | 0.0 | 3.2 | 0.00 | 0.00 | 0.00 | 90 | 1020.6 |
| 20260903035547 | 12 | 5 | 1.6 | 3.2 | 0.00 | 0.00 | 0.00 | 90 | 1020.6 |
| 20260903035523 | 12 | 5 | 1.6 | 3.2 | 0.00 | 0.00 | 0.00 | 90 | 1020.5 |
| 20260903035520 | 12 | 5 | 1.6 | 3.2 | 0.00 | 0.00 | 0.00 | 90 | 1020.6 |
| 20260903035515 | 12 | 5 | 1.6 | 3.2 | 0.00 | 0.00 | 0.00 | 90 | 1020.6 |
| 20260903035246 | 12 | 5 | 1.6 | 3.2 | 0.00 | 0.00 | 0.00 | 90 | 1020.5 |
| 20260903035146 | 12 | 5 | 1.6 | 3.2 | 0.00 | 0.00 | 0.00 | 90 | 1020.5 |
| 20260903035046 | 12 | 5 | 1.6 | 3.2 | 0.00 | 0.00 | 0.00 | 90 | 1020.5 |
| 20260903034946 | 12 | 5 | 1.6 | 3.2 | 0.00 | 0.00 | 0.00 | 90 | 1020.5 |
| 20260903034847 | 12 | 5 | 1.6 | 3.2 | 0.00 | 0.00 | 0.00 | 90 | 1020.5 |
| 20260903034801 | 12 | 5 | 1.6 | 3.2 | 0.00 | 0.00 | 0.00 | 90 | 1020.5 |
| 20260903034743 | 12 | 5 | 1.6 | 3.2 | 0.00 | 0.00 | 0.00 | 90 | 1020.5 |
| 20260903034643 | 12 | 5 | 1.6 | 3.2 | 0.00 | 0.00 | 0.00 | 90 | 1020.5 |
| 20260903034543 | 12 | 0 | 1.6 | 3.2 | 0.00 | 0.00 | 0.00 | 90 | 1020.5 |
| 20260903034442 | 12 | 0 | 0.0 | 3.2 | 0.00 | 0.00 | 0.00 | 90 | 1020.5 |
| 20260903034344 | 12 | 0 | 1.6 | 3.2 | 0.00 | 0.00 | 0.00 | 90 | 1020.5 |
| 20260903034301 | 12 | 0 | 1.6 | 3.2 | 0.00 | 0.00 | 0.00 | 90 | 1020.6 |
| 20260903034242 | 12 | 0 | 1.6 | 3.2 | 0.00 | 0.00 | 0.00 | 90 | 1020.6 |
| 20260903034142 | 12 | 0 | 1.6 | 3.2 | 0.00 | 0.00 | 0.00 | 90 | 1020.5 |
| 20260903034042 | 12 | 0 | 1.6 | 3.2 | 0.00 | 0.00 | 0.00 | 90 | 1020.5 |
| 20260903033942 | 12 | 0 | 1.6 | 3.2 | 0.00 | 0.00 | 0.00 | 90 | 1020.5 |
| 20260903033843 | 12 | 0 | 1.6 | 3.2 | 0.00 | 0.00 | 0.00 | 90 | 1020.5 |
| 20260903033800 | 12 | 355 | 1.6 | 3.2 | 0.00 | 0.00 | 0.00 | 90 | 1020.5 |
| 20260903033743 | 12 | 355 | 1.6 | 3.2 | 0.00 | 0.00 | 0.00 | 89 | 1020.5 |
| 20260903033643 | 12 | 355 | 1.6 | 3.2 | 0.00 | 0.00 | 0.00 | 89 | 1020.5 |
| 20260903033543 | 12 | 355 | 1.6 | 3.2 | 0.00 | 0.00 | 0.00 | 89 | 1020.5 |
| 20260903033443 | 12 | 355 | 1.6 | 3.2 | 0.00 | 0.00 | 0.00 | 89 | 1020.5 |
| 20260903033342 | 12 | 355 | 1.6 | 3.2 | 0.00 | 0.00 | 0.00 | 89 | 1020.5 |
| 20260903033301 | 12 | 355 | 0.0 | 3.2 | 0.00 | 0.00 | 0.00 | 89 | 1020.5 |
| 20260903033242 | 12 | 355 | 0.0 | 3.2 | 0.00 | 0.00 | 0.00 | 89 | 1020.5 |
| 20260903033142 | 12 | 355 | 0.0 | 3.2 | 0.00 | 0.00 | 0.00 | 89 | 1020.6 |
| 20260903033042 | 12 | 355 | 0.0 | 3.2 | 0.00 | 0.00 | 0.00 | 89 | 1020.5 |
| 20260903032938 | 12 | 355 | 0.0 | 3.2 | 0.00 | 0.00 | 0.00 | 89 | 1020.6 |
| 20260903032839 | 12 | 355 | 0.0 | 3.2 | 0.00 | 0.00 | 0.00 | 89 | 1020.6 |
| 20260903032801 | 12 | 350 | 0.0 | 3.2 | 0.00 | 0.00 | 0.00 | 89 | 1020.6 |
| 20260903032738 | 12 | 350 | 0.0 | 3.2 | 0.00 | 0.00 | 0.00 | 89 | 1020.6 |
| 20260903032639 | 12 | 342 | 0.0 | 1.6 | 0.00 | 0.00 | 0.00 | 89 | 1020.6 |
| 20260903032539 | 12 | 340 | 0.0 | 0.0 | 0.00 | 0.00 | 0.00 | 89 | 1020.6 |
| 20260903032523 | 12 | 336 | 0.0 | 0.0 | 0.00 | 0.00 | 0.00 | 88 | 1020.7 |
| 20260903032519 | 12 | 340 | 0.0 | 0.0 | 0.00 | 0.00 | 0.00 | 89 | 1020.7 |
| 20260903032515 | 12 | 336 | 0.0 | 0.0 | 0.00 | 0.00 | 0.00 | 89 | 1020.7 |
| 20260903032238 | 12 | 336 | 0.0 | 0.0 | 0.00 | 0.00 | 0.00 | 88 | 1020.7 |
| 20260903032138 | 12 | 336 | 0.0 | 0.0 | 0.00 | 0.00 | 0.00 | 88 | 1020.6 |
| 20260903032038 | 12 | 336 | 0.0 | 0.0 | 0.00 | 0.00 | 0.00 | 88 | 1020.7 |
| 20260903031938 | 12 | 336 | 0.0 | 0.0 | 0.00 | 0.00 | 0.00 | 88 | 1020.7 |
| 20260903031839 | 12 | 336 | 0.0 | 0.0 | 0.00 | 0.00 | 0.00 | 88 | 1020.7 |
| 20260903031802 | 12 | 336 | 0.0 | 0.0 | 0.00 | 0.00 | 0.00 | 88 | 1020.7 |
| 20260903031738 | 12 | 336 | 0.0 | 1.6 | 0.00 | 0.00 | 0.00 | 88 | 1020.7 |
| 20260903031638 | 12 | 336 | 0.0 | 1.6 | 0.00 | 0.00 | 0.00 | 88 | 1020.7 |
| 20260903031538 | 12 | 336 | 0.0 | 3.2 | 0.00 | 0.00 | 0.00 | 88 | 1020.7 |
| 20260903031439 | 12 | 336 | 0.0 | 3.2 | 0.00 | 0.00 | 0.00 | 88 | 1020.7 |
| 20260903031339 | 12 | 336 | 1.6 | 3.2 | 0.00 | 0.00 | 0.00 | 88 | 1020.7 |
| 20260903031300 | 12 | 336 | 1.6 | 3.2 | 0.00 | 0.00 | 0.00 | 88 | 1020.7 |
| 20260903031238 | 12 | 336 | 1.6 | 3.2 | 0.00 | 0.00 | 0.00 | 88 | 1020.7 |
| 20260903031139 | 12 | 336 | 1.6 | 3.2 | 0.00 | 0.00 | 0.00 | 88 | 1020.7 |
| 20260903031035 | 12 | 336 | 1.6 | 3.2 | 0.00 | 0.00 | 0.00 | 88 | 1020.7 |
| 20260903031020 | 12 | 336 | 1.6 | 3.2 | 0.00 | 0.00 | 0.00 | 88 | 1020.7 |
| 20260903031016 | 12 | 336 | 1.6 | 3.2 | 0.00 | 0.00 | 0.00 | 88 | 1020.7 |
| 20260903030735 | 12 | 336 | 1.6 | 3.2 | 0.00 | 0.00 | 0.00 | 88 | 1020.7 |
| 20260903030635 | 12 | 336 | 1.6 | 3.2 | 0.00 | 0.00 | 0.00 | 88 | 1020.7 |
| 20260903030535 | 12 | 336 | 0.0 | 3.2 | 0.00 | 0.00 | 0.00 | 88 | 1020.7 |
| 20260903030435 | 12 | 336 | 0.0 | 3.2 | 0.00 | 0.00 | 0.00 | 88 | 1020.7 |
| 20260903030334 | 12 | 336 | 0.0 | 3.2 | 0.00 | 0.00 | 0.00 | 88 | 1020.7 |
| 20260903030301 | 12 | 336 | 0.0 | 3.2 | 0.00 | 0.00 | 0.00 | 88 | 1020.7 |
| 20260903030235 | 12 | 336 | 0.0 | 3.2 | 0.00 | 0.00 | 0.00 | 88 | 1020.7 |
| 20260903030134 | 12 | 336 | 0.0 | 0.0 | 0.00 | 0.00 | 0.00 | 88 | 1020.7 |
| 20260903030034 | 12 | 335 | 0.0 | 0.0 | 0.00 | 0.00 | 0.00 | 88 | 1020.7 |
| 20260903030021 | 12 | 335 | 0.0 | 0.0 | 0.00 | 0.00 | 0.00 | 88 | 1020.7 |
| 20260903030017 | 12 | 335 | 0.0 | 0.0 | 0.00 | 0.00 | 0.00 | 88 | 1020.7 |
| 20260903025734 | 12 | 335 | 0.0 | 0.0 | 0.00 | 0.00 | 0.00 | 88 | 1020.7 |
| 20260903025634 | 12 | 335 | 0.0 | 0.0 | 0.00 | 0.00 | 0.00 | 88 | 1020.7 |
| 20260903025534 | 12 | 335 | 0.0 | 0.0 | 0.00 | 0.00 | 0.00 | 88 | 1020.7 |
| 20260903025434 | 12 | 335 | 0.0 | 0.0 | 0.00 | 0.00 | 0.00 | 88 | 1020.7 |
| 20260903025335 | 12 | 335 | 0.0 | 0.0 | 0.00 | 0.00 | 0.00 | 88 | 1020.7 |
| 20260903025302 | 12 | 335 | 0.0 | 0.0 | 0.00 | 0.00 | 0.00 | 88 | 1020.7 |
| 20260903025234 | 12 | 335 | 0.0 | 0.0 | 0.00 | 0.00 | 0.00 | 88 | 1020.7 |
| 20260903025135 | 12 | 335 | 0.0 | 0.0 | 0.00 | 0.00 | 0.00 | 88 | 1020.7 |
| 20260903025035 | 12 | 335 | 0.0 | 0.0 | 0.00 | 0.00 | 0.00 | 88 | 1020.6 |
| 20260903024935 | 12 | 335 | 0.0 | 0.0 | 0.00 | 0.00 | 0.00 | 88 | 1020.6 |
| 20260903024834 | 12 | 335 | 0.0 | 0.0 | 0.00 | 0.00 | 0.00 | 88 | 1020.7 |
| 20260903024801 | 12 | 335 | 0.0 | 0.0 | 0.00 | 0.00 | 0.00 | 87 | 1020.6 |
| 20260903024735 | 12 | 335 | 0.0 | 0.0 | 0.00 | 0.00 | 0.00 | 87 | 1020.6 |
| 20260903024635 | 12 | 335 | 0.0 | 0.0 | 0.00 | 0.00 | 0.00 | 87 | 1020.6 |
| 20260903024535 | 12 | 335 | 0.0 | 0.0 | 0.00 | 0.00 | 0.00 | 87 | 1020.6 |